[[{"header":{"parameterUnit":"m.s-1","parameterCategory":1,"la1":30.6,"la2":28.766,"lo1":-90.7593,"lo2":-88.6598,"dy":0.0162,"dx":0.0183,"nx":116,"ny":114,"refTime":"2023-10-14T00:00:00:Z","depth":0,"parameterNumber":2,"parameterNumberName":"U-component_of_WINDS"},"data":[0.0,0.0,0.0,0.0,0.0,0.0,0.0,0.0,0.0,0.0,0.0,0.0,0.0,0.0,0.0,0.0,0.0,0.0,0.0,0.0,0.0,0.0,0.0,0.0,0.0,0.0,0.0,0.0,0.0,0.0,0.0,0.0,0.0,0.0,0.0,0.0,0.0,0.0,0.0,0.0,0.0,0.0,0.0,0.0,0.0,0.0,0.0,0.0,0.0,0.0,0.0,0.0,0.0,0.0,0.0,0.0,0.0,0.0,0.0,0.0,0.0,0.0,0.0,0.0,0.0,0.0,0.0,0.0,0.0,0.0,0.0,0.0,0.0,0.0,0.0,0.0,0.0,0.0,0.0,0.0,0.0,0.0,0.0,0.0,0.0,0.0,0.0,0.0,0.0,0.0,0.0,0.0,0.0,0.0,0.0,0.0,0.0,0.0,0.0,0.0,0.0,0.0,0.0,0.0,0.0,0.0,0.0,0.0,0.0,0.0,0.0,0.0,0.0,0.0,0.0,0.0,0.0,0.0,0.0,0.0,0.0,0.0,0.0,0.0,0.0,0.0,0.0,0.0,0.0,0.0,0.0,0.0,0.0,0.0,0.0,0.0,0.0,0.0,0.0,0.0,0.0,0.0,0.0,0.0,0.0,0.0,0.0,0.0,0.0,0.0,0.0,0.0,0.0,0.0,0.0,0.0,0.0,0.0,0.0,0.0,0.0,0.0,0.0,0.0,0.0,0.0,0.0,0.0,0.0,0.0,0.0,0.0,0.0,0.0,0.0,0.0,0.0,0.0,0.0,0.0,0.0,0.0,0.0,0.0,0.0,0.0,0.0,0.0,0.0,0.0,0.0,0.0,0.0,0.0,0.0,0.0,0.0,0.0,0.0,0.0,0.0,0.0,0.0,0.0,0.0,0.0,0.0,0.0,0.0,0.0,0.0,0.0,0.0,0.0,0.0,0.0,0.0,0.0,0.0,0.0,0.0,0.0,0.0,0.0,0.0,0.0,0.0,0.0,0.0,0.0,0.0,0.0,0.0,0.0,0.0,0.0,0.0,0.0,0.0,0.0,0.0,0.0,0.0,0.0,0.0,0.0,0.0,0.0,0.0,0.0,0.0,0.0,0.0,0.0,0.0,0.0,0.0,0.0,0.0,0.0,0.0,0.0,0.0,0.0,0.0,0.0,0.0,0.0,0.0,0.0,0.0,0.0,0.0,0.0,0.0,0.0,0.0,0.0,0.0,0.0,0.0,0.0,0.0,0.0,0.0,0.0,0.0,0.0,0.0,0.0,0.0,0.0,0.0,0.0,0.0,0.0,0.0,0.0,0.0,0.0,0.0,0.0,0.0,0.0,0.0,0.0,0.0,0.0,0.0,0.0,0.0,0.0,0.0,0.0,0.0,0.0,0.0,0.0,0.0,0.0,0.0,0.0,0.0,0.0,0.0,0.0,0.0,0.0,0.0,0.0,0.0,0.0,0.0,0.0,0.0,0.0,0.0,0.0,0.0,0.0,0.0,0.0,0.0,0.0,0.0,0.0,0.0,0.0,0.0,0.0,0.0,0.0,0.0,0.0,0.0,0.0,0.0,0.0,0.0,0.0,0.0,0.0,0.0,0.0,0.0,0.0,0.0,0.0,0.0,0.0,0.0,0.0,0.0,0.0,0.0,0.0,0.0,0.0,0.0,0.0,0.0,0.0,0.0,0.0,0.0,0.0,0.0,0.0,0.0,0.0,0.0,0.0,0.0,0.0,0.0,0.0,0.0,0.0,0.0,0.0,0.0,0.0,0.0,0.0,0.0,0.0,0.0,0.0,0.0,0.0,0.0,0.0,0.0,0.0,0.0,0.0,0.0,0.0,0.0,0.0,0.0,0.0,0.0,0.0,0.0,0.0,0.0,0.0,0.0,0.0,0.0,0.0,0.0,0.0,0.0,0.0,0.0,0.0,0.0,0.0,0.0,0.0,0.0,0.0,0.0,0.0,0.0,0.0,0.0,0.0,0.0,0.0,0.0,0.0,0.0,0.0,0.0,0.0,0.0,0.0,0.0,0.0,0.0,0.0,0.0,0.0,0.0,0.0,0.0,0.0,0.0,0.0,0.0,0.0,0.0,0.0,0.0,0.0,0.0,0.0,0.0,0.0,0.0,0.0,0.0,0.0,0.0,0.0,0.0,0.0,0.0,0.0,0.0,0.0,0.0,0.0,0.0,0.0,0.0,0.0,0.0,0.0,0.0,0.0,0.0,0.0,0.0,0.0,0.0,0.0,0.0,0.0,0.0,0.0,0.0,0.0,0.0,0.0,0.0,0.0,0.0,0.0,0.0,0.0,0.0,0.0,0.0,0.0,0.0,0.0,0.0,0.0,0.0,0.0,0.0,0.0,0.0,0.0,0.0,0.0,0.0,0.0,0.0,0.0,0.0,0.0,0.0,0.0,0.0,0.0,0.0,0.0,0.0,0.0,0.0,0.0,0.0,0.0,0.0,0.0,0.0,0.0,0.0,0.0,0.0,0.0,0.0,0.0,0.0,0.0,0.0,0.0,0.0,0.0,0.0,0.0,0.0,0.0,0.0,0.0,0.0,0.0,0.0,0.0,0.0,0.0,0.0,0.0,0.0,0.0,0.0,0.0,0.0,0.0,0.0,0.0,0.0,0.0,0.0,0.0,0.0,0.0,0.0,0.0,0.0,0.0,0.0,0.0,0.0,0.0,0.0,0.0,0.0,0.0,0.0,0.0,0.0,0.0,0.0,0.0,0.0,0.0,0.0,0.0,0.0,0.0,0.0,0.0,0.0,0.0,0.0,0.0,0.0,0.0,0.0,0.0,0.0,0.0,0.0,0.0,0.0,0.0,0.0,0.0,0.0,0.0,0.0,0.0,0.0,0.0,0.0,0.0,0.0,0.0,0.0,0.0,0.0,0.0,0.0,0.0,0.0,0.0,0.0,0.0,0.0,0.0,0.0,0.0,0.0,0.0,0.0,0.0,0.0,0.0,0.0,0.0,0.0,0.0,0.0,0.0,0.0,0.0,0.0,0.0,0.0,0.0,0.0,0.0,0.0,0.0,0.0,0.0,0.0,0.0,0.0,0.0,0.0,0.0,0.0,0.0,0.0,0.0,0.0,0.0,0.0,0.0,0.0,0.0,0.0,0.0,0.0,0.0,0.0,0.0,0.0,0.0,0.0,0.0,0.0,0.0,0.0,0.0,0.0,0.0,0.0,0.0,0.0,0.0,0.0,0.0,0.0,0.0,0.0,0.0,0.0,0.0,0.0,0.0,0.0,0.0,0.0,0.0,0.0,0.0,0.0,0.0,0.0,0.0,0.0,0.0,0.0,0.0,0.0,0.0,0.0,0.0,0.0,0.0,0.0,0.0,0.0,0.0,0.0,0.0,0.0,0.0,0.0,0.0,0.0,0.0,0.0,0.0,0.0,0.0,0.0,0.0,0.0,0.0,0.0,0.0,0.0,0.0,0.0,0.0,0.0,0.0,0.0,0.0,0.0,0.0,0.0,0.0,0.0,0.0,0.0,0.0,0.0,0.0,0.0,0.0,0.0,0.0,0.0,0.0,0.0,0.0,0.0,0.0,0.0,0.0,0.0,0.0,0.0,0.0,0.0,0.0,0.0,0.0,0.0,0.0,0.0,0.0,0.0,0.0,0.0,0.0,0.0,0.0,0.0,0.0,0.0,0.0,0.0,0.0,0.0,0.0,0.0,0.0,0.0,0.0,0.0,0.0,0.0,0.0,0.0,0.0,0.0,0.0,0.0,0.0,0.0,0.0,0.0,0.0,0.0,0.0,0.0,0.0,0.0,0.0,0.0,0.0,0.0,0.0,0.0,0.0,0.0,0.0,0.0,0.0,0.0,0.0,0.0,0.0,0.0,0.0,0.0,0.0,0.0,0.0,0.0,0.0,0.0,0.0,0.0,0.0,0.0,0.0,0.0,0.0,0.0,0.0,0.0,0.0,0.0,0.0,0.0,0.0,0.0,0.0,0.0,0.0,0.0,0.0,0.0,0.0,0.0,0.0,0.0,0.0,0.0,0.0,0.0,0.0,0.0,0.0,0.0,0.0,0.0,0.0,0.0,0.0,0.0,0.0,0.0,0.0,0.0,0.0,0.0,0.0,0.0,0.0,0.0,0.0,0.0,0.0,0.0,0.0,0.0,0.0,0.0,0.0,0.0,0.0,0.0,0.0,0.0,0.0,0.0,0.0,0.0,0.0,0.0,0.0,0.0,0.0,0.0,0.0,0.0,0.0,0.0,0.0,0.0,0.0,0.0,0.0,0.0,0.0,0.0,0.0,0.0,0.0,0.0,0.0,0.0,0.0,0.0,0.0,0.0,0.0,0.0,0.0,0.0,0.0,0.0,0.0,0.0,0.0,0.0,0.0,0.0,0.0,0.0,0.0,0.0,0.0,0.0,0.0,0.0,0.0,0.0,0.0,0.0,0.0,0.0,0.0,0.0,0.0,0.0,0.0,0.0,0.0,0.0,0.0,0.0,0.0,0.0,0.0,0.0,0.0,0.0,0.0,0.0,0.0,0.0,0.0,0.0,0.0,0.0,0.0,0.0,0.0,0.0,0.0,0.0,0.0,0.0,0.0,0.0,0.0,0.0,0.0,0.0,0.0,0.0,0.0,0.0,0.0,0.0,0.0,0.0,0.0,0.0,0.0,0.0,0.0,0.0,0.0,0.0,0.0,0.0,0.0,0.0,0.0,0.0,0.0,0.0,0.0,0.0,0.0,0.0,0.0,0.0,0.0,0.0,0.0,0.0,0.0,0.0,0.0,0.0,0.0,0.0,0.0,0.0,0.0,0.0,0.0,0.0,0.0,0.0,0.0,0.0,0.0,0.0,0.0,0.0,0.0,0.0,0.0,0.0,0.0,0.0,0.0,0.0,0.0,0.0,0.0,0.0,0.0,0.0,0.0,0.0,0.0,0.0,0.0,0.0,0.0,0.0,0.0,0.0,0.0,0.0,0.0,0.0,0.0,0.0,0.0,0.0,0.0,0.0,0.0,0.0,0.0,0.0,0.0,0.0,0.0,0.0,0.0,0.0,0.0,0.0,0.0,0.0,0.0,0.0,0.0,0.0,0.0,0.0,0.0,0.0,0.0,0.0,0.0,0.0,0.0,0.0,0.0,0.0,0.0,0.0,0.0,0.0,0.0,0.0,0.0,0.0,0.0,0.0,0.0,0.0,0.0,0.0,0.0,0.0,0.0,0.0,0.0,0.0,0.0,0.0,0.0,0.0,0.0,0.0,0.0,0.0,0.0,0.0,0.0,0.0,0.0,0.0,0.0,0.0,0.0,0.0,0.0,0.0,0.0,0.0,0.0,0.0,0.0,0.0,0.0,0.0,0.0,0.0,0.0,0.0,0.0,0.0,0.0,0.0,0.0,0.0,0.0,0.0,0.0,0.0,0.0,0.0,0.0,0.0,0.0,0.0,0.0,0.0,0.0,0.0,0.0,0.0,0.0,0.0,0.0,0.0,0.0,0.0,0.0,0.0,0.0,0.0,0.0,0.0,0.0,0.0,0.0,0.0,0.0,0.0,0.0,0.0,0.0,0.0,0.0,0.0,0.0,0.0,0.0,0.0,0.0,0.0,0.0,0.0,0.0,0.0,0.0,0.0,0.0,0.0,0.0,0.0,0.0,0.0,0.0,0.0,0.0,0.0,0.0,0.0,0.0,0.0,0.0,0.0,0.0,0.0,0.0,0.0,0.0,0.0,0.0,0.0,0.0,0.0,0.0,0.0,0.0,0.0,0.0,0.0,0.0,0.0,0.0,0.0,0.0,0.0,0.0,0.0,0.0,0.0,0.0,0.0,0.0,0.0,0.0,0.0,0.0,0.0,0.0,0.0,0.0,0.0,0.0,0.0,0.0,0.0,0.0,0.0,0.0,0.0,0.0,0.0,0.0,0.0,0.0,0.0,0.0,0.0,0.0,0.0,0.0,0.0,0.0,0.0,0.0,0.0,0.0,0.0,0.0,0.0,0.0,0.0,0.0,0.0,0.0,0.0,0.0,0.0,0.0,0.0,0.0,0.0,0.0,0.0,0.0,0.0,0.0,0.0,0.0,0.0,0.0,0.0,0.0,0.0,0.0,0.0,0.0,5.9764,0.0,0.0,0.0,0.0,0.0,0.0,0.0,0.0,0.0,0.0,0.0,0.0,0.0,0.0,0.0,0.0,0.0,0.0,0.0,0.0,0.0,0.0,0.0,0.0,0.0,0.0,0.0,0.0,0.0,0.0,0.0,0.0,0.0,0.0,0.0,0.0,0.0,0.0,0.0,0.0,0.0,0.0,0.0,0.0,0.0,0.0,0.0,0.0,0.0,0.0,0.0,0.0,0.0,0.0,0.0,0.0,0.0,0.0,0.0,0.0,0.0,0.0,0.0,0.0,0.0,0.0,0.0,0.0,0.0,0.0,0.0,0.0,0.0,0.0,0.0,0.0,0.0,0.0,0.0,0.0,0.0,0.0,0.0,0.0,0.0,0.0,0.0,0.0,0.0,0.0,0.0,0.0,0.0,0.0,0.0,0.0,0.0,0.0,0.0,0.0,0.0,0.0,0.0,0.0,0.0,0.0,0.0,0.0,0.0,0.0,0.0,0.0,0.0,0.0,0.0,0.0,6.2353,0.0,0.0,0.0,0.0,0.0,0.0,0.0,0.0,0.0,0.0,0.0,0.0,0.0,0.0,0.0,0.0,0.0,0.0,0.0,0.0,0.0,0.0,0.0,0.0,0.0,0.0,0.0,0.0,0.0,0.0,0.0,0.0,0.0,0.0,0.0,0.0,0.0,0.0,0.0,0.0,0.0,0.0,0.0,0.0,0.0,0.0,0.0,0.0,0.0,0.0,0.0,0.0,0.0,0.0,0.0,0.0,0.0,0.0,0.0,0.0,0.0,0.0,0.0,0.0,0.0,0.0,0.0,0.0,0.0,0.0,0.0,0.0,0.0,0.0,0.0,0.0,0.0,0.0,0.0,0.0,0.0,0.0,0.0,0.0,0.0,0.0,0.0,0.0,0.0,0.0,0.0,0.0,0.0,0.0,0.0,0.0,0.0,0.0,0.0,0.0,0.0,0.0,0.0,0.0,0.0,0.0,0.0,0.0,7.5081,7.6419,7.7682,7.7013,7.679,7.6753,7.3372,6.962,6.5905,0.0,0.0,0.0,0.0,0.0,0.0,0.0,0.0,0.0,0.0,0.0,0.0,0.0,0.0,0.0,0.0,0.0,0.0,0.0,0.0,0.0,0.0,0.0,0.0,0.0,0.0,0.0,0.0,0.0,0.0,0.0,0.0,0.0,0.0,0.0,0.0,0.0,0.0,0.0,0.0,0.0,0.0,0.0,0.0,0.0,0.0,0.0,0.0,0.0,0.0,0.0,0.0,0.0,0.0,0.0,0.0,0.0,0.0,0.0,0.0,0.0,0.0,0.0,0.0,0.0,0.0,0.0,0.0,0.0,0.0,0.0,0.0,0.0,0.0,0.0,0.0,0.0,0.0,0.0,0.0,0.0,0.0,0.0,0.0,0.0,0.0,0.0,5.9134,6.0639,0.0,0.0,0.0,0.0,0.0,0.0,0.0,0.0,0.0,0.0,0.0,0.0,0.0,7.2701,7.4582,7.7719,7.9354,7.9614,8.3292,8.5149,8.5335,8.5223,8.5595,8.6264,8.5743,0.0,7.0029,6.8729,0.0,0.0,0.0,0.0,0.0,0.0,0.0,0.0,0.0,0.0,0.0,0.0,0.0,0.0,0.0,0.0,0.0,0.0,0.0,0.0,0.0,0.0,0.0,0.0,0.0,0.0,0.0,0.0,0.0,0.0,0.0,0.0,0.0,0.0,0.0,0.0,0.0,0.0,0.0,0.0,0.0,0.0,0.0,0.0,0.0,0.0,0.0,0.0,0.0,0.0,0.0,0.0,0.0,0.0,0.0,0.0,0.0,0.0,0.0,0.0,0.0,0.0,0.0,0.0,0.0,0.0,0.0,0.0,0.0,0.0,0.0,0.0,0.0,0.0,0.0,0.0,0.0,0.0,0.0,0.0,0.0,0.0,0.0,0.0,0.0,5.9795,6.2218,6.108,6.3282,6.387,0.0,0.0,0.0,0.0,0.0,0.0,0.0,0.0,0.0,7.7197,7.9068,8.1237,8.3915,8.6796,8.8753,8.9644,9.1465,9.3025,9.4362,9.3434,9.3471,9.4251,9.3805,8.9942,8.3589,7.8276,7.4041,7.0623,0.0,0.0,0.0,0.0,6.57,6.6505,0.0,0.0,0.0,0.0,0.0,0.0,0.0,0.0,0.0,0.0,0.0,0.0,0.0,0.0,0.0,6.7393,0.0,0.0,0.0,0.0,0.0,0.0,0.0,0.0,0.0,0.0,0.0,0.0,0.0,0.0,0.0,0.0,0.0,0.0,0.0,0.0,0.0,0.0,0.0,0.0,0.0,0.0,0.0,0.0,0.0,0.0,0.0,0.0,0.0,0.0,0.0,0.0,0.0,0.0,0.0,0.0,0.0,0.0,0.0,0.0,0.0,0.0,0.0,0.0,0.0,0.0,0.0,0.0,0.0,0.0,0.0,0.0,0.0,0.0,0.0,0.0,0.0,6.3099,6.5007,6.2548,6.6402,6.765,0.0,0.0,0.0,0.0,0.0,0.0,7.492,7.7334,8.0788,8.5519,8.772,9.0304,9.3449,9.5372,9.7074,9.8486,9.8486,9.9563,10.1495,10.0307,10.0084,10.0604,9.9824,9.83,9.5737,8.7304,8.1323,7.7125,7.445,7.2184,7.0475,7.0796,7.1264,7.1954,0.0,0.0,0.0,0.0,0.0,0.0,0.0,0.0,0.0,0.0,0.0,0.0,0.0,0.0,7.077,7.3083,7.2716,7.1858,0.0,0.0,0.0,0.0,0.0,0.0,0.0,0.0,0.0,0.0,0.0,0.0,0.0,0.0,0.0,0.0,0.0,0.0,0.0,0.0,0.0,0.0,0.0,0.0,0.0,0.0,0.0,0.0,0.0,0.0,0.0,0.0,0.0,0.0,0.0,0.0,0.0,0.0,0.0,0.0,0.0,0.0,0.0,0.0,0.0,0.0,0.0,0.0,0.0,0.0,0.0,0.0,0.0,0.0,0.0,0.0,0.0,0.0,0.0,0.0,0.0,6.7357,7.2899,0.0,0.0,0.0,0.0,7.2465,7.5206,7.9167,8.446,8.6656,9.0568,9.6573,9.7681,9.9421,10.2127,10.2201,10.2721,10.3613,10.3613,10.4096,10.4987,10.4913,10.4913,10.4802,10.4022,10.3204,10.1607,9.2616,8.7378,8.4703,8.1471,7.9651,7.8796,7.7942,7.7682,7.7756,0.0,0.0,0.0,0.0,0.0,0.0,0.0,0.0,0.0,0.0,0.0,0.0,0.0,7.334,7.6533,7.8956,7.9837,7.897,7.5787,0.0,0.0,0.0,0.0,0.0,0.0,0.0,0.0,0.0,0.0,0.0,0.0,0.0,0.0,0.0,0.0,0.0,0.0,0.0,0.0,0.0,0.0,0.0,0.0,0.0,0.0,0.0,0.0,0.0,0.0,0.0,0.0,0.0,0.0,0.0,0.0,0.0,0.0,0.0,0.0,0.0,0.0,0.0,0.0,0.0,0.0,0.0,0.0,0.0,0.0,0.0,0.0,0.0,0.0,0.0,0.0,0.0,0.0,0.0,0.0,7.613,8.0571,0.0,0.0,7.7047,7.8419,8.0506,8.4027,8.7955,9.2239,9.5688,9.8833,10.1609,10.3502,10.5395,10.7402,10.7997,10.8703,10.952,10.8925,10.8814,10.9111,10.9111,10.8591,10.7588,10.7811,10.7105,10.5508,10.131,9.6713,9.2114,8.8418,8.6452,8.5526,8.4785,8.422,8.3812,0.0,0.0,0.0,0.0,0.0,0.0,0.0,0.0,0.0,0.0,0.0,6.776,7.3193,7.8112,8.2316,8.5521,8.6,8.4632,8.1214,0.0,0.0,0.0,0.0,0.0,0.0,0.0,0.0,0.0,0.0,0.0,0.0,0.0,0.0,0.0,0.0,0.0,0.0,0.0,0.0,0.0,0.0,0.0,6.8394,0.0,0.0,0.0,0.0,0.0,0.0,0.0,0.0,0.0,0.0,0.0,0.0,0.0,0.0,0.0,0.0,0.0,0.0,0.0,0.0,0.0,0.0,0.0,0.0,0.0,0.0,0.0,0.0,0.0,0.0,0.0,0.0,0.0,0.0,0.0,8.1232,8.2847,8.7545,8.9087,8.5184,8.6029,8.7568,8.9424,9.3078,9.6544,9.9644,10.2797,10.532,10.6808,10.8405,10.9929,11.1303,11.212,11.2715,11.2901,11.2715,11.2529,11.2529,11.2529,11.2009,11.1006,11.1229,11.0597,10.9111,10.7514,10.4269,10.0031,9.5586,9.2902,9.1515,9.1136,9.0276,8.9347,0.0,0.0,0.0,0.0,0.0,0.0,0.0,0.0,0.0,0.0,6.4604,6.9779,7.7855,8.3104,8.7925,9.2579,9.0685,8.8442,8.6626,7.8387,0.0,0.0,0.0,0.0,0.0,0.0,0.0,0.0,0.0,0.0,0.0,0.0,0.0,0.0,0.0,0.0,0.0,0.0,0.0,0.0,0.0,0.0,7.4153,0.0,0.0,0.0,0.0,0.0,0.0,0.0,0.0,0.0,0.0,0.0,0.0,0.0,0.0,0.0,0.0,0.0,0.0,0.0,0.0,0.0,0.0,0.0,0.0,0.0,0.0,0.0,0.0,0.0,0.0,0.0,0.0,0.0,7.3817,8.0277,8.5527,8.7288,9.3786,9.6652,9.2938,9.6142,9.8577,9.8981,10.1795,10.4387,10.6511,10.8028,10.992,11.2529,11.2603,11.3012,11.3904,11.4721,11.4721,11.4015,11.4721,11.5092,11.5018,11.5092,11.5018,11.5018,11.4201,11.3421,11.2492,11.0894,10.9641,10.8118,10.2599,9.8969,9.6777,9.6777,9.5737,9.4251,0.0,0.0,0.0,0.0,0.0,0.0,0.0,0.0,0.0,0.0,6.7357,7.3707,8.1269,8.7472,9.2789,9.6889,9.4437,9.1646,8.9217,0.0,0.0,0.0,0.0,0.0,0.0,0.0,0.0,0.0,0.0,0.0,0.0,0.0,0.0,0.0,0.0,0.0,0.0,0.0,0.0,0.0,0.0,0.0,7.8462,0.0,0.0,0.0,0.0,0.0,0.0,0.0,0.0,0.0,0.0,0.0,0.0,0.0,0.0,0.0,0.0,0.0,0.0,0.0,0.0,0.0,0.0,0.0,0.0,0.0,0.0,0.0,0.0,0.0,0.0,0.0,0.0,8.0424,8.1452,8.6885,9.2758,9.8017,10.1476,10.3064,10.2083,10.2489,10.3198,10.3982,10.6019,10.821,11.0709,11.1781,11.3191,11.513,11.5204,11.591,11.7321,11.6913,11.6913,11.7321,11.6913,11.643,11.591,11.6504,11.6095,11.5018,11.5427,11.5092,11.4201,11.3198,11.1943,11.0124,10.5582,10.3005,10.1621,10.0518,9.9118,9.7632,0.0,0.0,0.0,0.0,0.0,0.0,0.0,0.0,0.0,0.0,6.8972,7.5799,8.3104,9.0005,9.5368,9.8494,9.6061,9.2802,8.9182,0.0,0.0,0.0,0.0,0.0,0.0,0.0,0.0,0.0,0.0,0.0,0.0,0.0,0.0,0.0,0.0,0.0,0.0,0.0,0.0,0.0,0.0,0.0,8.6635,8.0022,7.731,7.6493,7.2221,7.0958,7.066,6.6664,0.0,0.0,0.0,0.0,0.0,0.0,0.0,0.0,0.0,0.0,0.0,0.0,0.0,0.0,0.0,0.0,0.0,0.0,0.0,0.0,0.0,0.0,0.0,0.0,8.2333,8.7766,9.1657,9.5327,9.9591,10.4853,10.763,10.9077,10.9325,10.9259,10.9569,11.0328,11.1218,11.2665,11.4907,11.5501,11.6616,11.8213,11.8287,11.851,11.9105,11.8993,11.8807,11.8622,11.851,11.8213,11.7804,11.7916,11.7433,0.0,11.6616,11.6207,11.5501,11.5018,11.3606,0.0,0.0,0.0,0.0,0.0,10.0715,9.9526,0.0,0.0,0.0,0.0,0.0,0.0,0.0,0.0,0.0,0.0,0.0,7.6631,8.3566,9.0919,9.6246,9.8529,9.6291,9.2636,0.0,0.0,0.0,0.0,0.0,0.0,0.0,0.0,0.0,0.0,0.0,0.0,0.0,0.0,0.0,0.0,0.0,0.0,0.0,0.0,0.0,0.0,0.0,0.0,9.6207,8.7812,8.5223,8.5409,7.9799,7.653,7.445,7.1626,0.0,0.0,0.0,0.0,0.0,0.0,0.0,0.0,0.0,0.0,0.0,0.0,0.0,0.0,0.0,0.0,0.0,0.0,0.0,0.0,0.0,0.0,0.0,0.0,8.8573,9.4593,10.2522,10.4577,10.6423,10.9215,11.2256,11.4397,11.4915,11.5677,11.6338,11.6616,11.6616,11.7321,11.8919,0.0,0.0,0.0,0.0,12.1074,12.0479,12.1074,12.0591,11.9216,11.9773,11.9996,11.9996,11.9105,11.8733,11.8622,11.7804,11.7099,11.6318,11.6318,11.4907,11.2603,11.0709,10.8108,10.521,10.2907,10.1495,10.0789,0.0,0.0,0.0,0.0,0.0,0.0,0.0,0.0,0.0,6.2695,7.0403,7.7363,8.183,8.9424,9.5656,9.9242,9.6459,9.2465,0.0,0.0,0.0,0.0,0.0,0.0,0.0,0.0,0.0,0.0,0.0,0.0,0.0,0.0,0.0,0.0,0.0,0.0,0.0,0.0,0.0,0.0,0.0,0.0,9.9867,9.4924,9.1576,8.8901,8.3812,8.2957,8.344,7.8351,7.7162,7.705,7.2377,0.0,0.0,0.0,0.0,0.0,0.0,0.0,0.0,0.0,0.0,0.0,0.0,0.0,0.0,0.0,0.0,0.0,0.0,0.0,0.0,8.8977,9.5364,10.1788,10.8615,11.2095,11.4,11.4175,11.4988,11.6429,11.8564,11.8389,11.8352,11.9105,11.9179,11.9885,12.1482,12.0999,0.0,12.3971,12.3377,12.3303,12.3786,12.3303,12.2894,12.2485,0.0,0.0,12.0776,11.9996,11.929,11.8622,11.8436,11.7916,11.721,11.721,11.6133,11.4201,11.0523,10.8294,10.6994,10.5916,10.4913,10.4207,0.0,0.0,0.0,0.0,0.0,0.0,0.0,0.0,0.0,0.0,6.8458,7.397,7.7931,8.4136,8.8757,9.0699,8.9748,0.0,0.0,8.9432,9.2782,0.0,0.0,0.0,0.0,0.0,0.0,0.0,0.0,0.0,0.0,0.0,0.0,0.0,0.0,0.0,0.0,0.0,0.0,0.0,0.0,0.0,10.7541,10.2264,9.8746,9.6071,9.2022,9.0276,8.9273,8.5186,8.3514,8.2511,7.8777,7.5605,7.2458,0.0,0.0,0.0,0.0,0.0,0.0,0.0,0.0,0.0,0.0,0.0,0.0,0.0,0.0,7.6276,0.0,0.0,8.9307,9.6135,10.2008,10.7587,11.291,11.6725,11.849,11.7273,11.8218,11.9516,12.079,12.1396,12.1891,12.23,12.2374,12.3191,12.5197,12.4194,12.4492,12.6498,12.5792,12.5383,12.5383,12.4974,12.4492,12.4083,12.3303,12.2671,12.23,12.1482,12.0591,11.9811,11.8993,11.8399,11.7916,11.7136,11.6318,11.5352,11.2811,11.061,10.8665,10.7775,10.6986,10.6056,0.0,0.0,0.0,0.0,0.0,0.0,0.0,0.0,0.0,0.0,0.0,7.0239,7.3734,7.848,8.1427,0.0,0.0,0.0,0.0,9.3708,9.9396,10.3933,10.8299,11.1804,11.418,11.5323,11.7712,0.0,0.0,0.0,0.0,0.0,0.0,0.0,0.0,0.0,0.0,0.0,0.0,0.0,0.0,0.0,11.5194,10.9825,10.6177,10.3427,9.9712,9.6369,9.3359,9.1019,8.8827,8.6672,8.4495,8.2505,7.9887,7.4146,7.1709,0.0,0.0,0.0,0.0,0.0,0.0,0.0,0.0,0.0,7.3046,7.5909,7.9507,8.3324,8.7178,9.1913,9.7199,10.3403,10.8211,11.2579,11.6709,11.9984,12.1735,12.0703,12.188,12.2927,12.3223,12.4626,12.5569,12.568,12.5792,12.6572,12.8504,12.7389,12.7204,12.8392,12.7909,12.7204,12.62,12.6386,12.6089,12.5272,12.5086,12.4677,12.3971,12.2968,12.2077,12.1185,11.9402,11.851,11.8325,11.7024,11.6401,11.6308,11.5729,11.3818,11.132,10.9982,10.8877,10.7811,0.0,0.0,0.0,0.0,0.0,0.0,0.0,0.0,0.0,0.0,0.0,0.0,0.0,0.0,0.0,0.0,0.0,0.0,9.2035,9.6681,10.2777,11.0662,11.3107,11.6185,12.0185,11.9824,12.1178,12.4723,12.4014,12.4591,12.6272,12.6195,12.6195,12.6107,12.5503,12.5081,12.4965,12.4284,12.3784,12.3494,12.2818,12.1187,11.892,11.7484,11.33,10.7514,10.2015,9.8375,9.596,9.4214,9.2988,9.1985,9.0749,8.8886,8.6091,8.0688,0.0,7.2096,6.9151,6.8051,6.8531,7.2018,7.1835,7.2863,0.0,0.0,8.1085,8.5637,8.8647,9.1473,9.485,9.9438,10.4394,10.9423,11.3093,11.682,12.1254,12.2879,12.4599,12.6782,12.6206,12.6126,12.7538,12.7909,12.8281,12.9098,12.9172,12.9284,12.9507,12.9395,12.8987,12.8392,12.9098,12.869,12.7092,12.7798,12.7686,12.6906,12.62,12.5792,12.568,12.4083,12.2894,12.2002,11.9625,11.8213,11.7507,11.7321,11.7171,11.708,11.7632,11.7216,11.5978,11.3695,11.1874,11.0507,0.0,0.0,0.0,0.0,0.0,0.0,0.0,0.0,0.0,0.0,0.0,0.0,0.0,0.0,0.0,0.0,0.0,0.0,9.0949,9.9236,10.7618,11.5696,11.8201,12.0783,12.3609,12.3312,12.4389,12.6772,12.6975,12.7409,12.8179,12.8679,12.8409,12.7409,12.7486,12.7294,12.6909,12.6986,12.6016,12.4329,12.4522,12.2585,11.9468,11.8276,11.4784,10.9982,10.4387,9.9935,0.0,0.0,9.3293,9.2336,9.3239,9.1239,8.7878,8.4589,8.021,0.0,7.3162,7.2553,0.0,0.0,7.7818,8.0645,8.6701,8.8059,8.9271,9.3639,9.6832,9.9695,10.2485,10.6596,11.0707,0.0,11.7554,12.0719,12.35,12.5318,12.6523,12.6616,12.7059,12.7872,12.8987,12.9581,12.999,13.0398,13.0807,13.129,13.1773,13.1402,13.0881,13.0584,13.0473,12.9804,12.869,12.8504,12.8207,12.7909,12.7092,12.6498,12.5978,12.4789,12.3005,12.0776,11.9811,11.8622,11.7433,11.7433,11.7587,11.8016,11.8077,11.8317,11.8108,11.5631,11.4202,11.3313,0.0,0.0,0.0,0.0,0.0,0.0,0.0,0.0,0.0,0.0,0.0,0.0,0.0,0.0,0.0,0.0,0.0,0.0,0.0,9.9969,11.0011,11.849,12.1995,12.4811,12.7101,12.7101,12.7986,12.9717,13.0102,13.041,13.0602,13.1295,13.091,12.9717,13.0102,12.991,12.9294,12.9717,12.8285,12.5804,12.6396,12.4203,12.0395,11.7979,11.4308,10.9711,10.4824,9.9778,0.0,0.0,9.1445,9.0535,9.2653,9.1253,8.8421,8.6274,8.2049,7.7647,7.5983,0.0,0.0,8.0828,8.4462,8.839,9.2648,9.4887,9.7163,10.1017,10.399,10.6706,10.9092,11.2873,11.625,11.8289,12.1602,12.4406,12.5866,12.7132,12.7357,12.6485,12.6816,12.7501,12.8578,12.9804,13.077,13.1179,13.1996,13.2702,13.3296,13.2999,13.2702,13.2405,13.1884,13.1104,12.999,12.9172,12.8578,12.8392,12.7575,12.6906,12.6275,12.5272,12.3191,12.0479,12.0071,11.9105,11.773,11.7507,11.7894,11.8794,11.8627,11.9094,11.9658,11.7413,11.6314,11.538,0.0,0.0,0.0,0.0,0.0,0.0,0.0,0.0,0.0,0.0,0.0,0.0,0.0,0.0,0.0,0.0,0.0,0.0,0.0,9.7971,10.83,11.849,12.3822,12.8102,13.141,13.1487,13.241,13.4103,13.3295,13.3295,13.4103,13.4218,13.4218,13.4103,13.318,13.2872,13.2795,13.1987,13.0602,12.909,12.909,12.6591,12.2479,11.8392,11.2485,10.5917,10.1779,0.0,0.0,0.0,8.7587,8.7016,8.845,8.8827,0.0,8.5478,8.0608,0.0,0.0,0.0,8.1195,8.7509,9.1546,9.5254,10.0099,10.2412,10.4504,10.7807,10.9826,11.1698,11.4121,11.7902,12.1007,12.2212,12.4973,12.7599,12.8966,12.7801,12.719,12.8244,12.5606,12.4306,0.0,12.8281,13.0398,13.1884,13.2813,13.3296,13.3296,13.4002,13.4114,13.3296,13.3185,13.2479,13.0881,13.0101,12.921,12.8392,12.7575,12.7204,12.7092,12.5495,12.3897,12.2077,12.0591,11.9402,11.851,11.773,11.8167,11.9543,11.9505,12.0302,12.1331,11.9638,11.7998,11.6466,0.0,0.0,0.0,0.0,0.0,0.0,0.0,0.0,0.0,0.0,0.0,0.0,0.0,0.0,0.0,0.0,0.0,0.0,0.0,9.4405,10.4927,11.3504,12.2092,12.7678,12.9987,13.1679,13.3103,13.4295,13.3987,13.3987,13.4295,13.4295,13.3987,13.341,13.368,13.3487,13.2987,13.2679,13.1971,13.0797,12.9104,12.6605,12.3281,11.8201,11.0474,10.181,0.0,0.0,0.0,0.0,0.0,0.0,8.4717,0.0,8.2434,7.9753,7.9507,8.0424,0.0,0.0,9.0003,9.5515,9.971,10.3617,10.7455,10.9471,11.1116,11.2735,11.3293,11.3827,11.4708,11.7204,11.9664,12.1191,12.4922,12.8065,12.9588,13.0061,12.9006,12.5606,12.5197,0.0,0.0,0.0,0.0,13.0287,13.1699,13.2999,13.4002,13.4894,13.5191,13.5005,13.5005,13.4188,13.2479,13.1699,13.0881,12.999,12.869,12.7389,12.6386,12.5272,12.3897,12.2188,12.0591,11.9402,11.851,11.773,11.7969,11.8902,11.927,12.0105,12.0797,12.0074,11.9199,11.7987,0.0,0.0,0.0,0.0,0.0,0.0,0.0,0.0,0.0,0.0,0.0,0.0,0.0,0.0,0.0,0.0,0.0,0.0,0.0,0.0,9.7557,10.5592,11.3978,11.96,12.1908,12.3601,12.5409,12.7486,12.8409,12.9602,13.1102,13.2086,13.234,13.1671,13.231,13.2386,13.2093,13.162,12.9993,12.7696,12.511,12.1386,11.6736,11.0969,10.3421,0.0,0.0,0.0,0.0,0.0,0.0,0.0,0.0,8.0308,7.9449,7.8357,8.0908,8.4772,8.7794,9.2646,9.813,10.3623,10.7722,11.1125,11.4201,11.5591,11.6314,11.6241,11.5289,11.4375,11.366,11.4689,11.6433,11.9026,12.2399,12.6003,12.9855,12.9916,12.8578,12.5978,12.5086,12.3971,0.0,0.0,0.0,12.947,13.1179,13.2776,13.4411,13.5302,13.5897,13.6194,13.5897,13.5302,13.4188,13.2776,13.1402,12.999,12.8578,12.7389,12.6386,12.5272,12.4194,12.308,12.1185,11.9811,11.8993,11.8213,11.8156,11.8865,11.927,12.0105,12.0811,12.0382,11.9814,11.8792,0.0,0.0,0.0,0.0,0.0,0.0,0.0,0.0,0.0,0.0,0.0,0.0,0.0,0.0,0.0,0.0,0.0,0.0,0.0,0.0,0.0,9.5365,10.0789,10.5213,10.8482,10.8713,11.0906,11.4984,11.7407,12.06,12.4707,12.7216,12.8382,12.8475,12.8706,12.9114,12.9582,12.8098,12.4574,12.0009,11.7495,11.1805,10.403,9.8124,0.0,0.0,0.0,0.0,0.0,0.0,0.0,0.0,0.0,7.7456,7.9667,8.1501,8.4901,8.9307,9.4926,10.0201,10.5558,11.1815,11.5332,11.7835,12.0126,12.0644,11.9962,11.819,11.5789,11.3413,0.0,0.0,11.173,11.601,11.8263,12.225,12.9972,12.7798,12.6498,0.0,0.0,0.0,0.0,0.0,0.0,12.9507,0.0,13.2776,13.4411,13.5377,13.6194,13.6974,13.6305,13.5785,13.5785,13.3408,13.0993,12.8578,12.7686,12.7278,12.7092,12.5569,12.4789,12.4603,12.2188,12.0665,11.9773,11.8993,11.8991,11.9478,11.9505,12.0417,12.1399,12.0716,11.9928,11.9075,0.0,0.0,0.0,0.0,0.0,0.0,0.0,0.0,0.0,0.0,0.0,0.0,0.0,0.0,0.0,0.0,0.0,0.0,0.0,0.0,0.0,0.0,0.0,0.0,0.0,0.0,0.0,11.0483,11.0598,11.1928,11.4361,11.4477,11.5299,11.6716,11.6805,11.7185,11.7821,11.6197,11.4506,11.2524,0.0,10.5293,10.1092,0.0,0.0,0.0,0.0,0.0,0.0,0.0,0.0,0.0,0.0,8.177,8.431,8.7748,9.1665,9.636,10.3194,10.9178,11.4508,11.9291,12.2007,12.343,12.3609,12.263,12.0474,11.6947,11.3203,10.9501,0.0,0.0,0.0,11.5235,12.0775,0.0,13.3344,13.4018,0.0,0.0,0.0,12.9581,12.7389,12.7204,0.0,0.0,13.129,13.2182,13.4411,13.5897,13.6788,13.7011,13.6788,13.638,13.5785,13.3891,13.2405,13.1104,12.9693,12.8392,12.7204,12.62,12.4974,12.3786,12.2485,12.1185,11.9885,11.9699,11.9202,11.8907,12.0027,12.0578,12.0783,12.1112,12.0698,11.99,0.0,0.0,0.0,0.0,0.0,0.0,0.0,0.0,0.0,0.0,0.0,0.0,0.0,0.0,0.0,0.0,0.0,0.0,0.0,0.0,0.0,0.0,0.0,0.0,0.0,0.0,0.0,0.0,0.0,0.0,10.3496,10.3525,10.3878,10.4931,10.4879,10.5393,10.603,10.4388,0.0,0.0,0.0,0.0,0.0,0.0,0.0,0.0,0.0,0.0,0.0,0.0,0.0,8.2208,8.5176,8.7969,9.1054,9.5536,0.0,10.4315,11.0532,11.6158,12.1073,12.453,12.6255,12.6726,12.4273,12.225,11.914,11.2399,10.7861,0.0,0.0,0.0,0.0,0.0,0.0,0.0,13.4382,13.6097,13.6194,0.0,13.5079,0.0,13.129,13.1104,13.181,0.0,13.2293,13.2479,13.4894,13.6008,13.6603,13.7011,13.7011,13.638,13.5191,13.3891,13.2702,13.1587,12.9878,12.8849,12.8193,12.6625,12.5644,12.4994,0.0,12.2071,12.0914,12.0575,11.9991,11.9463,12.0367,12.0791,12.1016,12.139,12.1293,12.0698,0.0,0.0,0.0,0.0,0.0,0.0,0.0,0.0,0.0,0.0,0.0,0.0,0.0,0.0,0.0,0.0,0.0,0.0,0.0,0.0,0.0,0.0,0.0,0.0,0.0,0.0,0.0,0.0,0.0,0.0,0.0,0.0,0.0,0.0,0.0,0.0,0.0,0.0,0.0,0.0,0.0,0.0,0.0,0.0,0.0,0.0,0.0,0.0,0.0,0.0,8.4109,8.5669,9.1613,9.5811,9.9563,10.4616,10.8814,11.2672,11.7292,12.2051,12.6267,12.8458,12.9501,12.8649,12.3651,12.072,11.6142,10.6363,0.0,9.7573,9.3943,9.5844,10.0422,10.7872,0.0,12.3414,13.4634,13.6305,13.7308,13.95,13.8497,13.7011,13.5488,13.5117,13.5302,13.6083,13.4114,13.3816,13.6008,13.6194,13.6491,13.7086,13.6974,13.6083,13.4708,13.3779,13.259,13.1179,12.9507,12.9039,12.9507,12.7217,12.6364,12.6865,12.4668,0.0,12.2258,12.169,12.1091,12.0624,12.0804,12.1083,12.1506,12.16,12.16,12.1381,0.0,0.0,0.0,0.0,0.0,0.0,0.0,0.0,0.0,0.0,5.9206,5.8097,0.0,0.0,0.0,0.0,0.0,0.0,0.0,0.0,0.0,0.0,0.0,0.0,0.0,0.0,0.0,0.0,0.0,0.0,0.0,0.0,0.0,0.0,0.0,0.0,0.0,0.0,0.0,0.0,0.0,0.0,0.0,0.0,0.0,0.0,0.0,0.0,0.0,0.0,8.8901,9.3545,10.0604,10.5619,10.9891,11.5501,11.8585,12.1111,12.5346,12.8615,13.1418,13.3759,13.3037,13.0333,12.5532,11.8803,0.0,0.0,0.0,9.1697,9.0128,9.3578,0.0,11.0222,0.0,0.0,0.0,0.0,14.0281,0.0,0.0,0.0,0.0,0.0,0.0,0.0,0.0,13.7308,13.7791,13.8386,13.8497,13.8014,13.6677,13.5897,13.56,13.4076,13.3185,13.2888,13.1179,13.0233,12.962,12.8456,12.7533,12.6896,12.581,0.0,12.3161,12.3081,12.1771,11.9967,12.1283,12.1278,12.0806,12.1419,12.16,12.1467,0.0,0.0,0.0,0.0,0.0,0.0,0.0,0.0,6.1494,6.3106,6.3322,6.2496,6.0527,5.8077,0.0,0.0,0.0,0.0,0.0,0.0,0.0,0.0,0.0,0.0,0.0,0.0,7.3176,7.2783,0.0,0.0,0.0,7.0824,7.0442,7.0735,0.0,0.0,0.0,0.0,0.0,0.0,0.0,0.0,0.0,0.0,0.0,0.0,0.0,0.0,0.0,0.0,9.1148,9.988,10.733,11.3086,11.7804,12.1891,12.4169,12.6224,12.9429,13.1769,13.3723,13.5317,13.3553,12.9191,12.1396,0.0,0.0,0.0,8.9665,8.6808,8.5584,0.0,0.0,0.0,0.0,0.0,0.0,0.0,0.0,0.0,0.0,0.0,0.0,0.0,0.0,0.0,0.0,13.9389,13.768,13.7903,13.82,13.82,13.7011,13.6194,13.5785,13.4596,13.3705,13.3296,13.1699,13.0857,13.0815,12.9532,12.8899,12.8708,12.7009,0.0,12.5107,12.4314,12.3023,12.1504,12.2204,12.1906,12.1105,12.1006,12.1177,12.1438,0.0,0.0,0.0,0.0,0.0,0.0,0.0,6.2309,6.3659,6.6087,6.758,6.7087,6.36,5.9814,5.7747,0.0,0.0,0.0,0.0,0.0,0.0,0.0,0.0,0.0,0.0,0.0,0.0,6.9709,6.9551,0.0,0.0,0.0,0.0,0.0,6.5571,6.5617,6.5672,0.0,0.0,0.0,0.0,0.0,0.0,0.0,0.0,0.0,0.0,0.0,0.0,0.0,9.1414,10.1769,10.9566,11.7134,12.3481,12.5585,12.8017,13.0458,13.305,13.4658,13.6,13.6745,13.3685,12.7708,11.7513,10.9699,0.0,0.0,8.4434,8.2668,8.214,0.0,0.0,0.0,0.0,0.0,0.0,0.0,0.0,0.0,0.0,0.0,0.0,0.0,0.0,0.0,0.0,0.0,13.82,13.768,13.7791,13.8386,13.7308,13.638,13.5785,13.4782,13.3891,13.3296,13.181,13.1404,13.191,13.0278,12.9995,13.0396,12.8076,0.0,0.0,12.531,12.3979,12.282,12.2899,12.2315,12.1304,12.0592,12.0716,12.1092,0.0,0.0,0.0,0.0,0.0,0.0,0.0,6.3215,6.5454,6.9529,6.9614,6.8855,6.7744,6.3921,6.0254,0.0,0.0,0.0,0.0,0.0,0.0,0.0,0.0,0.0,0.0,0.0,0.0,6.7464,6.678,0.0,0.0,0.0,0.0,0.0,0.0,6.401,6.4394,6.4394,0.0,0.0,0.0,0.0,0.0,0.0,0.0,0.0,0.0,0.0,0.0,0.0,0.0,9.4796,10.3822,11.5297,12.5636,12.6773,0.0,0.0,13.8115,13.9478,14.0313,14.1184,13.55,12.7173,11.8224,0.0,0.0,8.6728,8.1545,7.9502,8.1583,0.0,0.0,0.0,0.0,11.1526,0.0,0.0,0.0,0.0,0.0,0.0,0.0,0.0,0.0,0.0,0.0,0.0,14.1395,13.9983,13.9203,13.9315,13.7086,13.5897,13.5785,13.4188,13.3408,13.3296,13.2405,13.1986,13.1955,13.0928,13.0531,13.0526,12.8563,0.0,0.0,12.5916,12.418,12.2241,12.2799,12.1962,12.0599,12.0372,12.0408,12.0292,0.0,0.0,0.0,0.0,0.0,0.0,0.0,6.2953,6.5116,6.9821,7.1595,7.1911,7.0563,6.8105,6.4031,0.0,0.0,0.0,0.0,0.0,0.0,0.0,0.0,0.0,0.0,0.0,0.0,0.0,0.0,0.0,0.0,0.0,0.0,0.0,0.0,6.3691,6.3873,0.0,0.0,0.0,0.0,0.0,0.0,0.0,0.0,0.0,0.0,0.0,0.0,0.0,0.0,0.0,9.1978,10.1805,0.0,0.0,12.7519,13.2225,13.7316,14.0801,14.2768,14.2172,13.5725,12.7016,11.7696,0.0,9.4774,8.5552,8.0802,7.8722,8.0208,8.1583,8.4926,0.0,0.0,0.0,11.3123,0.0,0.0,0.0,0.0,0.0,0.0,0.0,0.0,0.0,0.0,0.0,14.1878,14.0318,13.9389,13.9389,13.8014,13.7011,13.6491,13.4894,13.4002,13.4002,13.2702,13.2046,13.2023,13.0617,13.0198,13.0521,12.8194,0.0,0.0,12.6605,12.5372,12.4021,12.3815,12.3036,12.1808,12.0698,12.06,12.0985,0.0,0.0,0.0,0.0,0.0,5.7941,6.1633,6.3065,6.5382,6.9943,7.2016,7.286,7.2301,6.9702,6.5695,5.9824,0.0,0.0,0.0,0.0,0.0,0.0,0.0,0.0,0.0,0.0,0.0,0.0,0.0,0.0,0.0,0.0,6.3825,6.3602,0.0,0.0,0.0,0.0,0.0,0.0,0.0,0.0,0.0,0.0,0.0,0.0,0.0,0.0,0.0,0.0,0.0,0.0,0.0,0.0,0.0,0.0,12.2419,12.8519,13.5509,14.0619,14.3567,14.2006,13.5263,12.66,11.649,10.4828,9.3649,8.4971,8.058,7.8462,7.9019,8.0505,8.3143,8.7787,8.957,9.4511,10.6325,11.1006,11.7396,0.0,0.0,0.0,0.0,0.0,0.0,0.0,0.0,0.0,14.1915,14.0578,13.9798,13.9798,13.8794,13.7903,13.7383,13.5488,13.4485,13.4485,13.2888,13.2104,13.2014,13.0281,12.9721,12.9771,12.7704,0.0,0.0,12.6822,12.6178,12.5293,12.4716,12.3793,12.2716,12.1216,12.0908,12.11,0.0,0.0,0.0,0.0,0.0,0.0,0.0,6.4037,6.6741,7.0496,7.0384,7.0718,7.2754,6.7956,6.4287,6.3682,0.0,0.0,0.0,0.0,0.0,0.0,0.0,0.0,0.0,0.0,0.0,0.0,0.0,0.0,0.0,0.0,0.0,6.3602,0.0,0.0,0.0,0.0,0.0,0.0,0.0,0.0,6.9164,0.0,0.0,0.0,0.0,0.0,0.0,0.0,0.0,0.0,0.0,0.0,0.0,0.0,11.6415,12.5832,13.3526,13.9219,14.2667,14.0967,13.4528,12.5713,11.502,10.3612,9.3062,8.4889,8.058,7.8276,7.8313,7.9614,8.2066,8.6152,9.0276,9.6703,10.7402,11.2418,0.0,0.0,0.0,0.0,0.0,0.0,0.0,0.0,0.0,0.0,14.1915,14.1098,14.0689,14.0689,13.9092,13.82,13.82,13.5711,13.4485,13.4485,13.2888,13.207,13.2052,13.0404,12.9132,12.831,0.0,0.0,0.0,12.6402,12.6178,12.5409,12.5409,12.4409,12.2793,12.1908,12.0985,12.0216,0.0,0.0,0.0,0.0,0.0,0.0,0.0,5.985,6.2173,6.5877,6.6482,6.7554,7.0178,6.7063,6.4527,6.3962,0.0,0.0,0.0,0.0,0.0,0.0,0.0,0.0,0.0,0.0,0.0,0.0,0.0,0.0,0.0,0.0,0.0,0.0,6.3862,0.0,0.0,0.0,0.0,0.0,0.0,6.7804,6.8747,0.0,0.0,0.0,0.0,0.0,0.0,0.0,0.0,0.0,0.0,0.0,0.0,9.1548,10.2772,11.4077,12.1027,12.7104,13.098,12.8992,12.428,11.7858,10.9303,10.0294,9.1576,8.3923,8.0171,7.8276,7.8276,7.8722,8.1285,8.8195,9.0424,9.4214,0.0,0.0,0.0,0.0,0.0,0.0,0.0,0.0,0.0,0.0,0.0,0.0,14.1915,14.1692,14.0986,13.9798,13.8794,13.768,13.6603,13.5191,13.4188,13.3705,13.259,13.2107,13.1996,12.9236,12.8103,0.0,0.0,12.616,12.6491,12.79,12.7909,12.7101,12.6486,12.5601,12.4409,12.2985,12.2293,12.1985,0.0,0.0,0.0,0.0,0.0,0.0,0.0,5.8148,5.9889,6.2523,6.27,6.4025,6.7757,6.4775,6.3036,6.4305,0.0,0.0,0.0,0.0,0.0,0.0,0.0,0.0,0.0,0.0,0.0,0.0,0.0,0.0,0.0,0.0,0.0,0.0,0.0,0.0,0.0,0.0,0.0,0.0,6.7541,6.7912,6.8335,0.0,0.0,0.0,0.0,0.0,0.0,0.0,0.0,0.0,0.0,0.0,0.0,0.0,9.0726,10.0823,0.0,11.8376,12.3316,12.1975,11.8204,11.2812,10.5196,9.732,8.9681,8.2883,7.9799,7.8276,7.8276,7.8796,8.1063,8.6821,8.879,9.2393,0.0,0.0,0.0,0.0,0.0,0.0,0.0,0.0,0.0,0.0,0.0,0.0,14.1915,14.1284,14.0503,13.9389,13.8609,13.7606,13.6305,13.4782,13.3816,13.3296,13.2479,13.1773,13.1104,12.8392,12.715,0.0,12.5799,12.5621,0.0,12.8002,12.8294,12.7488,12.7195,12.6409,12.5216,12.3909,12.3216,12.2793,0.0,0.0,0.0,0.0,0.0,0.0,0.0,0.0,5.9365,6.0301,5.9299,6.0323,6.5204,6.1451,6.0235,6.4253,0.0,0.0,0.0,0.0,0.0,0.0,0.0,0.0,0.0,0.0,0.0,0.0,6.9694,7.092,7.1143,0.0,0.0,0.0,0.0,0.0,0.0,0.0,0.0,0.0,6.7726,6.8157,0.0,0.0,0.0,0.0,0.0,0.0,0.0,0.0,0.0,0.0,0.0,0.0,0.0,0.0,0.0,0.0,0.0,11.1364,11.747,11.737,11.4011,10.8802,10.1734,9.4348,0.0,0.0,0.0,7.8351,7.8499,7.9614,8.1211,8.3366,8.6338,9.1428,0.0,0.0,0.0,0.0,0.0,0.0,0.0,0.0,0.0,0.0,0.0,0.0,14.1915,14.0392,13.95,13.9389,13.8497,13.7606,13.6788,13.4485,13.3296,13.3185,13.2479,13.129,12.9693,12.7984,12.6386,0.0,12.479,12.4701,12.5044,12.7288,12.7732,12.7026,12.7708,12.6986,12.5409,12.4409,12.3601,12.2908,0.0,0.0,0.0,0.0,0.0,0.0,0.0,0.0,0.0,0.0,5.7578,5.8066,5.9769,5.9079,5.8868,0.0,0.0,0.0,0.0,0.0,0.0,0.0,0.0,0.0,0.0,0.0,0.0,6.8246,6.9397,7.0958,7.2815,7.341,0.0,0.0,0.0,0.0,0.0,0.0,0.0,0.0,6.6619,6.6955,0.0,0.0,0.0,0.0,6.81,6.8625,0.0,0.0,0.0,0.0,0.0,0.0,0.0,0.0,7.864,8.2516,8.6797,0.0,9.7722,9.7417,9.6523,9.4817,0.0,0.0,0.0,0.0,0.0,0.0,0.0,7.9874,8.1025,8.7712,8.9942,9.3359,10.0492,0.0,0.0,0.0,0.0,0.0,0.0,0.0,0.0,0.0,0.0,0.0,14.1915,14.0912,14.0095,13.9389,13.7383,13.6008,13.5079,13.3891,13.2999,13.2405,13.2182,13.1587,13.051,12.8207,12.6981,0.0,12.5875,12.5902,12.6736,12.9,12.9108,12.7906,12.8629,12.7909,12.6178,12.4716,12.3985,12.3601,0.0,0.0,0.0,0.0,0.0,0.0,0.0,0.0,0.0,0.0,0.0,0.0,0.0,0.0,0.0,0.0,0.0,0.0,0.0,0.0,0.0,0.0,0.0,0.0,0.0,0.0,0.0,0.0,0.0,7.2852,0.0,0.0,0.0,0.0,0.0,0.0,0.0,0.0,0.0,6.5298,6.6258,0.0,0.0,0.0,0.0,0.0,6.7996,6.8532,0.0,7.1819,7.3418,7.429,0.0,0.0,0.0,0.0,7.6089,7.7979,7.8462,8.4721,9.1114,9.1263,9.1499,9.0988,0.0,0.0,0.0,0.0,0.0,0.0,0.0,0.0,0.0,8.6784,8.9942,9.544,0.0,0.0,0.0,0.0,0.0,0.0,0.0,0.0,0.0,0.0,0.0,14.2695,14.1915,14.0801,13.9909,13.9389,13.6677,13.5005,13.4485,13.3296,13.2479,13.2107,13.2107,13.129,12.9693,12.7984,12.6795,0.0,12.516,12.5523,12.6653,12.8715,12.875,12.7709,12.8793,12.8217,12.6486,12.5216,12.4409,12.3909,0.0,0.0,0.0,0.0,0.0,0.0,0.0,0.0,0.0,0.0,0.0,0.0,0.0,0.0,0.0,0.0,0.0,0.0,0.0,0.0,0.0,0.0,0.0,0.0,0.0,0.0,0.0,0.0,0.0,0.0,0.0,0.0,0.0,0.0,0.0,0.0,0.0,0.0,0.0,6.3973,6.6091,0.0,0.0,0.0,0.0,0.0,0.0,0.0,0.0,7.2044,7.357,7.418,7.5308,0.0,0.0,0.0,0.0,0.0,7.5341,8.266,9.0131,9.0256,9.0768,9.047,0.0,0.0,0.0,0.0,0.0,0.0,0.0,0.0,0.0,0.0,0.0,0.0,0.0,0.0,0.0,0.0,0.0,0.0,0.0,0.0,0.0,0.0,0.0,14.2584,14.1915,14.0318,13.9389,13.9389,13.6194,13.4485,13.4485,13.2888,13.2201,13.2348,13.2201,13.09,12.8648,12.7814,12.6498,12.49,0.0,0.0,12.5932,12.7344,12.7547,12.7147,12.8498,12.8206,12.6794,12.5909,12.4986,12.3985,0.0,0.0,0.0,0.0,0.0,0.0,0.0,0.0,0.0,0.0,0.0,0.0,0.0,0.0,0.0,0.0,0.0,0.0,0.0,0.0,0.0,0.0,0.0,0.0,0.0,0.0,0.0,0.0,0.0,0.0,7.8351,8.2553,8.0643,0.0,0.0,0.0,0.0,0.0,0.0,6.4679,6.5051,0.0,0.0,0.0,0.0,0.0,0.0,0.0,0.0,7.125,7.3795,7.5893,7.4714,0.0,0.0,0.0,0.0,0.0,7.8796,8.2852,8.5361,8.2392,8.2671,8.3437,0.0,0.0,0.0,0.0,0.0,0.0,0.0,0.0,0.0,0.0,0.0,0.0,0.0,0.0,0.0,0.0,0.0,0.0,0.0,0.0,0.0,0.0,0.0,14.1989,14.1915,14.0318,13.9389,13.9389,13.6194,13.4485,13.4485,13.2888,13.2456,13.3132,13.2365,13.1524,13.0431,12.8863,12.7278,12.5792,0.0,12.4677,12.51,12.5931,12.6513,12.7079,12.7918,12.7995,12.7602,12.6794,12.5486,12.3909,0.0,0.0,0.0,0.0,0.0,0.0,0.0,0.0,0.0,0.0,0.0,0.0,0.0,0.0,0.0,0.0,0.0,0.0,0.0,0.0,0.0,0.0,0.0,0.0,0.0,0.0,0.0,0.0,0.0,7.8945,8.2214,8.1288,7.869,7.4598,0.0,0.0,0.0,0.0,0.0,6.4159,0.0,0.0,0.0,0.0,0.0,0.0,0.0,0.0,0.0,0.0,7.3572,7.5474,7.4866,0.0,0.0,0.0,0.0,0.0,7.5671,7.8383,8.0885,8.1204,8.44,0.0,0.0,0.0,0.0,0.0,0.0,0.0,0.0,0.0,0.0,0.0,0.0,0.0,0.0,0.0,0.0,0.0,0.0,0.0,0.0,0.0,0.0,0.0,0.0,0.0,14.1284,14.0095,13.9203,13.8794,13.6008,13.4485,13.4485,13.2888,13.2456,13.33,13.2493,13.1613,13.0709,12.9101,12.7501,12.5903,0.0,12.438,12.4927,12.5608,12.6313,12.7147,12.7696,12.8015,12.7717,12.6486,12.5486,12.4601,0.0,0.0,0.0,0.0,0.0,0.0,0.0,0.0,0.0,0.0,0.0,0.0,0.0,0.0,0.0,0.0,0.0,0.0,0.0,0.0,0.0,0.0,0.0,0.0,0.0,0.0,6.9211,7.6382,7.9056,8.2681,8.7101,8.1603,7.7984,0.0,0.0,0.0,0.0,0.0,0.0,6.3639,0.0,0.0,0.0,0.0,0.0,0.0,0.0,0.0,0.0,0.0,0.0,0.0,0.0,0.0,0.0,7.4023,7.3371,7.3504,7.4048,7.601,7.8813,0.0,0.0,0.0,0.0,0.0,0.0,0.0,0.0,0.0,0.0,0.0,0.0,0.0,0.0,0.0,0.0,0.0,0.0,0.0,0.0,0.0,0.0,0.0,0.0,0.0,0.0,0.0,14.0689,13.9909,13.8906,13.7977,13.5711,13.4411,13.4188,13.259,13.227,13.33,13.2493,13.1613,13.0784,12.9287,12.7686,12.5903,12.438,12.4083,12.4555,12.5046,12.581,12.6805,12.7408,12.7733,12.7717,12.5986,12.5409,12.5293,0.0,0.0,0.0,0.0,0.0,0.0,0.0,0.0,0.0,0.0,0.0,0.0,0.0,0.0,0.0,0.0,0.0,0.0,0.0,0.0,0.0,0.0,0.0,0.0,0.0,6.858,7.1478,7.809,8.1323,8.6042,9.1917,8.7198,8.2333,7.741,0.0,0.0,0.0,0.0,0.0,6.3676,6.4419,0.0,0.0,0.0,0.0,0.0,0.0,0.0,0.0,0.0,0.0,0.0,0.0,0.0,7.6387,7.5374,7.5098,7.5866,7.9186,8.0245,0.0,0.0,0.0,0.0,0.0,0.0,0.0,0.0,0.0,0.0,0.0,0.0,0.0,0.0,0.0,0.0,0.0,0.0,0.0,0.0,0.0,0.0,0.0,0.0,0.0,0.0,0.0,0.0,14.0689,13.9909,13.8683,13.7086,13.5414,13.4114,13.3408,13.181,13.1837,13.33,13.2493,13.1613,13.0784,12.9995,12.8281,12.5978,12.5086,12.4269,12.3613,12.356,12.4478,12.5979,12.6598,12.7289,12.7717,12.5986,12.5409,12.5293,0.0,0.0,0.0,0.0,0.0,0.0,0.0,0.0,0.0,0.0,0.0,0.0,0.0,0.0,0.0,0.0,0.0,0.0,0.0,0.0,0.0,0.0,0.0,6.5274,6.8877,7.2666,7.7533,8.3589,8.8418,9.1634,9.3139,8.6452,0.0,0.0,0.0,0.0,0.0,0.0,0.0,6.5831,6.5372,6.5359,0.0,0.0,0.0,0.0,0.0,0.0,0.0,0.0,7.2051,7.3563,7.4021,7.5487,7.681,7.5704,7.4819,7.4519,7.6155,7.7505,0.0,0.0,0.0,0.0,0.0,0.0,0.0,0.0,0.0,0.0,0.0,0.0,0.0,0.0,0.0,0.0,0.0,0.0,0.0,0.0,0.0,0.0,0.0,0.0,0.0,0.0,0.0,0.0,13.9909,13.8609,13.7383,13.6305,13.4596,13.3593,13.3296,13.1699,13.1177,13.18,13.0991,13.0718,13.0784,12.9474,12.7798,12.594,12.5617,12.4675,12.3588,12.4394,12.5174,12.5895,12.6989,12.7285,12.7101,12.6409,12.6178,12.6178,0.0,0.0,0.0,0.0,0.0,0.0,0.0,0.0,0.0,0.0,0.0,0.0,0.0,0.0,0.0,0.0,0.0,0.0,0.0,0.0,0.0,0.0,0.0,6.5385,6.9211,7.5973,8.1731,8.6412,9.2988,9.5036,9.2601,0.0,0.0,0.0,0.0,0.0,0.0,0.0,0.0,0.0,6.6153,6.6078,0.0,0.0,0.0,0.0,0.0,0.0,0.0,0.0,7.1369,7.2822,7.363,7.5245,7.6686,7.5676,7.532,7.5169,7.4789,7.6075,7.8574,8.3154,0.0,0.0,0.0,0.0,0.0,0.0,0.0,0.0,0.0,0.0,0.0,0.0,0.0,0.0,0.0,0.0,0.0,0.0,0.0,0.0,0.0,0.0,0.0,0.0,0.0,0.0,0.0,13.7903,13.6491,13.5414,13.4002,13.3185,13.2888,13.129,13.0584,13.0881,12.9507,12.931,12.9993,12.8849,12.7501,12.6029,12.5875,12.5133,12.39,12.5116,12.5818,12.6232,12.7104,12.7217,12.6678,12.6678,12.6678,12.6678,0.0,0.0,0.0,0.0,0.0,0.0,0.0,0.0,0.0,0.0,0.0,0.0,0.0,0.0,0.0,0.0,0.0,0.0,0.0,0.0,0.0,0.0,0.0,6.5868,7.0735,7.8128,8.318,8.5669,9.3842,9.5291,9.035,8.6301,0.0,0.0,0.0,0.0,0.0,0.0,0.0,0.0,6.6729,6.6934,6.7314,0.0,0.0,0.0,0.0,0.0,0.0,0.0,7.1252,7.1321,7.3899,7.5322,7.5955,7.5455,7.7144,7.8636,7.6496,7.7131,7.8857,0.0,0.0,0.0,0.0,0.0,0.0,0.0,0.0,0.0,0.0,0.0,0.0,0.0,0.0,0.0,0.0,0.0,0.0,0.0,0.0,0.0,0.0,0.0,0.0,0.0,0.0,0.0,0.0,13.7791,13.6194,13.4485,13.3705,13.2888,13.2107,13.0473,13.0101,13.0807,12.8392,12.7612,12.8392,12.8392,12.7501,12.6029,12.5875,12.5339,12.4666,12.531,12.5969,12.6678,12.6678,12.6678,12.6678,12.6678,12.6678,12.6678,0.0,0.0,0.0,0.0,0.0,0.0,0.0,0.0,0.0,0.0,0.0,0.0,0.0,0.0,0.0,0.0,0.0,0.0,0.0,5.7074,5.7767,0.0,0.0,0.0,0.0,7.4413,8.3143,9.0796,9.3248,9.1613,0.0,0.0,0.0,7.6382,0.0,0.0,0.0,0.0,0.0,0.0,6.9512,6.9165,6.9095,0.0,0.0,0.0,0.0,0.0,0.0,0.0,0.0,0.0,7.3899,7.6938,7.9292,7.793,7.8343,7.8785,7.692,0.0,0.0,0.0,0.0,0.0,0.0,0.0,0.0,0.0,0.0,0.0,0.0,0.0,0.0,0.0,0.0,0.0,0.0,0.0,0.0,0.0,0.0,0.0,0.0,0.0,0.0,0.0,0.0,0.0,0.0,13.5897,13.4188,13.3705,13.2888,13.2107,13.129,13.0176,12.9507,12.9098,12.7798,12.7612,12.8392,12.7204,12.6498,12.5992,12.5797,12.5308,12.4666,12.531,12.5969,12.6678,12.6678,12.6678,12.6601,12.5986,12.5794,12.5591,0.0,0.0,0.0,0.0,0.0,0.0,0.0,0.0,0.0,0.0,0.0,0.0,0.0,0.0,0.0,0.0,0.0,0.0,0.0,0.0,5.7699,5.8464,6.0519,6.296,6.5719,7.4301,8.1174,8.6152,8.879,0.0,0.0,0.0,0.0,7.9019,0.0,7.954,0.0,0.0,7.3251,7.2579,7.2116,7.1642,7.1345,0.0,0.0,0.0,0.0,0.0,0.0,0.0,0.0,0.0,7.3063,7.5707,7.7938,7.7207,7.77,7.842,7.842,0.0,0.0,0.0,0.0,0.0,0.0,0.0,0.0,0.0,0.0,0.0,0.0,0.0,0.0,0.0,0.0,0.0,0.0,0.0,0.0,0.0,0.0,0.0,0.0,0.0,0.0,0.0,0.0,0.0,0.0,13.4708,13.3296,13.3296,13.2182,13.1402,13.0881,12.9804,12.8801,12.7909,12.7092,12.6795,12.6906,12.6275,12.5606,12.4988,12.5232,12.5296,12.5496,12.5918,12.6298,12.6678,12.6678,12.6678,12.6601,12.5678,12.5409,12.5206,0.0,0.0,0.0,0.0,0.0,0.0,0.0,0.0,0.0,0.0,0.0,0.0,0.0,0.0,0.0,0.0,0.0,0.0,0.0,0.0,5.8213,5.9101,6.0416,6.4182,7.0772,7.6121,7.757,7.5007,8.1508,0.0,0.0,0.0,8.4666,8.5446,0.0,8.6005,0.0,7.9704,7.6884,7.4087,7.4117,7.3814,7.3476,7.4284,0.0,0.0,0.0,0.0,0.0,0.0,0.0,0.0,7.1891,7.3014,7.3976,7.463,7.6092,7.8092,0.0,0.0,0.0,0.0,0.0,0.0,0.0,0.0,0.0,0.0,0.0,0.0,0.0,0.0,0.0,0.0,0.0,0.0,0.0,0.0,0.0,0.0,0.0,0.0,0.0,0.0,0.0,0.0,0.0,0.0,13.5711,13.4076,13.3185,13.3185,13.1699,13.0881,13.077,12.921,12.7984,12.7092,12.6312,12.5495,12.4677,12.5383,12.4988,12.361,12.4249,12.5278,12.6678,12.6678,12.6678,12.6678,12.6678,12.6678,12.6601,12.5591,12.5322,12.4992,0.0,0.0,0.0,0.0,0.0,0.0,0.0,0.0,0.0,0.0,0.0,0.0,0.0,0.0,0.0,0.0,0.0,0.0,0.0,0.0,5.8682,5.858,6.3256,6.7449,7.0846,7.2778,7.2258,6.9137,7.5007,0.0,0.0,0.0,0.0,8.3849,0.0,8.5707,8.1431,7.7945,7.5544,7.4049,7.3768,7.3188,7.2552,7.3437,7.2524,0.0,0.0,0.0,0.0,0.0,0.0,0.0,7.2486,7.4707,7.6361,7.5861,7.74,7.9691,0.0,0.0,0.0,0.0,0.0,0.0,0.0,0.0,0.0,0.0,0.0,0.0,0.0,0.0,0.0,0.0,0.0,0.0,0.0,0.0,0.0,0.0,0.0,0.0,0.0,0.0,0.0,0.0,13.6083,13.5711,13.4782,13.3185,13.2405,13.2405,13.1402,13.0584,12.999,12.8875,12.7686,12.6275,12.6089,12.5197,12.3786,12.3971,12.4103,12.4284,12.441,12.5278,12.6678,12.6678,12.6678,12.6678,12.6678,12.6678,12.6475,12.5088,12.4081,12.3318,0.0,0.0,0.0,0.0,0.0,0.0,0.0,0.0,0.0,0.0,0.0,0.0,0.0,0.0,0.0,0.0,0.0,0.0,0.0,0.0,0.0,6.0156,6.4411,6.7131,6.7986,6.8803,6.8023,6.5534,0.0,0.0,0.0,0.0,0.0,8.5038,0.0,8.642,8.1506,7.96,7.753,7.5654,7.584,7.5399,7.463,7.4668,7.3129,7.0777,6.9957,0.0,0.0,0.0,0.0,0.0,0.0,0.0,7.4322,7.4707,7.6322,7.8915,0.0,0.0,0.0,0.0,0.0,0.0,0.0,0.0,0.0,0.0,0.0,0.0,0.0,0.0,0.0,0.0,0.0,0.0,0.0,0.0,0.0,0.0,0.0,0.0,0.0,0.0,0.0,13.4708,13.4596,13.4188,13.3408,13.2182,13.1699,13.2107,13.051,12.9693,12.9693,12.8095,12.6609,12.5383,12.4974,12.4083,12.2894,12.2894,12.3318,12.402,12.4296,12.5094,12.6207,12.658,12.6678,12.6678,12.6678,12.6491,12.6001,12.4293,12.3202,12.2204,0.0,0.0,0.0,0.0,0.0,0.0,0.0,0.0,0.0,0.0,0.0,0.0,0.0,0.0,0.0,0.0,0.0,0.0,0.0,0.0,0.0,0.0,6.4711,6.5682,6.5236,6.5608,6.5013,6.3416,0.0,0.0,0.0,0.0,0.0,8.6672,0.0,8.6574,8.183,8.0984,7.9095,7.6669,7.7207,7.7015,7.6322,7.563,7.3476,7.0892,7.072,7.0309,6.9891,7.0649,0.0,0.0,0.0,0.0,7.1398,7.286,7.4476,7.7139,0.0,0.0,0.0,0.0,0.0,0.0,0.0,0.0,0.0,0.0,0.0,0.0,0.0,0.0,0.0,0.0,0.0,0.0,0.0,0.0,0.0,0.0,0.0,0.0,0.0,13.5674,13.4894,13.3408,13.3296,13.2888,13.1884,13.129,13.1104,13.1699,12.9507,12.869,12.947,12.7204,12.5606,12.4789,12.3786,12.2894,12.23,12.23,12.2623,12.3161,12.3982,12.4585,12.523,12.6106,12.6464,12.6486,12.6503,12.6001,12.521,12.3486,12.2407,12.1321,0.0,0.0,0.0,0.0,0.0,0.0,0.0,0.0,0.0,0.0,0.0,0.0,0.0,0.0,0.0,0.0,0.0,0.0,0.0,0.0,0.0,0.0,6.4711,6.5608,6.6945,6.5645,6.4196,0.0,0.0,0.0,0.0,0.0,0.0,0.0,0.0,0.0,8.1649,7.7035,7.4647,7.3937,7.3283,7.2976,7.286,7.2745,7.1975,7.0815,7.0109,7.0038,7.0319,7.0801,7.114,0.0,0.0,0.0,7.2052,7.2322,7.3553,0.0,0.0,0.0,0.0,0.0,0.0,0.0,0.0,0.0,0.0,0.0,0.0,0.0,0.0,0.0,0.0,0.0,0.0,0.0,0.0,0.0,0.0,0.0,0.0,13.5897,13.5785,13.5079,13.4299,13.3408,13.3296,13.259,13.1104,13.0993,13.0584,12.999,12.8987,12.8504,12.8578,12.6869,12.5606,12.4789,12.3191,12.2374,12.23,12.23,12.2324,12.2373,12.3239,12.347,12.3567,12.5134,12.5732,12.5591,12.5701,12.5192,12.4291,12.2877,12.1319,11.9894,0.0,0.0,0.0,0.0,0.0,0.0,0.0,0.0,0.0,0.0,0.0,0.0,0.0,0.0,0.0,5.6408,5.6613,5.7301,5.8604,5.8919,0.0,0.0,6.2245,6.2636,6.3862,6.2673,6.1967,0.0,0.0,0.0,0.0,7.6976,8.196,0.0,0.0,0.0,0.0,0.0,0.0,7.4822,7.3937,7.3591,7.3514,7.2552,7.1937,7.1468,7.0185,0.0,0.0,7.0764,7.0763,7.0712,7.1833,0.0,0.0,0.0,0.0,0.0,0.0,0.0,0.0,0.0,0.0,0.0,0.0,0.0,0.0,0.0,0.0,0.0,0.0,0.0,0.0,0.0,0.0,0.0,0.0,0.0,0.0,0.0,13.6677,13.6083,13.5191,13.4708,13.3779,13.2107,13.1996,13.1402,13.0287,12.9804,12.9519,12.9586,12.8402,12.7732,12.7729,12.6094,12.4677,12.3377,12.2671,12.23,12.23,12.23,12.2036,12.1548,12.2365,12.2623,12.2633,12.3719,12.4667,12.5409,12.5506,12.479,12.3573,12.2524,12.0833,11.8967,0.0,0.0,0.0,0.0,0.0,0.0,0.0,0.0,0.0,0.0,0.0,0.0,0.0,0.0,0.0,0.0,5.6855,5.757,5.9025,5.9016,0.0,0.0,0.0,6.0013,6.0555,5.9924,0.0,0.0,0.0,0.0,7.679,7.8871,8.5526,0.0,9.0152,0.0,0.0,0.0,0.0,0.0,0.0,7.4207,7.4322,7.3476,0.0,7.2928,7.1251,0.0,0.0,0.0,0.0,0.0,7.1765,7.1745,0.0,0.0,0.0,0.0,0.0,0.0,0.0,0.0,0.0,0.0,0.0,0.0,0.0,0.0,0.0,0.0,0.0,0.0,0.0,0.0,0.0,0.0,0.0,0.0,13.6083,13.6305,13.6194,13.56,13.4299,13.3816,13.2813,13.0993,13.0696,13.0101,12.9098,12.8392,12.823,12.8271,12.7187,12.6628,12.6519,12.5212,12.3674,12.23,12.23,12.23,12.23,12.2077,12.1594,12.0825,12.1636,12.1585,12.1238,12.2217,12.33,12.452,12.4284,12.36,12.25,12.1485,11.9893,11.8213,0.0,0.0,0.0,0.0,0.0,0.0,0.0,0.0,0.0,0.0,0.0,0.0,0.0,5.697,5.7194,5.7163,5.7813,5.8566,5.9412,5.9932,6.0112,5.9847,5.9472,0.0,5.8846,5.8809,0.0,0.0,0.0,0.0,7.9354,8.2586,9.1184,10.3586,9.5461,8.9877,8.6392,0.0,0.0,0.0,0.0,0.0,0.0,0.0,0.0,0.0,0.0,0.0,0.0,0.0,0.0,0.0,0.0,0.0,7.1975,0.0,0.0,0.0,0.0,0.0,0.0,0.0,0.0,0.0,0.0,0.0,0.0,0.0,0.0,0.0,0.0,0.0,0.0,0.0,0.0,0.0,13.4411,13.3891,13.3779,13.4485,13.4002,13.3482,13.3408,13.1996,13.0993,13.0881,13.0176,12.9098,12.7389,12.7278,12.6572,12.51,12.4974,12.4863,12.4914,12.3971,12.308,12.23,12.23,12.23,12.23,12.1482,12.0702,11.9996,12.0825,12.0204,11.8805,12.0419,12.1494,12.1906,12.1403,12.108,12.0813,11.9281,11.8222,11.7507,0.0,0.0,0.0,0.0,0.0,0.0,0.0,0.0,0.0,0.0,0.0,0.0,0.0,5.7181,5.6979,5.7207,5.7946,5.8462,5.8546,5.9214,5.9534,5.9432,5.9064,5.8825,5.8698,5.8698,0.0,0.0,0.0,6.6945,7.6456,8.0802,8.7811,9.6551,9.3946,9.2793,9.2373,8.4989,0.0,0.0,0.0,0.0,0.0,0.0,0.0,0.0,0.0,0.0,0.0,0.0,0.0,0.0,0.0,0.0,0.0,0.0,0.0,0.0,0.0,0.0,0.0,0.0,0.0,0.0,0.0,0.0,0.0,0.0,0.0,0.0,0.0,0.0,0.0,13.181,13.1513,13.1699,13.2813,13.2702,13.259,13.2888,13.2702,13.2293,13.181,13.077,12.9878,12.9284,12.8095,12.7092,12.6498,12.5903,12.5386,12.4708,12.484,12.4492,12.3971,12.308,12.2597,12.23,12.23,12.23,12.23,12.1482,12.0665,11.9885,11.9588,11.9116,11.8505,11.9106,12.0131,12.1077,12.0926,12.0622,12.0108,11.9999,11.9181,11.8202,0.0,0.0,0.0,0.0,0.0,0.0,0.0,0.0,0.0,0.0,0.0,0.0,0.0,0.0,5.767,5.804,5.8505,5.8706,5.8603,5.9095,5.9361,5.9215,5.8986,5.8784,5.8698,5.8698,0.0,0.0,0.0,0.0,0.0,0.0,8.5525,9.2569,9.185,0.0,0.0,0.0,0.0,8.2862,0.0,0.0,7.9785,0.0,0.0,0.0,0.0,0.0,0.0,0.0,0.0,0.0,0.0,0.0,0.0,0.0,0.0,0.0,0.0,0.0,0.0,0.0,0.0,0.0,0.0,0.0,0.0,0.0,0.0,12.8944,12.9507,13.006,13.0398,13.0101,12.9581,12.9507,13.0287,13.0213,13.0176,13.0398,13.0473,13.0101,12.9284,12.8801,12.8095,12.7278,12.62,12.5495,12.5197,12.4677,12.4083,12.3362,12.3536,12.3191,12.23,12.2002,12.178,12.1482,12.178,12.178,12.1482,12.0591,11.9996,11.9402,11.8622,11.8208,11.805,11.805,11.888,12.0042,11.9802,11.9478,11.9406,11.9797,11.9392,11.8579,0.0,0.0,0.0,0.0,0.0,0.0,0.0,0.0,0.0,0.0,0.0,0.0,0.0,0.0,0.0,5.9782,5.9434,5.9361,5.9706,5.9739,5.9571,5.9215,5.9178,5.9025,5.8698,5.8735,0.0,0.0,0.0,0.0,0.0,0.0,8.5,0.0,8.9779,9.2627,9.9635,0.0,9.4518,9.171,0.0,8.2708,8.5247,0.0,0.0,0.0,8.6718,8.4809,0.0,0.0,0.0,0.0,0.0,0.0,0.0,0.0,0.0,0.0,0.0,0.0,0.0,0.0,0.0,0.0,11.4099,0.0,11.6121,12.2591,12.5539,12.6808,12.7108,12.7121,12.7278,12.8095,12.6981,12.62,12.7092,12.6498,12.6275,12.6981,12.7092,12.6795,12.5978,12.5903,12.5606,12.4863,12.4789,12.438,12.3488,12.3488,12.2708,12.1074,12.1074,12.0665,11.9885,12.0665,12.0665,11.9885,12.0665,12.0665,11.9885,11.8993,11.8622,11.8622,11.773,11.7433,11.7433,11.7433,11.781,11.8356,11.7687,11.7773,11.8543,11.8505,11.8468,11.8615,0.0,0.0,0.0,0.0,0.0,0.0,0.0,0.0,0.0,0.0,0.0,0.0,0.0,0.0,0.0,5.9844,5.9763,5.9238,5.8239,5.8687,5.8945,5.8825,5.8825,5.8784,5.8698,5.9292,5.9701,0.0,0.0,0.0,0.0,0.0,0.0,0.0,8.8473,9.1108,9.2441,8.8055,0.0,0.0,8.4055,8.4978,0.0,0.0,0.0,0.0,0.0,8.7078,0.0,0.0,8.127,7.9239,0.0,0.0,0.0,0.0,0.0,0.0,7.4551,0.0,0.0,0.0,0.0,0.0,9.8725,10.2408,10.6594,11.4918,11.7686,12.0025,12.4594,12.4919,12.4469,12.4765,12.4974,12.5383,12.62,12.5606,12.5197,12.5383,12.5495,12.5383,12.5197,12.4603,12.438,0.0,12.3674,12.308,12.3488,12.2374,12.1594,12.1074,12.0479,12.0071,11.9885,12.0071,12.0071,11.9885,12.0071,12.0071,11.9885,11.8993,11.8622,11.8622,11.773,11.7433,11.7433,11.7433,11.7524,11.7687,11.7516,11.7524,11.7773,11.8827,11.9241,11.9374,0.0,0.0,0.0,0.0,0.0,0.0,0.0,0.0,0.0,0.0,0.0,0.0,0.0,0.0,0.0,6.0555,6.0444,5.9775,5.8103,5.8438,5.8846,5.9181,5.9218,5.9552,6.0221,6.037,6.0778,6.1447,0.0,0.0,0.0,0.0,0.0,0.0,0.0,0.0,0.0,0.0,0.0,0.0,8.7786,0.0,0.0,9.2287,9.3403,0.0,0.0,0.0,9.2526,8.9187,8.5896,0.0,0.0,0.0,0.0,0.0,0.0,0.0,0.0,0.0,0.0,0.0,0.0,0.0,9.3199,9.592,9.9274,10.8088,11.1508,11.4497,11.991,12.0607,12.0492,12.1287,12.185,12.2708,12.4194,12.3786,12.3266,12.3266,12.36,12.36,12.3303,12.3377,12.36,12.3674,12.2894,12.2374,12.2485,12.1297,12.0405,12.0108,11.9588,11.9179,11.8882,11.9179,11.9179,11.8882,11.9179,11.9179,11.8807,11.8325,11.8102,11.8102,11.7619,11.7433,11.7433,11.7433,11.7433,11.7433,11.7433,11.7433,11.7561,11.9005,11.9505,11.9698,0.0,0.0,0.0,0.0,0.0,0.0,0.0,0.0,0.0,0.0,0.0,0.0,0.0,0.0,0.0,0.0,6.1558,6.0667,5.9069,5.8884,5.9218,6.0035,6.0147,6.0853,6.2264,6.1744,6.2116,6.349,0.0,0.0,0.0,0.0,0.0,0.0,0.0,0.0,0.0,0.0,0.0,9.0787,9.2556,9.4826,0.0,0.0,10.1096,0.0,10.1609,10.1196,10.0096,9.4515,8.8921,0.0,0.0,0.0,0.0,0.0,7.6536,0.0,0.0,0.0,0.0,0.0,0.0,0.0,9.2546,9.3022,9.3694,10.1805,10.5936,10.9401,11.4036,11.5096,11.5802,11.7117,11.7885,11.9216,12.1705,12.1371,12.0999,12.0999,12.1668,12.1891,12.0999,12.23,12.2894,12.2077,12.2002,12.1705,12.0999,12.0182,11.9402,11.8622,11.851,11.8102,11.7433,11.8102,11.8102,11.7433,11.8102,11.8102,11.7433,11.7433,11.7433,11.7433,11.7433,11.7433,11.7433,11.7433,11.7433,11.7433,11.7433,11.7433,11.7561,11.8935,11.9402,11.9698,5.8215,0.0,0.0,0.0,0.0,0.0,0.0,0.0,0.0,0.0,0.0,0.0,0.0,0.0,0.0,0.0,6.3713,6.1744,6.0778,6.0072,6.0072,6.0927,6.1596,6.1781,6.1447,6.2562,6.297,6.2636,0.0,0.0,0.0,0.0,0.0,0.0,0.0,0.0,0.0,0.0,0.0,8.7286,8.9671,0.0,10.2404,10.2212,10.4289,10.7328,10.6591,10.6326,10.5405,0.0,9.4099,8.8209,0.0,0.0,0.0,0.0,0.0,0.0,0.0,0.0,0.0,0.0,0.0,0.0,8.299,8.5475,8.9837,9.53,9.8201,10.1996,10.9234,11.1185,11.141,11.062,11.3893,11.7507,11.9996,12.0182,12.0071,12.0071,12.0776,12.0999,12.0182,12.0999,12.1185,12.0405,12.0368,12.0294,12.0071,11.929,11.8807,11.8622,11.8027,11.7619,11.7433,11.7619,11.7619,11.7433,11.7619,11.7619,11.7433,11.7433,11.7433,11.7433,11.7433,11.7433,11.7433,11.7433,11.7433,11.7433,11.7433,11.7433,11.7479,11.8393,11.8967,11.9596,5.736,0.0,0.0,0.0,0.0,0.0,0.0,0.0,0.0,0.0,0.0,0.0,0.0,0.0,0.0,0.0,0.0,0.0,0.0,0.0,6.1113,6.2339,6.2784,6.3379,6.4233,6.4233,6.4233,6.427,0.0,0.0,0.0,0.0,0.0,0.0,0.0,0.0,0.0,0.0,8.2309,8.7209,9.2287,0.0,10.3405,10.4713,10.6982,10.9406,10.8598,10.779,10.6097,9.9712,9.6134,0.0,0.0,8.5824,8.5209,0.0,8.2758,8.1873,0.0,0.0,0.0,8.2224,0.0,0.0,0.0,8.2413,8.513,9.1697,9.3399,9.5982,10.3383,10.3916,10.3794,10.5624,10.788,11.082,11.4498,11.7507,11.9384,11.9756,11.9802,11.9793,11.9756,12.0174,12.0294,11.9885,11.9476,11.929,11.929,11.851,11.8027,11.8027,11.7619,11.7433,11.7433,11.7433,11.7433,11.7433,11.7433,11.7433,11.7433,11.7433,11.7433,11.7433,11.7433,11.7433,11.7433,11.7433,11.7433,11.7433,11.7433,11.7433,11.7479,11.8204,11.8688,11.9067,5.6506,0.0,0.0,0.0,0.0,0.0,0.0,0.0,0.0,0.0,0.0,0.0,0.0,0.0,0.0,0.0,0.0,0.0,0.0,0.0,0.0,6.3342,6.3973,6.5051,6.6574,6.5608,6.5311,6.5868,0.0,0.0,0.0,0.0,0.0,0.0,0.0,0.0,0.0,0.0,0.0,8.8517,0.0,9.9865,10.2289,10.6213,10.879,11.0406,11.0214,10.879,10.6097,9.9442,0.0,9.7865,8.9863,8.9825,0.0,0.0,0.0,0.0,0.0,0.0,0.0,0.0,0.0,8.1919,0.0,0.0,0.0,8.8644,8.9497,9.0908,9.7019,9.6196,9.5878,9.9725,10.1303,10.339,10.7217,11.2683,11.691,11.8204,11.7815,11.7768,11.8878,11.8811,11.8882,11.9402,11.8325,11.7916,11.8325,11.7804,11.7433,11.7433,11.7433,11.7433,11.7433,11.7433,11.7433,11.7433,11.7433,11.7433,11.7433,11.7433,11.7433,11.7433,11.7433,11.7433,11.7433,11.7433,11.7433,11.7433,11.7433,11.7433,11.7516,11.8125,11.8393,11.8652,5.7212,0.0,0.0,0.0,6.3305,6.6202,6.728,0.0,0.0,0.0,0.0,0.0,0.0,0.0,0.0,0.0,0.0,0.0,7.0698,0.0,0.0,6.2562,6.5348,6.5979,6.4085,6.5311,6.5645,6.4976,0.0,0.0,0.0,0.0,0.0,0.0,6.7192,0.0,0.0,0.0,8.0946,0.0,9.548,9.8288,0.0,10.5482,10.9213,11.1598,11.3791,11.2483,10.929,0.0,10.3289,10.0404,0.0,9.4903,9.348,0.0,0.0,0.0,0.0,0.0,0.0,0.0,8.9074,0.0,0.0,0.0,8.498,8.4097,0.0,8.6968,9.0409,0.0,0.0,9.0093,9.5381,9.9452,9.9303,10.46,10.9674,11.2874,11.3075,11.3898,11.6371,11.5322,11.539,11.7507,11.5613,11.5315,11.7433,11.7433,11.7433,11.7433,11.7433,11.7433,11.7433,11.7433,11.7433,11.7433,11.7433,11.7433,11.7433,11.7433,11.7433,11.7433,11.7433,11.7433,11.7433,11.7433,11.7433,11.7433,11.7433,11.7433,11.7396,11.7479,11.7932,11.8468,5.7435,0.0,0.0,0.0,6.3193,6.5905,6.9583,0.0,0.0,0.0,0.0,0.0,0.0,0.0,0.0,0.0,0.0,7.1626,0.0,0.0,0.0,0.0,0.0,0.0,6.7168,6.6908,6.6388,6.5571,6.5571,0.0,0.0,0.0,0.0,0.0,6.7328,0.0,7.5471,0.0,0.0,0.0,0.0,0.0,0.0,10.629,11.0906,11.2291,11.2906,11.1791,10.9598,0.0,10.3905,0.0,0.0,0.0,0.0,0.0,0.0,0.0,0.0,0.0,0.0,0.0,0.0,0.0,8.3954,0.0,8.2727,0.0,0.0,0.0,0.0,0.0,0.0,0.0,8.9892,9.2294,9.4057,9.7092,10.1708,10.8808,10.8236,10.8134,11.0304,11.082,11.1786,11.3718,11.2901,11.3198,11.5204,11.6207,11.6727,11.6727,11.721,11.7024,11.6021,11.6913,11.721,11.6727,11.721,11.7433,11.7433,11.7433,11.7136,11.6727,11.721,11.6913,11.6095,11.7024,11.7136,11.6801,11.721,11.7433,11.7433,11.7433,11.7643,11.7853,5.7806,0.0,0.0,0.0,0.0,0.0,7.1292,0.0,0.0,0.0,0.0,0.0,8.4332,8.344,0.0,0.0,0.0,7.7719,0.0,0.0,7.0336,0.0,0.0,0.0,0.0,0.0,6.7243,6.6425,6.6202,0.0,0.0,0.0,0.0,0.0,0.0,7.2398,7.6895,0.0,0.0,8.9033,9.5443,9.8519,10.0096,10.779,11.1714,11.2983,11.2406,11.1291,10.9598,10.5713,10.4982,0.0,10.1597,0.0,0.0,0.0,0.0,0.0,9.4963,0.0,0.0,0.0,0.0,0.0,0.0,0.0,0.0,0.0,0.0,0.0,0.0,0.0,0.0,0.0,0.0,8.7792,9.0005,9.0944,9.4517,10.2868,10.3822,10.4446,10.6251,10.7291,10.8703,11.0523,10.9594,11.0189,11.3012,11.4015,11.4907,11.5798,11.643,11.6207,11.5018,11.643,11.6801,11.6207,11.7024,11.7433,11.7433,11.721,11.6801,11.6207,11.6616,11.6095,11.513,11.6504,11.6727,11.6318,11.7099,11.7433,11.7433,11.7433,11.7433,11.7516,5.8512,5.8698,0.0,0.0,0.0,0.0,0.0,0.0,0.0,0.0,0.0,0.0,0.0,0.0,0.0,0.0,0.0,8.6078,8.5186,0.0,7.4122,0.0,0.0,0.0,0.0,0.0,6.8097,6.728,0.0,0.0,0.0,0.0,0.0,0.0,0.0,7.6266,8.1508,8.458,9.0357,9.7866,10.1091,10.679,11.2983,0.0,11.1098,11.3984,11.3907,0.0,0.0,10.8983,10.8213,0.0,0.0,0.0,0.0,0.0,0.0,0.0,0.0,0.0,0.0,9.3124,0.0,0.0,0.0,0.0,8.7847,0.0,0.0,0.0,0.0,0.0,0.0,0.0,0.0,0.0,0.0,8.6742,8.8598,9.4012,10.0229,10.4579,10.6213,10.5693,10.6325,10.8814,10.521,10.5396,11.1117,11.0709,11.1786,11.4907,11.5092,11.5092,11.5018,11.5798,11.6207,11.6207,11.7024,11.7433,11.7396,11.6616,11.6207,11.6207,11.5427,11.5018,11.5092,11.591,11.6207,11.6318,11.7099,11.7433,11.7433,11.7433,11.7433,11.7396,0.0,0.0,0.0,0.0,0.0,0.0,0.0,7.5861,0.0,0.0,0.0,0.0,0.0,0.0,9.856,0.0,0.0,9.2876,8.983,8.5022,0.0,0.0,0.0,7.6457,0.0,0.0,0.0,0.0,0.0,0.0,0.0,0.0,0.0,0.0,0.0,7.8267,0.0,0.0,0.0,0.0,0.0,10.8482,11.4599,0.0,11.2022,11.3907,11.2714,11.1791,0.0,11.0714,10.9713,10.8482,10.8482,10.6713,10.4713,10.502,10.4713,10.4208,0.0,0.0,10.5904,9.8964,0.0,0.0,0.0,0.0,0.0,0.0,0.0,0.0,0.0,0.0,0.0,0.0,0.0,0.0,0.0,8.2386,8.2799,8.7582,9.3248,9.7334,9.8969,9.8858,9.9749,10.2201,9.9601,10.0121,10.5322,10.8517,11.0597,11.1712,11.4424,11.5018,11.3421,11.5204,11.591,11.5427,11.6801,11.7433,11.7396,11.6616,11.591,11.5427,11.513,11.4424,11.3495,11.5427,11.591,11.5501,11.6913,11.7433,11.7433,11.7433,11.7433,11.7433,6.1521,0.0,0.0,0.0,0.0,0.0,0.0,0.0,0.0,0.0,9.2245,0.0,10.3316,0.0,10.5099,0.0,10.391,10.0336,9.4542,9.1713,0.0,8.6728,8.41,0.0,0.0,0.0,0.0,0.0,0.0,7.0853,0.0,0.0,0.0,0.0,0.0,0.0,8.5264,0.0,9.5741,0.0,0.0,11.0406,0.0,0.0,11.2983,11.4214,0.0,11.1522,11.1522,11.1522,11.0791,10.9906,11.0483,10.8713,10.6597,10.7482,10.7098,10.6518,10.6675,10.8116,0.0,10.3404,10.1903,0.0,9.3381,0.0,9.5966,0.0,0.0,0.0,0.0,0.0,0.0,0.0,0.0,0.0,0.0,7.9145,7.9818,8.3919,8.874,9.2431,9.4362,9.4288,9.4622,9.5923,9.3731,9.4622,9.9824,10.4207,10.7402,10.9223,11.2901,11.4127,11.2529,11.4424,11.5092,11.4609,11.591,11.6504,11.6504,11.5724,11.5092,11.4609,11.4201,11.3495,11.2603,11.4609,11.5018,11.4721,11.6318,11.7024,11.7024,11.7321,11.7433,11.7433,0.0,0.0,0.0,0.0,6.5385,0.0,0.0,0.0,8.5781,0.0,9.5477,10.1495,10.6399,10.8405,11.0003,11.1526,11.1563,0.0,9.9931,9.9649,0.0,0.0,8.9187,8.7121,8.3792,0.0,0.0,0.0,0.0,0.0,0.0,0.0,0.0,0.0,8.0468,0.0,8.512,9.5307,10.0716,10.3117,11.0019,11.2714,11.2791,11.2714,11.3791,11.4907,11.2406,11.1522,11.1522,11.1522,11.1522,11.1522,11.1598,11.0406,10.9213,11.0098,10.9713,10.8983,10.9098,10.979,10.9598,10.629,10.602,0.0,0.0,0.0,10.3738,0.0,0.0,0.0,0.0,0.0,0.0,0.0,0.0,0.0,0.0,7.7236,7.9428,8.2623,8.6412,8.983,9.2542,9.191,9.1019,9.0276,8.7935,8.905,9.4734,9.8338,10.2424,10.7217,11.0709,11.2529,11.2529,11.3421,11.3792,11.3792,11.4609,11.5018,11.5018,11.4201,11.3792,11.3792,11.2901,11.2529,11.2603,11.3421,11.3792,11.4015,11.5613,11.6207,11.6393,11.7136,11.7433,11.7433,6.4196,6.5979,6.7577,0.0,6.9026,7.1106,0.0,0.0,0.0,0.0,10.1904,10.8517,11.4015,11.6095,11.669,11.591,11.5165,0.0,0.0,0.0,0.0,10.3288,9.9773,9.6748,9.4275,9.0183,0.0,8.3043,0.0,0.0,7.8191,0.0,0.0,0.0,0.0,0.0,8.5864,9.4232,10.147,10.7487,11.1204,11.3099,11.3599,0.0,11.3407,11.4099,11.2214,11.1522,11.1598,11.2214,11.2022,11.1714,11.2983,11.2214,11.1021,11.1791,11.1522,11.1098,11.2406,11.2906,11.2714,11.1098,10.9983,10.809,0.0,0.0,0.0,0.0,0.0,0.0,0.0,0.0,0.0,0.0,0.0,0.0,0.0,0.0,0.0,8.0208,8.084,8.3514,8.9644,8.7824,8.6189,8.5966,8.4257,8.5186,8.9719,9.596,10.0789,10.391,10.952,11.2529,11.2529,11.3421,11.3792,11.3792,11.4609,11.5018,11.5018,11.4201,11.3792,11.3792,11.2901,11.2529,11.2603,11.3421,11.4201,11.4795,11.5798,11.6616,11.7136,11.7321,11.7433,11.7433,6.6797,0.0,0.0,7.2927,0.0,0.0,7.9316,0.0,0.0,9.6963,10.4319,0.0,11.3829,11.7582,11.9402,11.8027,11.7358,0.0,0.0,0.0,0.0,10.9083,10.6587,10.3824,10.0697,9.5902,0.0,8.7438,0.0,0.0,7.9515,0.0,0.0,0.0,0.0,8.3514,8.672,9.5591,10.3296,10.9598,11.1406,11.2522,0.0,11.2791,11.2791,11.2791,11.1791,11.1522,11.1598,11.2022,11.2099,11.2291,11.3599,11.3407,11.2791,11.3984,11.3791,11.3407,11.4714,11.5099,11.4984,11.4484,11.3907,11.2709,10.9297,11.0509,11.1327,0.0,10.8308,10.829,0.0,0.0,0.0,0.0,0.0,0.0,0.0,0.0,0.0,0.0,7.9094,8.058,8.5112,8.3217,8.1583,8.1211,8.1694,8.2846,8.474,9.2876,9.8598,10.1012,10.7514,11.1415,11.2529,11.3421,11.3606,11.3198,11.3718,11.3904,11.3904,11.3421,11.3198,11.3198,11.2715,11.2529,11.2529,11.3012,11.3495,11.4015,11.5204,11.6207,11.6913,11.7321,11.7433,11.7433,0.0,0.0,0.0,0.0,0.0,0.0,0.0,8.853,0.0,9.856,0.0,11.0783,11.1489,11.669,11.9885,11.903,0.0,11.7714,11.4389,11.5488,11.4907,11.1709,11.1214,10.9213,10.529,10.0995,0.0,0.0,0.0,8.2649,8.0279,7.8575,0.0,0.0,0.0,0.0,0.0,9.7498,10.4468,10.9402,11.0829,11.1406,11.1598,11.2291,11.2099,11.1522,11.1396,11.1401,11.1522,11.1598,11.2099,11.2714,11.3791,11.4099,11.4291,11.5984,11.5907,11.5484,11.6292,11.6407,11.6407,11.6484,11.7215,11.7292,11.4907,11.421,11.3674,11.2641,10.9681,10.7615,10.878,0.0,0.0,0.0,0.0,0.0,0.0,0.0,0.0,0.0,0.0,0.0,8.0505,7.9354,7.8165,7.7162,7.9837,8.1211,8.058,8.9384,9.5774,9.8672,10.5025,10.9706,11.2529,11.3309,11.3309,11.2715,11.2603,11.2529,11.2529,11.2529,11.2529,11.2529,11.2529,11.2529,11.2529,11.2529,11.2603,11.2826,11.4498,11.5613,11.6318,11.6913,11.721,11.7433,0.0,0.0,0.0,0.0,0.0,8.9421,9.4734,9.9341,10.339,10.6585,11.3978,11.8993,11.9179,12.0776,12.1594,12.0702,12.1219,0.0,0.0,0.0,0.0,11.8592,11.6484,11.4407,11.2291,10.6092,10.1018,0.0,9.0144,8.4672,8.0801,7.9091,7.757,0.0,0.0,0.0,8.9968,9.5749,0.0,10.4706,10.8778,11.0906,11.1522,11.1714,11.1598,11.1401,11.0913,11.097,11.1598,11.2291,11.2099,11.2099,11.4407,11.4599,11.4291,11.5984,11.5907,11.5484,11.6292,11.5984,11.5676,11.6292,11.7677,11.8407,11.6484,11.7593,11.8431,11.6078,11.5071,11.3305,10.8816,10.1093,0.0,0.0,0.0,0.0,0.0,0.0,0.0,0.0,0.0,8.1063,7.9837,8.0059,7.9391,7.7236,7.8239,7.9168,7.9688,8.5855,9.1725,9.6889,10.2796,10.7997,11.2529,11.2715,11.3012,11.3606,11.2826,11.2529,11.2529,11.2529,11.2529,11.2529,11.2529,11.2529,11.2529,11.2529,11.2901,11.3718,11.539,11.6095,11.6133,11.5613,11.6318,11.7433,0.0,0.0,0.0,0.0,0.0,0.0,0.0,10.8108,0.0,10.9111,11.3792,11.7099,11.669,12.0405,12.2374,12.1185,12.1421,12.1281,12.0728,12.0596,12.0531,12.0284,11.91,0.0,11.5291,10.8713,10.3289,9.9481,9.0902,8.4746,8.0932,7.8803,7.7325,7.6604,0.0,8.3994,0.0,0.0,9.8742,10.3496,10.7817,11.0291,11.1522,11.1522,11.1522,11.1396,11.0701,11.0996,11.1574,11.1621,11.1621,11.1899,11.3472,11.4291,11.4791,11.5599,11.5907,11.5984,11.6407,11.6176,11.5984,11.6407,11.7484,11.8215,11.7407,11.81,11.8792,11.7984,11.6792,11.4099,10.8098,10.1096,0.0,0.0,0.0,0.0,0.0,0.0,0.0,0.0,0.0,0.0,0.0,8.0189,7.9759,7.6696,7.8759,7.9614,7.8313,8.37,8.9013,9.3917,9.9266,10.4802,11.0597,11.1897,11.2715,11.3123,11.2715,11.2529,11.2529,11.2529,11.2529,11.2529,11.2529,11.2529,11.2529,11.2529,11.3012,11.3904,11.4721,11.5018,11.5018,11.5018,11.5501,11.6207,0.0,8.7222,0.0,0.0,9.8217,0.0,10.8294,11.4127,11.643,11.2306,11.4089,11.5613,11.4907,11.9996,12.2894,12.1482,12.1467,12.1384,12.0964,12.1114,12.1007,12.0592,12.06,11.96,11.7407,11.0906,10.5097,0.0,9.171,8.5127,8.0566,7.8739,7.7538,7.7064,0.0,0.0,0.0,9.272,9.7741,10.2782,10.7121,10.9906,11.1522,11.1714,11.1791,11.1704,11.101,11.1168,11.1625,11.0907,11.1228,11.1961,11.2781,11.4003,11.5079,11.5285,11.5676,11.6176,11.6176,11.6176,11.6292,11.6484,11.7292,11.8023,11.7792,11.81,11.8484,11.8985,11.7215,11.3791,10.8213,10.3405,9.9442,0.0,0.0,0.0,0.0,0.0,0.0,0.0,0.0,0.0,7.8722,8.009,7.9658,7.5841,7.9131,8.0246,7.7676,8.2309,8.6895,9.0796,9.6071,10.1793,10.8108,11.0709,11.2195,11.2529,11.2529,11.2529,11.2529,11.2529,11.2529,11.2529,11.2529,11.2529,11.2529,11.2715,11.3123,11.3495,11.3718,11.3792,11.3904,11.4498,11.5018,11.5315,0.0,0.0,0.0,0.0,0.0,0.0,10.9706,11.5501,11.9996,12.0888,12.1891,12.2597,12.2485,12.308,12.308,12.23,12.2795,12.2788,12.194,12.2428,12.2414,12.1523,12.1485,12.0985,11.9985,11.4099,10.779,0.0,9.4941,8.7574,7.9285,7.9819,7.8815,7.6654,7.9427,8.1454,8.3189,9.1355,9.6857,10.0621,10.649,10.9906,11.1598,11.2291,11.2599,11.2505,11.1994,11.1932,11.1887,11.1214,11.141,11.2219,11.3717,11.4259,11.4477,11.5079,11.5407,11.5407,11.5407,11.5407,11.5599,11.6292,11.7715,11.8792,11.8023,11.8985,11.9908,11.9215,11.7677,11.4984,11.0675,10.9406,10.6713,0.0,0.0,0.0,0.0,0.0,9.035,8.7935,0.0,0.0,7.9056,7.9781,7.9075,7.5007,7.7527,7.9179,7.8841,8.1718,8.4963,8.8307,9.466,10.0418,10.5508,10.8703,11.1117,11.2529,11.2529,11.2529,11.2529,11.2529,11.2529,11.2529,11.2529,11.2529,11.2603,11.3421,11.3309,11.2715,11.3495,11.3792,11.3792,11.3904,11.4832,11.6095,0.0,0.0,0.0,0.0,0.0,0.0,0.0,11.8879,12.1371,12.3488,12.4083,12.4083,12.36,12.3971,12.3711,12.2374,12.3025,12.3164,12.2811,12.2908,12.2812,12.2408,12.1908,12.1177,12.0292,11.5984,11.0714,0.0,0.0,9.0952,8.3601,8.0887,7.9008,7.7978,7.965,8.237,8.605,9.168,9.6844,10.1734,10.679,10.9906,11.1598,11.2406,11.2714,11.2703,11.2587,11.2737,11.2786,11.2556,11.196,11.1599,11.3078,11.39,11.4387,11.5118,11.5291,11.5407,11.5907,11.5676,11.5484,11.6292,11.7407,11.8407,11.8484,11.91,11.9792,12.0485,11.96,11.76,11.3907,11.1598,10.9175,10.6097,0.0,0.0,0.0,0.0,0.0,8.9236,0.0,8.3292,7.8053,7.7931,7.8139,7.799,7.7401,7.7312,7.7834,7.8962,8.1694,8.6449,9.1539,9.7,10.2907,10.6696,10.9706,11.1823,11.1823,11.2009,11.2529,11.2529,11.2529,11.2529,11.2529,11.2529,11.2529,11.2901,11.2826,11.2529,11.2901,11.3012,11.3012,11.3012,11.4089,11.5501,10.8633,0.0,10.7707,0.0,11.4375,11.5027,12.0383,12.1454,12.212,12.4245,12.4605,12.4542,12.386,12.4419,12.4217,12.2726,12.3347,12.3608,12.319,12.3099,12.2895,12.2626,12.189,0.0,12.0677,11.76,11.3214,10.7521,10.152,0.0,8.7926,8.318,8.1073,8.1292,8.2696,8.5606,8.9627,9.3846,9.8579,10.3489,10.7372,11.0098,11.1906,11.2791,11.3214,11.3516,11.3686,11.3898,11.3998,11.3872,11.3031,11.1981,11.3176,11.3801,11.4203,11.4793,11.4986,11.5187,11.5901,11.5676,11.5484,11.6292,11.7292,11.8292,11.86,11.91,11.9792,12.0985,12.0485,11.9208,11.6915,11.451,11.2286,11.0539,10.6591,0.0,0.0,9.844,0.0,9.0462,8.5855,8.1806,7.8833,7.7424,7.7479,7.9463,7.7281,7.6564,7.8288,7.8363,8.0489,8.5075,9.0164,9.5588,10.1421,10.5619,10.8814,11.1303,11.1303,11.1712,11.2529,11.2529,11.2529,11.2529,11.2529,11.2529,11.2529,11.2529,11.2529,11.2529,11.2529,11.2529,11.2603,11.3123,11.4015,11.5092,11.1791,11.2724,11.4382,11.9517,12.0593,12.1048,12.2036,12.2185,12.2511,12.3353,12.4178,12.4646,12.4765,12.4664,12.4325,12.3499,12.4129,12.4091,12.3333,12.3099,12.2612,0.0,0.0,12.16,12.16,11.91,11.5291,11.0175,0.0,0.0,9.1095,8.7159,8.5819,8.6814,8.9634,9.1377,9.2641,9.8143,10.2494,10.5783,10.8004,11.0406,11.2791,11.3714,11.4484,11.5324,11.5409,11.5612,11.5702,11.4963,11.4309,11.3915,11.4607,11.4187,11.3565,11.4221,11.4283,11.4516,11.5079,11.5291,11.5484,11.6292,11.7792,11.8908,11.8023,11.91,12.0292,12.0292,11.9715,11.9114,11.9206,11.9111,11.7069,11.1315,11.0385,10.822,0.0,9.8969,0.0,9.2124,8.8047,8.4592,8.2177,7.8982,7.7422,7.8239,7.6753,7.7431,8.1168,8.1356,8.2291,8.4332,9.1539,9.7334,10.1495,10.5619,10.8814,11.1303,11.1303,11.1712,11.2529,11.2529,11.2529,11.2529,11.2529,11.2529,11.2529,11.2529,11.2529,11.2529,11.2529,11.2529,11.2715,11.4424,11.5018,11.5204,11.7484,11.7884,11.8595,12.0899,12.1007,12.1031,12.1895,12.1694,12.2146,12.396,12.4019,12.4177,12.5272,12.5417,12.4815,0.0,12.4091,12.4189,0.0,12.3117,12.2918,12.2612,12.2,12.16,12.16,12.0216,11.7907,11.4484,0.0,0.0,9.3749,9.2524,9.1912,9.1935,9.3982,9.6105,9.8348,10.1683,10.4664,10.7427,10.9694,11.1522,11.2906,11.4291,11.5407,11.6099,11.6185,11.5986,11.5766,11.561,11.4341,11.3129,11.3924,11.3824,11.3647,11.4299,11.4374,11.4526,11.5179,11.5361,11.5599,11.6984,11.7407,11.7677,11.9215,11.9908,11.9985,11.8792,11.8908,11.8614,11.7026,11.7194,11.6223,11.209,10.978,10.6904,10.2584,9.7667,9.2913,8.8827,8.4257,8.0245,7.7236,7.7013,7.7422,7.8239,7.8096,7.8312,7.922,8.0338,8.2238,8.5112,9.1836,9.7112,10.0604,10.5322,10.8591,11.0523,11.1006,11.1712,11.2529,11.2529,11.2529,11.2529,11.2529,11.2529,11.2529,11.2529,11.2529,11.2529,11.2529,11.2529,11.2603,11.3123,11.4015,11.5092,12.0723,12.0793,12.11,12.1908,12.2008,12.2086,12.2414,12.2373,12.2736,12.3586,12.3802,12.4246,12.5084,12.5995,0.0,12.4365,12.4384,12.4346,12.3914,12.3106,12.2832,12.3099,12.209,12.1793,12.21,12.1216,11.9677,11.7484,11.1714,10.5597,9.925,9.798,9.7558,9.7929,9.927,10.1009,10.3094,10.5189,10.7128,10.9006,11.0776,11.2214,11.3291,11.4791,11.5792,11.6484,11.6484,11.6302,11.6061,11.5892,11.4694,11.348,11.4096,11.3961,11.371,11.4033,11.4185,11.4621,11.5719,11.5916,11.6176,11.7907,11.76,11.7407,11.8985,11.91,11.8708,11.8019,11.8086,11.7809,11.6387,11.6294,11.5419,11.2131,10.9459,10.6239,10.1734,9.6082,9.1001,8.7291,8.3552,8.0654,7.8908,7.9948,8.0691,8.058,8.0841,8.0597,7.9781,8.1103,8.3301,8.6412,9.3211,9.8523,10.209,10.5805,10.8628,11.0597,11.1415,11.2009,11.2529,11.2529,11.2529,11.2529,11.2529,11.2529,11.2529,11.2529,11.2529,11.2529,11.2529,11.2529,11.2529,11.2901,11.3829,11.5018,12.1608,12.1677,12.1908,0.0,12.3476,12.3892,12.3407,12.3902,12.3872,12.2614,12.3578,12.4478,12.4584,12.653,12.731,12.5941,0.0,0.0,12.4472,12.2891,12.2433,12.322,12.2222,12.2092,12.2908,12.21,12.0793,11.8985,11.2599,10.8482,10.6713,10.3405,10.2789,10.4289,10.4982,10.579,10.6713,10.829,10.9483,11.0291,11.1291,11.2599,11.4099,11.5099,11.5907,11.6599,11.6676,11.6694,11.6695,11.5977,11.5412,11.4793,11.4888,11.4424,11.3729,11.3635,11.4033,11.4891,11.6278,11.6595,11.6907,11.86,11.8484,11.7907,11.7792,11.7215,11.6885,11.7715,11.7225,11.6792,11.6915,11.6243,11.4476,11.1328,10.9232,10.5815,9.9403,9.4324,9.0172,8.6994,8.5409,8.4815,8.5446,8.6226,8.6115,8.4666,8.4406,8.37,8.2326,8.349,8.5526,8.8233,9.5328,10.1087,10.521,10.6919,10.8925,11.1415,11.212,11.2529,11.2529,11.2529,11.2529,11.2529,11.2529,11.2529,11.2529,11.2529,11.2529,11.2529,11.2529,11.2529,11.2603,11.3421,11.4312,11.513,0.0,0.0,12.2716,12.2908,12.31,12.3489,12.4003,12.3274,12.3012,12.3872,12.3802,12.4101,12.5312,12.6422,12.7009,12.6778,12.5977,12.5004,12.3807,12.2665,12.2404,12.319,12.2876,12.2689,12.2908,12.2716,12.11,11.81,11.5792,11.3214,11.0291,10.879,10.7982,10.7713,10.7905,10.8098,10.8406,10.9406,10.9983,11.0406,11.2483,11.3599,11.4214,11.6407,11.7292,11.76,11.8215,11.819,11.7628,11.6228,11.5412,11.4681,11.4181,11.3495,11.2863,11.3511,11.4596,11.5374,11.5104,11.5802,11.6792,11.7792,11.8908,11.9215,11.7292,11.7677,11.7999,11.6376,11.5887,11.5498,11.4619,11.369,11.2117,10.8858,10.5985,10.1987,9.6145,9.2652,8.9275,8.5409,8.5706,8.5818,8.4778,8.5409,8.5966,8.6189,8.4518,8.3849,8.4703,8.739,8.951,9.0796,9.622,10.1087,10.521,10.7514,10.9817,11.2232,11.2418,11.2529,11.2529,11.2529,11.2529,11.2529,11.2529,11.2529,11.2529,11.2529,11.2529,11.2529,11.2529,11.2529,11.2529,11.2715,11.3718,11.5018,12.2862,12.3194,12.3408,12.3408,12.3778,12.4207,12.4312,12.3694,12.3419,12.3944,12.4029,12.4292,12.5117,12.6832,12.7874,12.757,12.6535,12.5308,12.422,12.2838,12.2561,12.3683,12.3289,12.3119,12.3408,12.3101,12.16,11.8908,11.81,11.6292,11.3714,11.2099,11.0906,11.0098,11.0098,11.0098,11.0214,11.1406,11.1906,11.2099,11.3907,11.4791,11.5291,11.6715,11.7715,11.8407,11.7984,11.7875,11.7694,11.6183,11.5184,11.4575,11.4347,11.3701,11.3198,11.3718,11.4346,11.477,11.5008,11.5592,11.632,11.7516,11.91,11.9792,11.81,11.81,11.8221,11.7003,11.5782,11.4891,11.4272,11.2328,10.9715,10.6512,10.2907,9.8523,9.2765,9.0127,8.7973,8.5743,8.7267,8.8455,8.8344,8.9384,8.9496,8.8047,8.7415,8.6821,8.6189,8.9979,9.2208,9.2282,9.778,10.2387,10.5693,10.8591,11.0709,11.2009,11.2306,11.2529,11.2529,11.2529,11.2529,11.2529,11.2529,11.2529,11.2529,11.2529,11.2529,11.2529,11.2529,11.2529,11.2529,11.2529,11.3606,11.5018,12.4178,12.4311,12.4293,12.4293,12.4986,12.5415,12.494,12.4803,12.453,12.4029,12.4285,12.4652,12.4764,12.742,12.8761,12.8128,12.6908,12.5834,12.5026,12.3281,12.2901,12.4303,12.3623,12.3489,12.407,12.3284,12.2024,12.0292,11.96,11.8292,11.6484,11.4291,11.2791,11.1906,11.1906,11.1906,11.2022,11.3407,11.3984,11.4099,11.4907,11.5792,11.6484,11.6792,11.7715,11.8715,11.7484,11.7407,11.7585,11.6213,11.5307,11.4717,11.4775,11.4159,11.3606,11.3792,11.3595,11.3699,11.5221,11.5688,11.6174,11.7508,11.91,12.01,11.9292,11.86,11.8124,11.8014,11.6208,11.4695,11.4632,11.1489,10.7811,10.4505,10.0492,9.5737,9.009,8.8158,8.7304,8.7192,8.9681,9.2059,9.3768,9.492,9.4288,9.1205,9.165,9.1019,8.8604,9.2468,9.4548,9.4102,9.9601,10.391,10.6696,10.9891,11.1526,11.1526,11.2195,11.2529,11.2529,11.2529,11.2529,11.2529,11.2529,11.2529,11.2529,11.2529,11.2529,11.2529,11.2529,11.2529,11.2529,11.2529,11.3606,11.5018,12.431,12.4896,12.5216,12.5216,12.5909,12.6717,12.731,12.6331,12.569,12.6416,12.5519,12.5051,12.5759,12.7306,12.8131,12.7447,12.7646,12.7186,12.5823,12.4236,12.3378,12.3615,12.4,12.4283,12.4293,12.3394,12.2024,12.0292,12.0216,11.8908,11.6484,11.6099,11.5099,11.3599,11.3599,11.3599,11.3599,11.3907,11.3984,11.4099,11.4907,11.5792,11.6676,11.81,11.8407,11.8215,11.9292,11.8908,11.77,11.6902,11.6183,11.5475,11.5001,11.3785,11.2826,11.3606,11.3278,11.3037,11.427,11.597,11.7508,11.7669,11.91,12.01,11.9292,11.9485,11.939,11.7596,11.6284,11.5025,11.3216,11.0709,10.7811,10.4505,9.9935,9.5068,9.0016,8.9644,8.9681,8.8976,9.2914,9.6294,9.8003,9.7112,9.7037,9.8486,9.5626,9.4511,9.6071,9.6926,9.7892,9.9118,10.0789,10.391,10.8517,11.1006,11.2306,11.2306,11.2418,11.2529,11.2529,11.2529,11.2529,11.2529,11.2529,11.2529,11.2529,11.2529,11.2529,11.2529,11.2529,11.2529,11.2529,11.2529,11.3606,11.4907,12.5583,12.6112,12.6167,12.6111,12.6881,12.7622,12.7909,12.704,12.6517,12.6896,12.6076,12.5569,12.5978,12.7281,12.8055,12.7766,12.8127,12.7569,12.6018,12.4376,12.3509,12.3347,12.4091,12.4422,12.4199,12.2879,12.16,12.0292,12.0793,11.9908,11.7907,11.7907,11.6984,11.5291,11.5291,11.5099,11.4714,11.5176,11.5291,11.5407,11.5792,11.6676,11.7907,11.8292,11.8715,11.91,11.8985,11.8484,11.7708,11.6896,11.6223,11.5533,11.4816,11.3883,11.2962,11.3134,11.3105,11.3298,11.4249,11.624,11.7998,11.8439,11.9792,12.0908,12.0485,12.0408,11.9889,11.8583,11.7004,11.5328,11.3514,11.0114,10.6622,10.3799,9.7669,9.2542,9.0276,8.9533,8.9719,9.113,9.5217,9.8598,10.0195,9.9303,9.8895,9.9601,9.7483,9.648,9.7149,9.8486,9.9935,10.1495,10.4096,10.6994,11.0189,11.1712,11.2529,11.2529,11.2529,11.2529,11.2529,11.2529,11.2529,11.2529,11.2529,11.2529,11.2529,11.2529,11.2529,11.2529,11.2529,11.2529,11.2603,11.3012,11.3718,11.4424,12.6784,12.6972,12.7005,12.7006,12.7631,12.8285,12.8679,12.8114,12.7737,12.8117,12.7183,12.6603,12.6775,12.7925,12.8544,12.8268,12.8465,12.7713,12.5813,12.4515,12.361,12.3186,12.3982,12.4394,12.4091,12.2793,12.1677,12.06,12.1293,12.0793,11.9408,11.9408,11.86,11.71,11.71,11.6792,11.6215,11.6599,11.6792,11.6792,11.6599,11.7407,11.8715,11.81,11.86,11.96,11.8292,11.7715,11.7407,11.6984,11.6195,11.5397,11.4876,11.4175,11.3406,11.2691,11.2923,11.3368,11.4091,11.6,11.801,11.87,12.0064,12.1381,12.16,12.11,12.0312,11.9381,11.7699,11.5826,11.3775,11.0083,10.6288,10.3464,9.6926,9.2059,9.1688,9.0573,9.087,9.3768,9.7557,10.0492,10.1904,10.1718,10.1198,10.0604,9.9935,9.9229,9.8375,10.0307,10.2201,10.3799,10.7291,10.9817,11.1006,11.2009,11.2529,11.2529,11.2529,11.2529,11.2529,11.2529,11.2529,11.2529,11.2529,11.2529,11.2529,11.2529,11.2529,11.2529,11.2529,11.2529,11.2603,11.3309,11.3606,11.3904,12.7026,12.7097,12.7197,12.787,12.8101,12.8901,13.1064,13.0069,12.9697,13.1301,12.9489,12.8431,12.9222,12.9294,12.9114,12.8423,12.9003,12.806,12.5126,12.484,12.3971,12.2386,12.369,12.4394,12.4091,12.3985,12.3101,12.1485,12.16,12.11,12.0216,12.0216,11.9715,11.8908,11.8908,11.8908,11.8792,11.8023,11.7715,11.76,11.6792,11.71,11.7907,11.7792,11.7907,11.8023,11.7792,11.7292,11.6676,11.7484,11.6694,11.5512,11.5735,11.4732,11.3406,11.2691,11.2455,11.2691,11.3406,11.5299,11.733,11.801,11.9381,12.0806,12.139,12.16,12.0887,11.8797,11.8104,11.6805,11.3296,11.0983,10.8391,10.454,10.0195,9.6814,9.5254,9.4957,9.5514,9.7334,10.0418,10.2796,10.3687,10.4393,10.4802,10.4802,10.469,10.4319,10.3501,10.4319,10.5619,10.7217,10.9,11.0114,11.0189,11.1712,11.2529,11.2529,11.2529,11.2529,11.2529,11.2529,11.2529,11.2529,11.2529,11.2529,11.2529,11.2529,11.2529,11.2529,11.2529,11.2529,11.2529,11.2603,11.3123,11.3718,12.6988,12.7222,12.741,12.7994,12.8572,12.942,13.0806,13.0508,13.0292,13.1018,12.991,12.9151,12.9549,12.9078,12.8584,12.8268,12.7731,12.6607,12.4914,12.4269,12.3711,12.3025,12.3419,12.3903,12.4207,12.4097,12.3293,12.16,12.21,12.1716,12.0292,12.0908,12.0677,11.9792,11.9792,11.9292,11.8292,11.7907,11.7215,11.6292,11.6407,11.6676,11.71,11.76,11.7792,11.7792,11.7792,11.7215,11.6599,11.6907,11.631,11.5512,11.5674,11.4666,11.3406,11.2691,11.2529,11.2609,11.2809,11.4193,11.6036,11.7689,11.8868,12.0102,12.1313,12.16,12.1217,11.9882,11.8776,11.7211,11.4416,11.1647,10.9098,10.6623,10.2015,9.8783,9.9118,9.8338,9.8486,10.0604,10.2907,10.4616,10.5396,10.5322,10.521,10.521,10.521,10.5099,10.4802,10.5508,10.6213,10.6808,10.8517,10.9817,11.082,11.1935,11.2529,11.2529,11.2529,11.2529,11.2529,11.2529,11.2529,11.2529,11.2529,11.2529,11.2529,11.2529,11.2195,11.1823,11.2306,11.2195,11.1897,11.2901,11.3198,11.3012,12.7224,12.7303,12.7611,12.8129,12.9016,12.9897,13.0778,13.0996,13.1103,13.1276,13.0503,12.9885,13.0223,12.9474,12.8928,12.8662,12.7656,12.6364,12.4951,12.3711,12.321,12.3424,12.3309,12.359,12.4273,12.4184,12.3532,12.1985,12.2601,12.21,12.0677,12.1293,12.1293,12.0677,12.0677,12.01,11.8985,11.8715,11.7792,11.6484,11.6792,11.6715,11.6599,11.7215,11.7407,11.7407,11.7407,11.6984,11.6484,11.6792,11.6407,11.5764,11.5773,11.4606,11.3076,11.2985,11.2715,11.2529,11.2529,11.3257,11.4638,11.6599,11.8011,11.9291,12.0607,12.1313,12.1304,12.0277,11.9222,11.7726,11.5215,11.2894,11.0614,10.8372,10.469,10.2387,10.3019,10.209,10.209,10.4022,10.5322,10.6213,10.6696,10.6288,10.5991,10.5991,10.5991,10.5991,10.5991,10.6213,10.6511,10.6808,10.8182,10.9408,11.0523,11.1303,11.1897,11.212,11.1897,11.2009,11.2529,11.2232,11.2306,11.2529,11.2529,11.2529,11.2529,11.2529,11.2009,11.1415,11.2195,11.2009,11.1415,11.2603,11.2603,11.2195,12.7381,12.7381,12.7612,12.8379,12.919,13.0185,13.1693,13.1915,13.2214,13.2923,13.162,13.0912,13.159,13.0988,13.0312,12.9619,12.9511,12.8098,12.5039,12.3191,12.2614,12.3424,12.3387,12.3714,12.4273,12.4331,12.3808,12.2908,12.2908,12.2485,12.16,12.16,12.16,12.16,12.16,12.16,12.1485,12.0677,11.9792,11.8985,11.8215,11.7292,11.6484,11.6484,11.6484,11.6484,11.6484,11.6484,11.6599,11.7484,11.7215,11.6377,11.5914,11.4296,11.2715,11.3495,11.3198,11.2529,11.2529,11.2529,11.2952,11.4418,11.662,11.8483,11.91,12.053,12.1073,11.9604,11.9226,11.8192,11.5284,11.4619,11.3298,10.9453,10.8925,10.8294,10.6696,10.6399,10.6696,10.7514,10.7625,10.7625,10.7625,10.7625,10.7625,10.7625,10.7625,10.7625,10.7625,10.6808,10.6808,10.7625,10.8405,10.8888,10.8888,10.9706,11.0523,11.1303,11.0523,11.1006,11.2529,11.1712,11.1712,11.2529,11.2529,11.2529,11.2529,11.2529,11.2009,11.1415,11.2195,11.2009,11.1303,11.1303,11.1303,11.1192,12.7381,12.7884,12.8501,12.919,13.0001,13.0924,13.1864,13.2002,13.2031,13.2214,13.1692,13.1524,13.1718,13.0988,13.0122,12.8709,12.7569,12.6059,12.401,12.2865,12.2614,12.3424,12.3387,12.3651,12.4357,12.4287,12.4114,12.3716,12.3216,12.2485,12.16,12.16,12.16,12.16,12.16,12.1293,12.0677,12.0408,11.91,11.7407,11.8292,11.7792,11.6599,11.7907,11.8292,11.8215,11.76,11.7407,11.7407,11.6984,11.6085,11.5018,11.4488,11.4711,11.4907,11.4089,11.3606,11.3309,11.2715,11.2529,11.2952,11.4418,11.5684,11.7002,11.8909,11.9609,11.9882,12.0086,11.8724,11.7097,11.5931,11.4625,11.3098,11.0902,11.0597,11.0226,10.9111,10.9,10.9297,11.0114,10.9223,10.8703,10.9297,10.8294,10.7625,10.7625,10.7625,10.7922,10.8517,10.7699,10.7402,10.7625,10.7328,10.7105,10.7105,10.9706,11.082,11.0523,11.1415,11.1712,11.1712,11.2009,11.2306,11.2529,11.2529,11.2529,11.2529,11.2529,11.2009,11.1415,11.2195,11.2009,11.1415,11.1897,11.1823,11.1303,12.7884,12.8502,12.9275,12.9698,13.0198,13.0816,13.1614,13.1594,13.1578,13.1877,13.15,13.138,13.1718,13.0988,13.007,12.881,12.6913,12.5347,12.3987,12.3212,12.2869,12.3424,12.3111,12.3309,12.3982,12.3901,12.3815,12.3727,12.3197,12.2485,12.16,12.16,12.16,12.16,12.16,12.1293,12.0793,12.0408,11.9408,11.81,11.8792,11.8484,11.76,11.8715,11.8908,11.8484,11.8023,11.8023,11.81,11.6907,11.5802,11.5032,11.5058,11.5372,11.5501,11.4609,11.4015,11.3606,11.2715,11.2529,11.2683,11.3673,11.4876,11.6181,11.763,11.8485,11.9306,11.9895,11.8294,11.6564,11.6087,11.4901,11.3485,11.2018,11.2306,11.2418,11.1229,11.1303,11.1526,11.1303,11.0189,10.9408,10.9594,10.8405,10.7625,10.7625,10.7922,10.822,10.8405,10.7922,10.7625,10.7625,10.6808,10.6399,10.6399,10.8703,10.9594,10.9111,11.0114,11.082,11.1303,11.1526,11.1897,11.2529,11.2529,11.2529,11.2529,11.2529,11.2009,11.1415,11.2195,11.2009,11.1415,11.1823,11.1712,11.1229,12.8618,12.9315,12.9895,13.0011,13.0011,13.028,13.1009,13.0996,13.117,13.1809,13.1079,13.0893,13.1513,13.0891,13.0123,12.9184,12.6881,12.5292,12.4707,12.3916,12.3464,12.3464,12.278,12.2735,12.3269,12.3114,12.2989,12.2994,12.2806,12.2284,12.16,12.16,12.16,12.16,12.1485,12.1485,12.1485,12.0677,12.0292,12.0216,11.96,11.9292,11.9215,11.9292,11.8908,11.8215,11.8215,11.86,11.9023,11.7208,11.6399,11.6232,11.6919,11.6288,11.5204,11.513,11.4498,11.3718,11.2901,11.2715,11.2603,11.2603,11.4153,11.5803,11.5791,11.7416,11.8864,11.9228,11.7802,11.6485,11.5983,11.5241,11.4085,11.2683,11.3792,11.4201,11.2715,11.3198,11.3123,11.1526,11.0597,10.9817,10.9,10.822,10.7699,10.7811,10.8517,10.8591,10.7811,10.7625,10.7625,10.7514,10.6696,10.6288,10.6213,10.6994,10.7402,10.7514,10.7699,10.9,11.1192,11.0523,11.1006,11.2529,11.2529,11.2529,11.2529,11.2529,11.212,11.1526,11.2195,11.212,11.1415,11.1415,11.1415,11.1117,12.8696,12.9315,13.0088,13.0785,13.0901,13.121,13.1982,13.2091,13.2,13.198,13.1212,13.0602,13.0718,13.0001,12.8893,12.7523,12.5779,12.4937,12.5437,12.469,12.434,12.434,12.3577,12.3025,12.253,12.1806,12.185,12.2994,12.1692,12.1208,12.16,12.16,12.16,12.16,12.0908,12.0985,12.1485,12.0677,12.0292,12.0292,12.0908,12.06,12.01,12.0793,12.1408,12.1716,12.0985,12.0908,12.0707,11.8511,11.7708,11.7633,11.7296,11.715,11.6801,11.6095,11.539,11.4721,11.4498,11.4015,11.3495,11.3495,11.4721,11.5856,11.5777,11.6507,11.7492,11.8265,11.6735,11.5227,11.5236,11.3957,11.2952,11.2566,11.2826,11.2901,11.2603,11.2715,11.2418,11.1415,11.0597,10.9817,10.9,10.8703,10.8888,10.952,10.9111,10.8814,10.8628,10.7997,10.7328,10.6696,10.5916,10.521,10.4505,10.5322,10.6028,10.6696,10.8628,10.9817,11.0411,11.082,11.16,11.2529,11.2529,11.2529,11.2529,11.2529,11.2418,11.2306,11.2418,11.2418,11.2232,11.2232,11.1823,11.1192,12.8889,12.9586,13.0707,13.1094,13.0901,13.1017,13.2293,13.2018,13.1812,13.2064,13.1306,13.0602,13.0525,12.9767,12.8575,12.6912,12.6013,12.5631,12.5592,12.4904,12.4508,12.4508,12.3501,12.2735,12.2262,12.1048,12.1133,12.2519,12.1599,12.1281,12.16,12.16,12.1408,12.0985,12.0485,12.06,12.0908,12.01,12.0216,12.0908,12.0985,12.0985,12.0908,12.0985,12.1293,12.1485,12.0716,12.0408,12.0391,12.0002,11.9115,11.82,11.7898,11.7558,11.721,11.643,11.5613,11.4907,11.4498,11.4127,11.3792,11.3792,11.4906,11.5911,11.539,11.6094,11.7011,11.7594,11.6238,11.4758,11.5031,11.3606,11.2529,11.2529,11.2826,11.3012,11.2603,11.2901,11.2529,11.0894,11.0411,10.9817,10.9,10.9594,10.9891,10.9594,10.952,10.9111,10.8294,10.7811,10.7402,10.6994,10.5805,10.4987,10.4616,10.4987,10.5396,10.5916,10.7922,10.9297,11.0114,11.0523,11.1415,11.2529,11.212,11.1897,11.1897,11.1526,11.16,11.1897,11.1897,11.2195,11.2529,11.2529,11.2009,11.1303,12.9392,13.0204,13.121,13.1404,13.0707,13.0707,13.2293,13.1786,13.1508,13.1987,13.1192,13.052,13.0282,12.9413,12.8328,12.6912,12.6591,12.6337,12.5612,12.4904,12.4365,12.4265,12.3073,12.2397,12.23,12.0888,12.0781,12.2167,12.1682,12.1479,12.1793,12.1677,12.11,12.0292,12.0292,12.0292,12.0292,11.96,12.0216,12.1485,12.0793,12.0985,12.1485,12.06,12.0408,12.0408,11.9792,11.96,11.9891,12.1227,12.022,11.8428,11.8499,11.7935,11.7099,11.643,11.5613,11.4907,11.4387,11.4201,11.4201,11.4201,11.5162,11.6032,11.5207,11.6082,11.699,11.7001,11.5806,11.4796,11.4765,11.3532,11.2529,11.2529,11.3012,11.3123,11.2418,11.2826,11.2418,11.0189,10.9891,10.9706,10.9297,11.0523,11.0709,10.9408,10.9817,10.9408,10.7922,10.7588,10.7328,10.7217,10.5805,10.4987,10.4987,10.5099,10.5285,10.5396,10.6919,10.8405,10.9891,11.0003,11.082,11.212,11.1526,11.1229,11.1006,11.0411,11.0523,11.1117,11.1229,11.1712,11.2306,11.2418,11.212,11.16,13.0978,13.0978,13.1404,13.2177,13.1597,13.1404,13.2293,13.2409,13.2211,13.211,13.0661,12.9719,12.9371,12.8014,12.7002,12.6695,12.61,12.5708,12.5592,12.4904,12.4195,12.3616,12.3384,12.3025,12.2262,12.1371,12.1566,12.303,12.0859,12.0778,12.2716,12.1985,12.11,12.0292,12.0292,12.0292,12.0292,12.0216,12.0677,12.16,12.1485,12.1485,12.1485,12.06,12.0793,12.1408,12.1293,12.1716,12.2198,12.1112,12.0105,11.9185,11.8688,11.7524,11.6318,11.6207,11.5613,11.513,11.5724,11.591,11.591,11.591,11.6512,11.7003,11.6222,11.6592,11.7001,11.6327,11.5466,11.4845,11.4089,11.3198,11.2529,11.2529,11.2009,11.16,11.1526,11.1006,11.0226,10.9185,10.9111,10.9594,11.0894,11.1192,11.1229,11.1006,11.0411,10.9706,10.8814,10.7328,10.6213,10.5508,10.4616,10.4207,10.4207,10.4913,10.5508,10.6213,10.7217,10.8108,10.9111,10.9817,11.0226,11.0523,11.1006,11.0894,11.03,11.0114,11.0189,11.03,11.1006,11.1415,11.1526,11.2232,11.2418,11.2418,13.0011,13.0514,13.121,13.1094,13.1094,13.1481,13.2409,13.21,13.1711,13.1503,13.0412,12.9319,12.8709,12.7496,12.6678,12.6678,12.5969,12.5592,12.5592,12.447,12.369,12.3387,12.2988,12.2614,12.2262,12.1482,12.163,12.2593,12.101,12.0616,12.1578,12.1573,12.0908,11.96,11.96,11.9408,11.8908,11.8908,11.9715,12.0908,12.0908,12.1177,12.1485,12.01,12.01,12.0908,12.0908,12.1408,12.2092,12.1398,12.0398,11.9402,11.8576,11.7381,11.6095,11.5724,11.5315,11.5092,11.5427,11.591,11.6207,11.6207,11.6801,11.7321,11.7024,11.7084,11.7143,11.6322,11.5186,11.4201,11.3904,11.2715,11.1823,11.1823,11.1192,11.0597,11.0597,11.0709,11.0597,11.03,10.9817,11.0003,11.1192,11.1712,11.16,11.0709,11.03,10.9297,10.7588,10.6808,10.6028,10.521,10.4393,10.3984,10.3984,10.4802,10.5396,10.5693,10.6994,10.8108,10.8888,10.9297,10.9706,11.0114,11.0003,10.9817,10.9408,10.8925,10.9,10.952,10.9817,11.0226,11.0709,11.1006,11.1192,11.1192]},{"header":{"parameterUnit":"m.s-1","parameterCategory":1,"la1":30.6,"la2":28.766,"lo1":-90.7593,"lo2":-88.6598,"dy":0.0162,"dx":0.0183,"nx":116,"ny":114,"refTime":"2023-10-14T00:00:00:Z","depth":0,"parameterNumber":3,"parameterNumberName":"V-component_of_WINDS"},"data":[0.0,0.0,0.0,0.0,0.0,0.0,0.0,0.0,0.0,0.0,0.0,0.0,0.0,0.0,0.0,0.0,0.0,0.0,0.0,0.0,0.0,0.0,0.0,0.0,0.0,0.0,0.0,0.0,0.0,0.0,0.0,0.0,0.0,0.0,0.0,0.0,0.0,0.0,0.0,0.0,0.0,0.0,0.0,0.0,0.0,0.0,0.0,0.0,0.0,0.0,0.0,0.0,0.0,0.0,0.0,0.0,0.0,0.0,0.0,0.0,0.0,0.0,0.0,0.0,0.0,0.0,0.0,0.0,0.0,0.0,0.0,0.0,0.0,0.0,0.0,0.0,0.0,0.0,0.0,0.0,0.0,0.0,0.0,0.0,0.0,0.0,0.0,0.0,0.0,0.0,0.0,0.0,0.0,0.0,0.0,0.0,0.0,0.0,0.0,0.0,0.0,0.0,0.0,0.0,0.0,0.0,0.0,0.0,0.0,0.0,0.0,0.0,0.0,0.0,0.0,0.0,0.0,0.0,0.0,0.0,0.0,0.0,0.0,0.0,0.0,0.0,0.0,0.0,0.0,0.0,0.0,0.0,0.0,0.0,0.0,0.0,0.0,0.0,0.0,0.0,0.0,0.0,0.0,0.0,0.0,0.0,0.0,0.0,0.0,0.0,0.0,0.0,0.0,0.0,0.0,0.0,0.0,0.0,0.0,0.0,0.0,0.0,0.0,0.0,0.0,0.0,0.0,0.0,0.0,0.0,0.0,0.0,0.0,0.0,0.0,0.0,0.0,0.0,0.0,0.0,0.0,0.0,0.0,0.0,0.0,0.0,0.0,0.0,0.0,0.0,0.0,0.0,0.0,0.0,0.0,0.0,0.0,0.0,0.0,0.0,0.0,0.0,0.0,0.0,0.0,0.0,0.0,0.0,0.0,0.0,0.0,0.0,0.0,0.0,0.0,0.0,0.0,0.0,0.0,0.0,0.0,0.0,0.0,0.0,0.0,0.0,0.0,0.0,0.0,0.0,0.0,0.0,0.0,0.0,0.0,0.0,0.0,0.0,0.0,0.0,0.0,0.0,0.0,0.0,0.0,0.0,0.0,0.0,0.0,0.0,0.0,0.0,0.0,0.0,0.0,0.0,0.0,0.0,0.0,0.0,0.0,0.0,0.0,0.0,0.0,0.0,0.0,0.0,0.0,0.0,0.0,0.0,0.0,0.0,0.0,0.0,0.0,0.0,0.0,0.0,0.0,0.0,0.0,0.0,0.0,0.0,0.0,0.0,0.0,0.0,0.0,0.0,0.0,0.0,0.0,0.0,0.0,0.0,0.0,0.0,0.0,0.0,0.0,0.0,0.0,0.0,0.0,0.0,0.0,0.0,0.0,0.0,0.0,0.0,0.0,0.0,0.0,0.0,0.0,0.0,0.0,0.0,0.0,0.0,0.0,0.0,0.0,0.0,0.0,0.0,0.0,0.0,0.0,0.0,0.0,0.0,0.0,0.0,0.0,0.0,0.0,0.0,0.0,0.0,0.0,0.0,0.0,0.0,0.0,0.0,0.0,0.0,0.0,0.0,0.0,0.0,0.0,0.0,0.0,0.0,0.0,0.0,0.0,0.0,0.0,0.0,0.0,0.0,0.0,0.0,0.0,0.0,0.0,0.0,0.0,0.0,0.0,0.0,0.0,0.0,0.0,0.0,0.0,0.0,0.0,0.0,0.0,0.0,0.0,0.0,0.0,0.0,0.0,0.0,0.0,0.0,0.0,0.0,0.0,0.0,0.0,0.0,0.0,0.0,0.0,0.0,0.0,0.0,0.0,0.0,0.0,0.0,0.0,0.0,0.0,0.0,0.0,0.0,0.0,0.0,0.0,0.0,0.0,0.0,0.0,0.0,0.0,0.0,0.0,0.0,0.0,0.0,0.0,0.0,0.0,0.0,0.0,0.0,0.0,0.0,0.0,0.0,0.0,0.0,0.0,0.0,0.0,0.0,0.0,0.0,0.0,0.0,0.0,0.0,0.0,0.0,0.0,0.0,0.0,0.0,0.0,0.0,0.0,0.0,0.0,0.0,0.0,0.0,0.0,0.0,0.0,0.0,0.0,0.0,0.0,0.0,0.0,0.0,0.0,0.0,0.0,0.0,0.0,0.0,0.0,0.0,0.0,0.0,0.0,0.0,0.0,0.0,0.0,0.0,0.0,0.0,0.0,0.0,0.0,0.0,0.0,0.0,0.0,0.0,0.0,0.0,0.0,0.0,0.0,0.0,0.0,0.0,0.0,0.0,0.0,0.0,0.0,0.0,0.0,0.0,0.0,0.0,0.0,0.0,0.0,0.0,0.0,0.0,0.0,0.0,0.0,0.0,0.0,0.0,0.0,0.0,0.0,0.0,0.0,0.0,0.0,0.0,0.0,0.0,0.0,0.0,0.0,0.0,0.0,0.0,0.0,0.0,0.0,0.0,0.0,0.0,0.0,0.0,0.0,0.0,0.0,0.0,0.0,0.0,0.0,0.0,0.0,0.0,0.0,0.0,0.0,0.0,0.0,0.0,0.0,0.0,0.0,0.0,0.0,0.0,0.0,0.0,0.0,0.0,0.0,0.0,0.0,0.0,0.0,0.0,0.0,0.0,0.0,0.0,0.0,0.0,0.0,0.0,0.0,0.0,0.0,0.0,0.0,0.0,0.0,0.0,0.0,0.0,0.0,0.0,0.0,0.0,0.0,0.0,0.0,0.0,0.0,0.0,0.0,0.0,0.0,0.0,0.0,0.0,0.0,0.0,0.0,0.0,0.0,0.0,0.0,0.0,0.0,0.0,0.0,0.0,0.0,0.0,0.0,0.0,0.0,0.0,0.0,0.0,0.0,0.0,0.0,0.0,0.0,0.0,0.0,0.0,0.0,0.0,0.0,0.0,0.0,0.0,0.0,0.0,0.0,0.0,0.0,0.0,0.0,0.0,0.0,0.0,0.0,0.0,0.0,0.0,0.0,0.0,0.0,0.0,0.0,0.0,0.0,0.0,0.0,0.0,0.0,0.0,0.0,0.0,0.0,0.0,0.0,0.0,0.0,0.0,0.0,0.0,0.0,0.0,0.0,0.0,0.0,0.0,0.0,0.0,0.0,0.0,0.0,0.0,0.0,0.0,0.0,0.0,0.0,0.0,0.0,0.0,0.0,0.0,0.0,0.0,0.0,0.0,0.0,0.0,0.0,0.0,0.0,0.0,0.0,0.0,0.0,0.0,0.0,0.0,0.0,0.0,0.0,0.0,0.0,0.0,0.0,0.0,0.0,0.0,0.0,0.0,0.0,0.0,0.0,0.0,0.0,0.0,0.0,0.0,0.0,0.0,0.0,0.0,0.0,0.0,0.0,0.0,0.0,0.0,0.0,0.0,0.0,0.0,0.0,0.0,0.0,0.0,0.0,0.0,0.0,0.0,0.0,0.0,0.0,0.0,0.0,0.0,0.0,0.0,0.0,0.0,0.0,0.0,0.0,0.0,0.0,0.0,0.0,0.0,0.0,0.0,0.0,0.0,0.0,0.0,0.0,0.0,0.0,0.0,0.0,0.0,0.0,0.0,0.0,0.0,0.0,0.0,0.0,0.0,0.0,0.0,0.0,0.0,0.0,0.0,0.0,0.0,0.0,0.0,0.0,0.0,0.0,0.0,0.0,0.0,0.0,0.0,0.0,0.0,0.0,0.0,0.0,0.0,0.0,0.0,0.0,0.0,0.0,0.0,0.0,0.0,0.0,0.0,0.0,0.0,0.0,0.0,0.0,0.0,0.0,0.0,0.0,0.0,0.0,0.0,0.0,0.0,0.0,0.0,0.0,0.0,0.0,0.0,0.0,0.0,0.0,0.0,0.0,0.0,0.0,0.0,0.0,0.0,0.0,0.0,0.0,0.0,0.0,0.0,0.0,0.0,0.0,0.0,0.0,0.0,0.0,0.0,0.0,0.0,0.0,0.0,0.0,0.0,0.0,0.0,0.0,0.0,0.0,0.0,0.0,0.0,0.0,0.0,0.0,0.0,0.0,0.0,0.0,0.0,0.0,0.0,0.0,0.0,0.0,0.0,0.0,0.0,0.0,0.0,0.0,0.0,0.0,0.0,0.0,0.0,0.0,0.0,0.0,0.0,0.0,0.0,0.0,0.0,0.0,0.0,0.0,0.0,0.0,0.0,0.0,0.0,0.0,0.0,0.0,0.0,0.0,0.0,0.0,0.0,0.0,0.0,0.0,0.0,0.0,0.0,0.0,0.0,0.0,0.0,0.0,0.0,0.0,0.0,0.0,0.0,0.0,0.0,0.0,0.0,0.0,0.0,0.0,0.0,0.0,0.0,0.0,0.0,0.0,0.0,0.0,0.0,0.0,0.0,0.0,0.0,0.0,0.0,0.0,0.0,0.0,0.0,0.0,0.0,0.0,0.0,0.0,0.0,0.0,0.0,0.0,0.0,0.0,0.0,0.0,0.0,0.0,0.0,0.0,0.0,0.0,0.0,0.0,0.0,0.0,0.0,0.0,0.0,0.0,0.0,0.0,0.0,0.0,0.0,0.0,0.0,0.0,0.0,0.0,0.0,0.0,0.0,0.0,0.0,0.0,0.0,0.0,0.0,0.0,0.0,0.0,0.0,0.0,0.0,0.0,0.0,0.0,0.0,0.0,0.0,0.0,0.0,0.0,0.0,0.0,0.0,0.0,0.0,0.0,0.0,0.0,0.0,0.0,0.0,0.0,0.0,0.0,0.0,0.0,0.0,0.0,0.0,0.0,0.0,0.0,0.0,0.0,0.0,0.0,0.0,0.0,0.0,0.0,0.0,0.0,0.0,0.0,0.0,0.0,0.0,0.0,0.0,0.0,0.0,0.0,0.0,0.0,0.0,0.0,0.0,0.0,0.0,0.0,0.0,0.0,0.0,0.0,0.0,0.0,0.0,0.0,0.0,0.0,0.0,0.0,0.0,0.0,0.0,0.0,0.0,0.0,0.0,0.0,0.0,0.0,0.0,0.0,0.0,0.0,0.0,0.0,0.0,0.0,0.0,0.0,0.0,0.0,0.0,0.0,0.0,0.0,0.0,0.0,0.0,0.0,0.0,0.0,0.0,0.0,0.0,0.0,0.0,0.0,0.0,0.0,0.0,0.0,0.0,0.0,0.0,0.0,0.0,0.0,0.0,0.0,0.0,0.0,0.0,0.0,0.0,0.0,0.0,0.0,0.0,0.0,0.0,0.0,0.0,0.0,0.0,0.0,0.0,0.0,0.0,0.0,0.0,0.0,0.0,0.0,0.0,0.0,0.0,0.0,0.0,0.0,0.0,0.0,0.0,0.0,0.0,0.0,0.0,0.0,0.0,0.0,0.0,0.0,0.0,0.0,0.0,0.0,0.0,0.0,0.0,0.0,0.0,0.0,0.0,0.0,0.0,0.0,0.0,0.0,0.0,0.0,0.0,0.0,0.0,0.0,0.0,0.0,0.0,0.0,0.0,0.0,0.0,0.0,0.0,0.0,0.0,0.0,0.0,0.0,0.0,0.0,0.0,0.0,0.0,0.0,0.0,0.0,0.0,0.0,0.0,0.0,0.0,0.0,0.0,0.0,0.0,0.0,0.0,0.0,0.0,0.0,0.0,0.0,0.0,0.0,0.0,0.0,0.0,0.0,0.0,0.0,0.0,0.0,0.0,0.0,0.0,0.0,0.0,0.0,0.0,0.0,0.0,0.0,0.0,0.0,0.0,0.0,0.0,0.0,0.0,0.0,0.0,0.0,0.0,0.0,0.0,0.0,0.0,0.0,0.0,0.0,0.0,0.0,0.0,0.0,0.0,0.0,0.0,0.0,0.0,0.0,0.0,0.0,0.0,0.0,0.0,0.0,0.0,0.0,0.0,0.0,0.0,0.0,0.0,0.0,0.0,0.0,0.0,0.0,0.0,0.0,0.0,0.0,0.0,0.0,0.0,0.0,0.0,0.0,0.0,0.0,0.0,0.0,0.0,0.0,0.0,0.0,0.0,0.0,0.0,0.0,0.0,0.0,0.0,0.0,0.0,0.0,0.0,0.0,0.0,0.0,0.0,0.0,0.0,0.0,0.0,0.0,0.0,0.0,0.0,0.0,0.0,0.0,0.0,-1.9707,0.0,0.0,0.0,0.0,0.0,0.0,0.0,0.0,0.0,0.0,0.0,0.0,0.0,0.0,0.0,0.0,0.0,0.0,0.0,0.0,0.0,0.0,0.0,0.0,0.0,0.0,0.0,0.0,0.0,0.0,0.0,0.0,0.0,0.0,0.0,0.0,0.0,0.0,0.0,0.0,0.0,0.0,0.0,0.0,0.0,0.0,0.0,0.0,0.0,0.0,0.0,0.0,0.0,0.0,0.0,0.0,0.0,0.0,0.0,0.0,0.0,0.0,0.0,0.0,0.0,0.0,0.0,0.0,0.0,0.0,0.0,0.0,0.0,0.0,0.0,0.0,0.0,0.0,0.0,0.0,0.0,0.0,0.0,0.0,0.0,0.0,0.0,0.0,0.0,0.0,0.0,0.0,0.0,0.0,0.0,0.0,0.0,0.0,0.0,0.0,0.0,0.0,0.0,0.0,0.0,0.0,0.0,0.0,0.0,0.0,0.0,0.0,0.0,0.0,0.0,0.0,-2.0712,0.0,0.0,0.0,0.0,0.0,0.0,0.0,0.0,0.0,0.0,0.0,0.0,0.0,0.0,0.0,0.0,0.0,0.0,0.0,0.0,0.0,0.0,0.0,0.0,0.0,0.0,0.0,0.0,0.0,0.0,0.0,0.0,0.0,0.0,0.0,0.0,0.0,0.0,0.0,0.0,0.0,0.0,0.0,0.0,0.0,0.0,0.0,0.0,0.0,0.0,0.0,0.0,0.0,0.0,0.0,0.0,0.0,0.0,0.0,0.0,0.0,0.0,0.0,0.0,0.0,0.0,0.0,0.0,0.0,0.0,0.0,0.0,0.0,0.0,0.0,0.0,0.0,0.0,0.0,0.0,0.0,0.0,0.0,0.0,0.0,0.0,0.0,0.0,0.0,0.0,0.0,0.0,0.0,0.0,0.0,0.0,0.0,0.0,0.0,0.0,0.0,0.0,0.0,0.0,0.0,0.0,0.0,0.0,-2.4395,-2.483,-2.524,-2.5023,-2.4951,-2.4939,-2.384,-2.2621,-2.1414,0.0,0.0,0.0,0.0,0.0,0.0,0.0,0.0,0.0,0.0,0.0,0.0,0.0,0.0,0.0,0.0,0.0,0.0,0.0,0.0,0.0,0.0,0.0,0.0,0.0,0.0,0.0,0.0,0.0,0.0,0.0,0.0,0.0,0.0,0.0,0.0,0.0,0.0,0.0,0.0,0.0,0.0,0.0,0.0,0.0,0.0,0.0,0.0,0.0,0.0,0.0,0.0,0.0,0.0,0.0,0.0,0.0,0.0,0.0,0.0,0.0,0.0,0.0,0.0,0.0,0.0,0.0,0.0,0.0,0.0,0.0,0.0,0.0,0.0,0.0,0.0,0.0,0.0,0.0,0.0,0.0,0.0,0.0,0.0,0.0,0.0,0.0,-2.1523,-2.2071,0.0,0.0,0.0,0.0,0.0,0.0,0.0,0.0,0.0,0.0,0.0,0.0,0.0,-2.4502,-2.4413,-2.5252,-2.5784,-2.5868,-2.7063,-2.7667,-2.7727,-2.7691,-2.7811,-2.8029,-2.786,0.0,-2.2754,-2.2331,0.0,0.0,0.0,0.0,0.0,0.0,0.0,0.0,0.0,0.0,0.0,0.0,0.0,0.0,0.0,0.0,0.0,0.0,0.0,0.0,0.0,0.0,0.0,0.0,0.0,0.0,0.0,0.0,0.0,0.0,0.0,0.0,0.0,0.0,0.0,0.0,0.0,0.0,0.0,0.0,0.0,0.0,0.0,0.0,0.0,0.0,0.0,0.0,0.0,0.0,0.0,0.0,0.0,0.0,0.0,0.0,0.0,0.0,0.0,0.0,0.0,0.0,0.0,0.0,0.0,0.0,0.0,0.0,0.0,0.0,0.0,0.0,0.0,0.0,0.0,0.0,0.0,0.0,0.0,0.0,0.0,0.0,0.0,0.0,0.0,-2.1764,-2.2645,-2.2231,-2.3033,-2.3247,0.0,0.0,0.0,0.0,0.0,0.0,0.0,0.0,0.0,-2.6205,-2.6648,-2.7182,-2.7671,-2.8411,-2.8837,-2.9127,-2.9719,-3.0226,-3.066,-3.0358,-3.0371,-3.0624,-3.0479,-2.9224,-2.716,-2.5433,-2.4057,-2.2947,0.0,0.0,0.0,0.0,-2.1665,-2.2091,0.0,0.0,0.0,0.0,0.0,0.0,0.0,0.0,0.0,0.0,0.0,0.0,0.0,0.0,0.0,-2.4529,0.0,0.0,0.0,0.0,0.0,0.0,0.0,0.0,0.0,0.0,0.0,0.0,0.0,0.0,0.0,0.0,0.0,0.0,0.0,0.0,0.0,0.0,0.0,0.0,0.0,0.0,0.0,0.0,0.0,0.0,0.0,0.0,0.0,0.0,0.0,0.0,0.0,0.0,0.0,0.0,0.0,0.0,0.0,0.0,0.0,0.0,0.0,0.0,0.0,0.0,0.0,0.0,0.0,0.0,0.0,0.0,0.0,0.0,0.0,0.0,0.0,-2.2966,-2.3661,-2.2766,-2.4168,-2.4623,0.0,0.0,0.0,0.0,0.0,0.0,-2.598,-2.7006,-2.8015,-2.903,-2.9351,-2.9997,-3.0815,-3.1218,-3.1541,-3.2,-3.2,-3.235,-3.2978,-3.2592,-3.2519,-3.2688,-3.2435,-3.194,-3.1107,-2.8367,-2.6423,-2.5059,-2.419,-2.3454,-2.2899,-2.3174,-2.3499,-2.3901,0.0,0.0,0.0,0.0,0.0,0.0,0.0,0.0,0.0,0.0,0.0,0.0,0.0,0.0,-2.5758,-2.66,-2.6466,-2.527,0.0,0.0,0.0,0.0,0.0,0.0,0.0,0.0,0.0,0.0,0.0,0.0,0.0,0.0,0.0,0.0,0.0,0.0,0.0,0.0,0.0,0.0,0.0,0.0,0.0,0.0,0.0,0.0,0.0,0.0,0.0,0.0,0.0,0.0,0.0,0.0,0.0,0.0,0.0,0.0,0.0,0.0,0.0,0.0,0.0,0.0,0.0,0.0,0.0,0.0,0.0,0.0,0.0,0.0,0.0,0.0,0.0,0.0,0.0,0.0,0.0,-2.4516,-2.6533,0.0,0.0,0.0,0.0,-2.4952,-2.6816,-2.8034,-2.826,-3.005,-3.1406,-3.2313,-3.2447,-3.2784,-3.3183,-3.3207,-3.3376,-3.3666,-3.3666,-3.3823,-3.4113,-3.4088,-3.4088,-3.4052,-3.3799,-3.3533,-3.3014,-3.0093,-2.8391,-2.7522,-2.6472,-2.588,-2.5602,-2.5701,-2.5616,-2.5264,0.0,0.0,0.0,0.0,0.0,0.0,0.0,0.0,0.0,0.0,0.0,0.0,0.0,-2.6694,-2.7856,-2.8738,-2.9058,-2.7771,-2.4625,0.0,0.0,0.0,0.0,0.0,0.0,0.0,0.0,0.0,0.0,0.0,0.0,0.0,0.0,0.0,0.0,0.0,0.0,0.0,0.0,0.0,0.0,0.0,0.0,0.0,0.0,0.0,0.0,0.0,0.0,0.0,0.0,0.0,0.0,0.0,0.0,0.0,0.0,0.0,0.0,0.0,0.0,0.0,0.0,0.0,0.0,0.0,0.0,0.0,0.0,0.0,0.0,0.0,0.0,0.0,0.0,0.0,0.0,0.0,0.0,-2.7709,-2.9325,0.0,0.0,-2.8043,-2.8155,-2.8114,-2.9756,-3.0715,-3.0863,-3.2249,-3.3069,-3.326,-3.388,-3.4499,-3.4897,-3.509,-3.532,-3.5585,-3.5392,-3.5356,-3.5452,-3.5452,-3.5283,-3.4957,-3.503,-3.4801,-3.4281,-3.2917,-3.0493,-2.7504,-2.809,-2.7051,-2.5537,-2.714,-2.7365,-2.7232,0.0,0.0,0.0,0.0,0.0,0.0,0.0,0.0,0.0,0.0,0.0,-2.4663,-2.664,-2.843,-2.9554,-2.9865,-3.0033,-2.8729,-2.5218,0.0,0.0,0.0,0.0,0.0,0.0,0.0,0.0,0.0,0.0,0.0,0.0,0.0,0.0,0.0,0.0,0.0,0.0,0.0,0.0,0.0,0.0,0.0,-2.2223,0.0,0.0,0.0,0.0,0.0,0.0,0.0,0.0,0.0,0.0,0.0,0.0,0.0,0.0,0.0,0.0,0.0,0.0,0.0,0.0,0.0,0.0,0.0,0.0,0.0,0.0,0.0,0.0,0.0,0.0,0.0,0.0,0.0,0.0,0.0,-2.9566,-3.0154,-3.1864,-3.2425,-3.0584,-3.0888,-3.1225,-3.101,-3.2277,-3.3007,-3.2858,-3.4146,-3.4729,-3.4704,-3.5223,-3.5718,-3.6165,-3.643,-3.6623,-3.6684,-3.6623,-3.6563,-3.6563,-3.6563,-3.6394,-3.6068,-3.614,-3.5935,-3.5452,-3.4933,-3.2376,-2.8683,-2.9909,-2.9069,-2.7325,-2.8954,-2.9332,-2.9031,0.0,0.0,0.0,0.0,0.0,0.0,0.0,0.0,0.0,0.0,-2.3514,-2.5398,-2.8337,-3.0247,-3.092,-3.0081,-2.9465,-2.7886,-2.484,-2.3778,0.0,0.0,0.0,0.0,0.0,0.0,0.0,0.0,0.0,0.0,0.0,0.0,0.0,0.0,0.0,0.0,0.0,0.0,0.0,0.0,0.0,0.0,-2.4094,0.0,0.0,0.0,0.0,0.0,0.0,0.0,0.0,0.0,0.0,0.0,0.0,0.0,0.0,0.0,0.0,0.0,0.0,0.0,0.0,0.0,0.0,0.0,0.0,0.0,0.0,0.0,0.0,0.0,0.0,0.0,0.0,0.0,-2.6867,-2.9219,-3.1129,-3.177,-3.4135,-3.494,-3.2911,-3.381,-3.4184,-3.3119,-3.4555,-3.5181,-3.4607,-3.5622,-3.6246,-3.6563,-3.6587,-3.672,-3.701,-3.7275,-3.7275,-3.7046,-3.7275,-3.7396,-3.7372,-3.7396,-3.7372,-3.7372,-3.7106,-3.6853,-3.6551,-3.6032,-3.4044,-3.1513,-3.2349,-3.2157,-3.1445,-3.1445,-3.1107,-3.0624,0.0,0.0,0.0,0.0,0.0,0.0,0.0,0.0,0.0,0.0,-2.4516,-2.6827,-2.9579,-3.1837,-3.2631,-3.1481,-3.0684,-2.8896,-2.5583,0.0,0.0,0.0,0.0,0.0,0.0,0.0,0.0,0.0,0.0,0.0,0.0,0.0,0.0,0.0,0.0,0.0,0.0,0.0,0.0,0.0,0.0,0.0,-2.5494,0.0,0.0,0.0,0.0,0.0,0.0,0.0,0.0,0.0,0.0,0.0,0.0,0.0,0.0,0.0,0.0,0.0,0.0,0.0,0.0,0.0,0.0,0.0,0.0,0.0,0.0,0.0,0.0,0.0,0.0,0.0,0.0,-2.9272,-2.9646,-3.1623,-3.3532,-3.4951,-3.6184,-3.6497,-3.5399,-3.554,-3.5282,-3.4792,-3.5474,-3.5944,-3.5971,-3.659,-3.7051,-3.7408,-3.7432,-3.7661,-3.812,-3.7987,-3.7987,-3.812,-3.7987,-3.783,-3.7661,-3.7854,-3.7722,-3.7372,-3.7504,-3.7396,-3.7106,-3.678,-3.5833,-3.4722,-3.4051,-3.223,-3.0343,-3.1934,-3.2205,-3.1722,0.0,0.0,0.0,0.0,0.0,0.0,0.0,0.0,0.0,0.0,-2.5104,-2.7589,-3.0247,-3.2759,-3.3304,-3.0819,-2.9828,-2.793,-2.4105,0.0,0.0,0.0,0.0,0.0,0.0,0.0,0.0,0.0,0.0,0.0,0.0,0.0,0.0,0.0,0.0,0.0,0.0,0.0,0.0,0.0,0.0,0.0,-2.8149,-2.6001,-2.512,-2.4854,-2.3466,-2.3056,-2.2959,-2.1983,0.0,0.0,0.0,0.0,0.0,0.0,0.0,0.0,0.0,0.0,0.0,0.0,0.0,0.0,0.0,0.0,0.0,0.0,0.0,0.0,0.0,0.0,0.0,0.0,-2.9967,-3.1944,-3.336,-3.4696,-3.6002,-3.7646,-3.8114,-3.8358,-3.7644,-3.7355,-3.6927,-3.6381,-3.6674,-3.7151,-3.7335,-3.7529,-3.7891,-3.841,-3.8434,-3.8506,-3.8699,-3.8663,-3.8603,-3.8543,-3.8506,-3.841,-3.8277,-3.8313,-3.8156,0.0,-3.7891,-3.7758,-3.7529,-3.7372,-3.6913,0.0,0.0,0.0,0.0,0.0,-3.2724,-3.2338,0.0,0.0,0.0,0.0,0.0,0.0,0.0,0.0,0.0,0.0,0.0,-2.7702,-3.0003,-3.2643,-3.2671,-2.8952,-2.7838,-2.569,0.0,0.0,0.0,0.0,0.0,0.0,0.0,0.0,0.0,0.0,0.0,0.0,0.0,0.0,0.0,0.0,0.0,0.0,0.0,0.0,0.0,0.0,0.0,0.0,-3.0796,-2.832,-2.7691,-2.7751,-2.5928,-2.4866,-2.419,-2.3273,0.0,0.0,0.0,0.0,0.0,0.0,0.0,0.0,0.0,0.0,0.0,0.0,0.0,0.0,0.0,0.0,0.0,0.0,0.0,0.0,0.0,0.0,0.0,0.0,-3.2238,-3.4429,-3.7315,-3.8063,-3.8472,-3.9481,-4.0028,-3.9949,-3.9288,-3.8986,-3.8362,-3.7891,-3.7891,-3.812,-3.8639,0.0,0.0,0.0,0.0,-3.9339,-3.9146,-3.9339,-3.9182,-3.8736,-3.8917,-3.8989,-3.8989,-3.8699,-3.8579,-3.8543,-3.8277,-3.8048,-3.7794,-3.7794,-3.7335,-3.6587,-3.5971,-3.5126,-3.4185,-3.3437,-3.2978,-3.2748,0.0,0.0,0.0,0.0,0.0,0.0,0.0,0.0,0.0,-2.2819,-2.5625,-2.7396,-2.738,-2.9921,-3.085,-2.9161,-2.6524,-2.3913,0.0,0.0,0.0,0.0,0.0,0.0,0.0,0.0,0.0,0.0,0.0,0.0,0.0,0.0,0.0,0.0,0.0,0.0,0.0,0.0,0.0,0.0,0.0,0.0,-2.9109,-2.993,-2.9755,-2.8886,-2.7232,-2.6954,-2.7111,-2.5458,-2.5071,-2.5035,-2.3866,0.0,0.0,0.0,0.0,0.0,0.0,0.0,0.0,0.0,0.0,0.0,0.0,0.0,0.0,0.0,0.0,0.0,0.0,0.0,0.0,-3.2385,-3.471,-3.7048,-3.9533,-4.0246,-4.037,-3.9872,-3.9313,-3.8956,-3.9096,-3.8753,-3.874,-3.8699,-3.8724,-3.8953,-3.9472,-3.9315,0.0,-4.0281,-4.0088,-4.0063,-4.022,-4.0063,-3.9931,-3.9798,0.0,0.0,-3.9243,-3.8989,-3.876,-3.8543,-3.8482,-3.8313,-3.8084,-3.8084,-3.7734,-3.7106,-3.5911,-3.5187,-3.4764,-3.4414,-3.4088,-3.3859,0.0,0.0,0.0,0.0,0.0,0.0,0.0,0.0,0.0,0.0,-2.4917,-2.6558,-2.6834,-2.897,-2.9698,-2.773,-2.4258,0.0,0.0,-2.1884,-2.2489,0.0,0.0,0.0,0.0,0.0,0.0,0.0,0.0,0.0,0.0,0.0,0.0,0.0,0.0,0.0,0.0,0.0,0.0,0.0,0.0,0.0,-3.0837,-3.2244,-3.2085,-3.1215,-2.99,-2.9332,-2.9006,-2.7679,-2.7135,-2.681,-2.5786,-2.4931,-2.4244,0.0,0.0,0.0,0.0,0.0,0.0,0.0,0.0,0.0,0.0,0.0,0.0,0.0,0.0,-2.7762,0.0,0.0,-3.2505,-3.499,-3.7128,-3.9159,-4.1096,-4.1335,-4.1379,-4.0954,-4.013,-3.97,-3.983,-3.9737,-3.9605,-3.9738,-3.9762,-4.0027,-4.0679,-4.0353,-4.045,-4.1102,-4.0872,-4.0739,-4.0739,-4.0607,-4.045,-4.0317,-4.0063,-3.9858,-3.9738,-3.9472,-3.9182,-3.8929,-3.8663,-3.847,-3.8313,-3.806,-3.7794,-3.748,-3.5029,-3.461,-3.5308,-3.3465,-3.2709,-3.2678,0.0,0.0,0.0,0.0,0.0,0.0,0.0,0.0,0.0,0.0,0.0,-2.5391,-2.6292,-2.7984,-2.7839,0.0,0.0,0.0,0.0,-2.056,-2.0674,-2.0909,-2.1788,-2.1986,-2.142,-2.1895,-2.2082,0.0,0.0,0.0,0.0,0.0,0.0,0.0,0.0,0.0,0.0,0.0,0.0,0.0,0.0,0.0,-3.2488,-3.3577,-3.3988,-3.3606,-3.2398,-3.1312,-3.0334,-2.9574,-2.8862,-2.8162,-2.7658,-2.7206,-2.6536,-2.535,-2.4867,0.0,0.0,0.0,0.0,0.0,0.0,0.0,0.0,0.0,-2.6587,-2.7629,-2.8938,-3.0327,-3.173,-3.3454,-3.5378,-3.7635,-3.9386,-4.0976,-4.2191,-4.2194,-4.1917,-4.2151,-4.1373,-4.0833,-4.0931,-4.0794,-4.08,-4.0836,-4.0872,-4.1126,-4.1753,-4.1391,-4.1331,-4.1717,-4.156,-4.1331,-4.1005,-4.1065,-4.0969,-4.0703,-4.0643,-4.051,-4.0281,-3.9955,-3.9665,-3.9375,-3.8796,-3.8506,-3.8446,-3.8023,-3.754,-3.6672,-3.3458,-3.3175,-3.4034,-3.1537,-3.0707,-3.1169,0.0,0.0,0.0,0.0,0.0,0.0,0.0,0.0,0.0,0.0,0.0,0.0,0.0,0.0,0.0,0.0,0.0,0.0,-1.9983,-2.011,-2.091,-2.2515,-2.2242,-2.2584,-2.309,-2.2478,-2.2459,-2.2835,-2.2146,-2.2249,-2.2834,-2.282,-2.282,-2.3088,-2.2695,-2.2618,-2.2597,-2.2194,-2.2105,-2.261,-2.5267,-2.7978,-3.0202,-3.2857,-3.4369,-3.4933,-3.3147,-3.1964,-3.1179,-3.0612,-3.0214,-2.9888,-3.0144,-2.931,-2.818,-2.7586,0.0,-2.4825,-2.4488,-2.4433,-2.4943,-2.6213,-2.6146,-2.652,0.0,0.0,-2.9513,-3.1169,-3.2265,-3.3293,-3.4523,-3.6193,-3.7996,-3.9827,-4.1163,-4.223,-4.2938,-4.2911,-4.2599,-4.2728,-4.1616,-4.0981,-4.144,-4.156,-4.1681,-4.1947,-4.1971,-4.2007,-4.2079,-4.2043,-4.191,-4.1717,-4.1947,-4.1814,-4.1295,-4.1524,-4.1488,-4.1234,-4.1005,-4.0872,-4.0836,-4.0317,-3.9931,-3.9641,-3.8868,-3.841,-3.818,-3.812,-3.6663,-3.3849,-3.097,-2.9769,-2.9724,-2.8875,-2.9976,-3.1687,0.0,0.0,0.0,0.0,0.0,0.0,0.0,0.0,0.0,0.0,0.0,0.0,0.0,0.0,0.0,0.0,0.0,0.0,-2.0371,-2.0867,-2.1407,-2.2227,-2.2441,-2.2659,-2.2631,-2.2299,-2.2493,-2.2924,-2.2675,-2.2466,-2.2601,-2.269,-2.2642,-2.2466,-2.2479,-2.2445,-2.2378,-2.2391,-2.421,-2.6995,-2.6468,-2.8865,-3.2571,-3.3357,-3.2643,-3.1537,-3.2913,-3.2471,0.0,0.0,-3.0538,-3.0448,-3.1197,-3.0528,-2.9617,-2.9333,-2.8011,0.0,-2.6268,-2.6228,0.0,0.0,-2.8323,-2.9352,-3.1557,-3.2051,-3.2492,-3.4082,-3.5244,-3.6286,-3.7301,-3.8798,-4.0294,0.0,-4.2496,-4.3045,-4.3734,-4.315,-4.2641,-4.2365,-4.1898,-4.1548,-4.191,-4.2103,-4.2236,-4.2369,-4.2502,-4.2659,-4.2816,-4.2695,-4.2526,-4.2429,-4.2393,-4.2176,-4.1814,-4.1753,-4.1657,-4.156,-4.1295,-4.1102,-4.0933,-4.0546,-3.9967,-3.9243,-3.8929,-3.8543,-3.8156,-3.8156,-3.6512,-3.3562,-3.0812,-2.8405,-2.6725,-2.6165,-2.6628,-2.799,0.0,0.0,0.0,0.0,0.0,0.0,0.0,0.0,0.0,0.0,0.0,0.0,0.0,0.0,0.0,0.0,0.0,0.0,0.0,-2.0794,-2.1384,-2.1961,-2.2335,-2.257,-2.2411,-2.2411,-2.2567,-2.2873,-2.294,-2.2995,-2.3029,-2.3151,-2.3083,-2.2873,-2.294,-2.2907,-2.2798,-2.2873,-2.5227,-2.8466,-2.629,-2.8104,-3.1979,-3.1337,-3.0095,-2.9141,-3.2298,-3.1939,0.0,0.0,-3.0154,-3.0293,-3.1226,-3.0976,-3.0446,-3.0551,-2.9257,-2.7878,-2.7655,0.0,0.0,-2.9419,-3.0742,-3.2171,-3.3721,-3.4536,-3.5364,-3.6767,-3.7849,-3.8838,-3.9706,-4.1082,-4.2312,-4.2762,-4.336,-4.3749,-4.3954,-4.3156,-4.2613,-4.2015,-4.1511,-4.1427,-4.1778,-4.2176,-4.249,-4.2623,-4.2888,-4.3117,-4.3311,-4.3214,-4.3117,-4.3021,-4.2852,-4.2598,-4.2236,-4.1971,-4.1778,-4.1717,-4.1452,-4.1234,-4.1029,-4.0703,-4.0027,-3.9146,-3.9013,-3.8699,-3.8253,-3.818,-3.6044,-3.2665,-3.0403,-2.7495,-2.4345,-2.3621,-2.3929,-2.5315,0.0,0.0,0.0,0.0,0.0,0.0,0.0,0.0,0.0,0.0,0.0,0.0,0.0,0.0,0.0,0.0,0.0,0.0,0.0,-1.9044,-2.0561,-2.1961,-2.2112,-2.2588,-2.3171,-2.3185,-2.3347,-2.3646,-2.3503,-2.3503,-2.3646,-2.3666,-2.3666,-2.3646,-2.3483,-2.3429,-2.3415,-2.3273,-2.3029,-2.3053,-2.3053,-2.432,-2.6313,-2.5435,-2.7265,-3.0121,-3.2091,0.0,0.0,0.0,-2.8882,-2.9115,-3.024,-3.0586,0.0,-3.069,-2.9339,0.0,0.0,0.0,-2.9553,-3.1851,-3.332,-3.467,-3.6433,-3.7275,-3.8036,-3.9239,-3.9974,-4.0655,-4.1537,-4.2913,-4.3744,-4.3277,-4.4255,-4.456,-4.3465,-4.2762,-4.2249,-4.1669,-4.0812,-4.0389,0.0,-4.1681,-4.2369,-4.2852,-4.3154,-4.3311,-4.3311,-4.354,-4.3576,-4.3311,-4.3274,-4.3045,-4.2526,-4.2272,-4.1983,-4.1717,-4.1452,-4.1331,-4.1295,-4.0776,-4.0257,-3.9665,-3.9182,-3.8796,-3.8506,-3.8253,-3.5003,-2.9805,-2.9796,-2.6395,-2.1394,-2.1095,-2.2669,-2.5287,0.0,0.0,0.0,0.0,0.0,0.0,0.0,0.0,0.0,0.0,0.0,0.0,0.0,0.0,0.0,0.0,0.0,0.0,0.0,-1.835,-1.9684,-2.0781,-2.1803,-2.2513,-2.292,-2.3219,-2.347,-2.368,-2.3626,-2.3626,-2.368,-2.368,-2.3626,-2.3524,-2.3571,-2.3537,-2.3449,-2.3395,-2.4459,-2.6017,-2.3637,-2.4037,-2.6485,-2.7017,-2.5759,-2.4208,0.0,0.0,0.0,0.0,0.0,0.0,-2.8964,0.0,-2.8989,-2.8831,-2.8938,-2.9272,0.0,0.0,-3.2536,-3.4058,-3.5554,-3.6693,-3.7788,-3.8766,-3.9621,-4.0198,-4.0956,-4.143,-4.175,-4.2659,-4.3554,-4.3811,-4.3931,-4.4409,-4.4305,-4.3518,-4.2228,-4.0812,-4.0679,0.0,0.0,0.0,0.0,-4.2333,-4.2792,-4.3214,-4.354,-4.383,-4.3926,-4.3866,-4.3866,-4.36,-4.3045,-4.2792,-4.2526,-4.2236,-4.1814,-4.1391,-4.1065,-4.0703,-4.0257,-3.9701,-3.9182,-3.8796,-3.8506,-3.8253,-3.6067,-3.2416,-3.0568,-2.7453,-2.4028,-2.1984,-2.1555,-2.2934,0.0,0.0,0.0,0.0,0.0,0.0,0.0,0.0,0.0,0.0,0.0,0.0,0.0,0.0,0.0,0.0,0.0,0.0,0.0,0.0,-1.8081,-1.9094,-2.0354,-2.1089,-2.1496,-2.1794,-2.2113,-2.2479,-2.2642,-2.2852,-2.3117,-2.4481,-2.4826,-2.4999,-2.6018,-2.6033,-2.5079,-2.5882,-2.6447,-2.6561,-2.517,-2.5248,-2.588,-2.6385,-2.4352,0.0,0.0,0.0,0.0,0.0,0.0,0.0,0.0,-2.7849,-2.7939,-2.7748,-2.885,-3.0228,-3.1521,-3.3035,-3.475,-3.6441,-3.7618,-3.8535,-3.9322,-4.0083,-4.0619,-4.0593,-4.0826,-4.1065,-4.1088,-4.146,-4.1804,-4.2442,-4.2744,-4.3079,-4.3764,-4.284,-4.1778,-4.0933,-4.0643,-4.0281,0.0,0.0,0.0,-4.2067,-4.2623,-4.3142,-4.3673,-4.3962,-4.4156,-4.4252,-4.4156,-4.3962,-4.36,-4.3142,-4.2695,-4.2236,-4.1778,-4.1391,-4.1065,-4.0703,-4.0353,-3.9991,-3.9375,-3.8929,-3.8663,-3.841,-3.6124,-3.2406,-3.0568,-2.7453,-2.3757,-2.204,-2.1666,-2.3091,0.0,0.0,0.0,0.0,0.0,0.0,0.0,0.0,0.0,0.0,0.0,0.0,0.0,0.0,0.0,0.0,0.0,0.0,0.0,0.0,0.0,-1.6815,-1.7772,-1.8552,-1.9128,-1.9169,-1.9556,-2.0275,-2.0702,-2.1265,-2.227,-2.5594,-2.7288,-2.7601,-3.0306,-3.0105,-2.7839,-3.0163,-2.876,-2.4962,-2.7126,-2.6584,-2.4496,-2.3331,0.0,0.0,0.0,0.0,0.0,0.0,0.0,0.0,0.0,-2.6293,-2.7432,-2.7864,-2.9027,-3.0751,-3.3382,-3.4747,-3.6347,-3.9048,-3.9994,-4.0286,-4.107,-4.1247,-4.1306,-4.0696,-3.9869,-3.9328,0.0,0.0,-3.9291,-3.9946,-4.0721,-4.1498,-4.2544,-4.1524,-4.1102,0.0,0.0,0.0,0.0,0.0,0.0,-4.2079,0.0,-4.3142,-4.3673,-4.3987,-4.4252,-4.4506,-4.4288,-4.4119,-4.4119,-4.3347,-4.2562,-4.1778,-4.1488,-4.1355,-4.1295,-4.08,-4.0546,-4.0486,-3.9701,-3.9206,-3.8917,-3.8663,-3.5247,-3.0066,-2.9796,-2.642,-2.1679,-2.1285,-2.2769,-2.5039,0.0,0.0,0.0,0.0,0.0,0.0,0.0,0.0,0.0,0.0,0.0,0.0,0.0,0.0,0.0,0.0,0.0,0.0,0.0,0.0,0.0,0.0,0.0,0.0,0.0,0.0,0.0,-1.9481,-1.9501,-2.0492,-2.2748,-2.3551,-2.4771,-2.6678,-2.7504,-2.7594,-2.693,-2.7361,-2.6699,-2.5204,0.0,-2.2621,-2.1718,0.0,0.0,0.0,0.0,0.0,0.0,0.0,0.0,0.0,0.0,-2.7558,-2.8825,-3.0,-3.1339,-3.2944,-3.5533,-3.7593,-3.9149,-4.0494,-4.1119,-4.1299,-4.076,-4.0734,-4.0896,-3.9983,-3.8979,-3.7972,0.0,0.0,0.0,-3.9679,-4.1586,0.0,-4.4293,-4.3869,0.0,0.0,0.0,-4.2103,-4.1391,-4.1331,0.0,0.0,-4.2659,-4.2948,-4.3673,-4.4156,-4.4445,-4.4518,-4.4445,-4.4312,-4.4119,-4.3504,-4.3021,-4.2598,-4.214,-4.1717,-4.1331,-4.1005,-4.0607,-4.022,-3.9798,-3.9375,-3.8953,-3.8893,-3.6444,-3.2697,-3.0762,-2.7838,-2.4299,-2.2174,-2.1826,-2.2493,0.0,0.0,0.0,0.0,0.0,0.0,0.0,0.0,0.0,0.0,0.0,0.0,0.0,0.0,0.0,0.0,0.0,0.0,0.0,0.0,0.0,0.0,0.0,0.0,0.0,0.0,0.0,0.0,0.0,0.0,-2.1292,-2.2478,-2.446,-2.6406,-2.7857,-2.7748,-2.6682,-2.7727,0.0,0.0,0.0,0.0,0.0,0.0,0.0,0.0,0.0,0.0,0.0,0.0,0.0,-2.7108,-2.8087,-2.9221,-3.0466,-3.1966,0.0,-3.4903,-3.7252,-3.9148,-4.0217,-3.9563,-3.9808,-3.935,-3.8291,-3.796,-3.7565,-3.7336,-3.6614,0.0,0.0,0.0,0.0,0.0,0.0,0.0,-4.4638,-4.4549,-4.4252,0.0,-4.389,0.0,-4.2659,-4.2598,-4.2828,0.0,-4.2985,-4.3045,-4.383,-4.4192,-4.4385,-4.4518,-4.4518,-4.4312,-4.3926,-4.3504,-4.3117,-4.2755,-4.22,-4.0935,-3.9499,-3.9016,-3.7814,-3.6432,0.0,-3.7612,-3.7256,-3.8596,-3.6399,-3.2289,-3.0849,-2.7609,-2.3523,-2.1951,-2.1387,-2.1826,0.0,0.0,0.0,0.0,0.0,0.0,0.0,0.0,0.0,0.0,0.0,0.0,0.0,0.0,0.0,0.0,0.0,0.0,0.0,0.0,0.0,0.0,0.0,0.0,0.0,0.0,0.0,0.0,0.0,0.0,0.0,0.0,0.0,0.0,0.0,0.0,0.0,0.0,0.0,0.0,0.0,0.0,0.0,0.0,0.0,0.0,0.0,0.0,0.0,0.0,-2.7329,-2.7836,-2.9767,-3.1131,-3.235,-3.3992,-3.5356,-3.6881,-3.8961,-4.0246,-4.0418,-3.8356,-3.744,-3.6586,-3.5165,-3.4047,-3.3578,-3.4047,0.0,-3.2648,-3.1433,-3.3002,-3.4823,-3.6093,0.0,-4.1593,-4.3745,-4.4288,-4.4614,-4.5326,-4.5,-4.4518,-4.4023,-4.3902,-4.3962,-4.4216,-4.3576,-4.348,-4.4192,-4.4252,-4.4349,-4.4542,-4.4506,-4.4216,-4.3769,-4.3467,-4.3081,-4.2623,-4.2079,-4.0068,-3.7136,-3.6479,-3.4747,-3.1925,-3.3988,0.0,-3.5346,-3.7786,-3.5582,-3.0634,-3.04,-2.6844,-2.1972,-2.1441,-2.1441,-2.2223,0.0,0.0,0.0,0.0,0.0,0.0,0.0,0.0,0.0,0.0,-2.0386,-2.0716,0.0,0.0,0.0,0.0,0.0,0.0,0.0,0.0,0.0,0.0,0.0,0.0,0.0,0.0,0.0,0.0,0.0,0.0,0.0,0.0,0.0,0.0,0.0,0.0,0.0,0.0,0.0,0.0,0.0,0.0,0.0,0.0,0.0,0.0,0.0,0.0,0.0,0.0,-2.8886,-3.0395,-3.2688,-3.4318,-3.5706,-3.7529,-3.853,-3.9351,-4.0727,-4.179,-4.1751,-3.9304,-3.8148,-3.7372,-3.5404,-3.3506,0.0,0.0,0.0,-3.0015,-3.0156,-3.1538,0.0,-3.6079,0.0,0.0,0.0,0.0,-4.558,0.0,0.0,0.0,0.0,0.0,0.0,0.0,0.0,-4.4614,-4.4771,-4.4964,-4.5,-4.4844,-4.4409,-4.4156,-4.4059,-4.3564,-4.3274,-4.3178,-4.2623,-4.0438,-3.7168,-3.6834,-3.4769,-3.1639,-3.1952,0.0,-3.5316,-3.5875,-3.5205,-3.3552,-3.1366,-2.8278,-2.4578,-2.223,-2.1441,-2.1965,0.0,0.0,0.0,0.0,0.0,0.0,0.0,0.0,-1.8508,-1.8843,-1.9209,-1.9107,-1.7785,-1.8451,0.0,0.0,0.0,0.0,0.0,0.0,0.0,0.0,0.0,0.0,0.0,0.0,-1.3728,-1.5305,0.0,0.0,0.0,-2.0141,-2.1033,-2.2983,0.0,0.0,0.0,0.0,0.0,0.0,0.0,0.0,0.0,0.0,0.0,0.0,0.0,0.0,0.0,0.0,-2.7867,-3.0298,-3.4357,-3.6744,-3.8277,-3.9605,-3.915,-3.8591,-4.143,-4.1547,-4.0246,-3.9121,-3.7037,-3.5221,-3.3951,0.0,0.0,0.0,-2.9567,-2.8625,-2.8221,0.0,0.0,0.0,0.0,0.0,0.0,0.0,0.0,0.0,0.0,0.0,0.0,0.0,0.0,0.0,0.0,-4.529,-4.4735,-4.4807,-4.4904,-4.4904,-4.4518,-4.4252,-4.4119,-4.3733,-4.3443,-4.3311,-4.2792,-4.0007,-3.5052,-3.4708,-3.184,-2.7064,-2.8448,0.0,-3.0903,-3.2439,-3.1816,-3.0013,-2.8775,-2.619,-2.3266,-2.1881,-2.1367,-2.1686,0.0,0.0,0.0,0.0,0.0,0.0,0.0,-1.905,-1.9311,-1.895,-1.7792,-1.6727,-1.5857,-1.6729,-1.6286,0.0,0.0,0.0,0.0,0.0,0.0,0.0,0.0,0.0,0.0,0.0,0.0,-1.5295,-1.5101,0.0,0.0,0.0,0.0,0.0,-2.1305,-2.1162,-2.0864,0.0,0.0,0.0,0.0,0.0,0.0,0.0,0.0,0.0,0.0,0.0,0.0,0.0,-2.5997,-2.9422,-3.4283,-3.6651,-3.8342,-3.9597,-3.792,-3.6793,-4.0043,-3.9568,-3.7716,-3.8244,-3.5508,-3.273,-3.2313,-2.8881,0.0,0.0,-2.7842,-2.746,-2.6689,0.0,0.0,0.0,0.0,0.0,0.0,0.0,0.0,0.0,0.0,0.0,0.0,0.0,0.0,0.0,0.0,0.0,-4.4904,-4.4735,-4.4771,-4.4964,-4.4614,-4.4312,-4.4119,-4.3793,-4.3504,-4.3311,-4.2828,-3.9548,-3.4114,-3.3086,-2.9415,-2.4168,-2.5476,0.0,0.0,-2.9218,-2.8908,-2.6948,-2.6403,-2.4607,-2.2209,-2.1535,-2.1285,-2.1624,0.0,0.0,0.0,0.0,0.0,0.0,0.0,-1.9025,-1.846,-1.9119,-1.6072,-1.3852,-1.3629,-1.5199,-1.6004,0.0,0.0,0.0,0.0,0.0,0.0,0.0,0.0,0.0,0.0,0.0,0.0,-1.6664,-1.6341,0.0,0.0,0.0,0.0,0.0,0.0,-2.0029,-1.8617,-1.8617,0.0,0.0,0.0,0.0,0.0,0.0,0.0,0.0,0.0,0.0,0.0,0.0,0.0,-2.808,-3.0753,-3.1975,-3.2784,-3.5754,0.0,0.0,-3.5077,-3.5423,-3.5309,-3.5528,-3.3784,-3.2298,-3.2232,0.0,0.0,-2.7345,-2.6496,-2.5832,-2.6508,0.0,0.0,0.0,0.0,-3.6237,0.0,0.0,0.0,0.0,0.0,0.0,0.0,0.0,0.0,0.0,0.0,0.0,-4.5942,-4.5483,-4.523,-4.5266,-4.4542,-4.4156,-4.4119,-4.36,-4.3347,-4.3311,-4.3021,-4.0983,-3.7526,-3.4165,-3.0736,-2.715,-2.4408,0.0,0.0,-2.7051,-2.8384,-2.963,-2.7224,-2.5924,-2.481,-2.231,-2.1231,-2.1211,0.0,0.0,0.0,0.0,0.0,0.0,0.0,-1.8947,-1.8365,-1.9527,-1.6694,-1.4304,-1.3876,-1.4011,-1.4195,0.0,0.0,0.0,0.0,0.0,0.0,0.0,0.0,0.0,0.0,0.0,0.0,0.0,0.0,0.0,0.0,0.0,0.0,0.0,0.0,-2.0388,-1.968,0.0,0.0,0.0,0.0,0.0,0.0,0.0,0.0,0.0,0.0,0.0,0.0,0.0,0.0,0.0,-2.6157,-2.5383,0.0,0.0,-3.2682,-3.0526,-3.3601,-3.3479,-3.2961,-3.4789,-3.3526,-3.1963,-3.2088,0.0,-2.7176,-2.718,-2.6254,-2.5578,-2.6061,-2.6508,-2.7594,0.0,0.0,0.0,-3.6756,0.0,0.0,0.0,0.0,0.0,0.0,0.0,0.0,0.0,0.0,0.0,-4.6099,-4.5592,-4.529,-4.529,-4.4844,-4.4518,-4.4349,-4.383,-4.354,-4.354,-4.3117,-4.1317,-3.7857,-3.6223,-3.2764,-2.7743,-2.6081,0.0,0.0,-2.4037,-2.4654,-2.5232,-2.4067,-2.3359,-2.3126,-2.1826,-2.1265,-2.1333,0.0,0.0,0.0,0.0,0.0,-1.73,-2.0026,-1.898,-1.8286,-1.9233,-1.7123,-1.5321,-1.4546,-1.3391,-1.2919,-1.3674,0.0,0.0,0.0,0.0,0.0,0.0,0.0,0.0,0.0,0.0,0.0,0.0,0.0,0.0,0.0,0.0,-2.0738,-2.0665,0.0,0.0,0.0,0.0,0.0,0.0,0.0,0.0,0.0,0.0,0.0,0.0,0.0,0.0,0.0,0.0,0.0,0.0,0.0,0.0,0.0,0.0,-2.8544,-2.644,-3.0352,-3.021,-2.9862,-3.2785,-3.2786,-3.1858,-3.1759,-2.9811,-2.7962,-2.72,-2.6182,-2.5494,-2.5675,-2.6158,-2.7015,-2.8524,-2.9103,-3.0708,-3.4547,-3.6068,-3.8144,0.0,0.0,0.0,0.0,0.0,0.0,0.0,0.0,0.0,-4.6111,-4.5676,-4.5423,-4.5423,-4.5097,-4.4807,-4.4638,-4.4023,-4.3697,-4.3697,-4.3178,-4.1652,-3.9418,-3.7974,-3.4759,-3.0557,-2.8019,0.0,0.0,-2.2647,-2.2249,-2.2093,-2.1991,-2.1828,-2.1638,-2.1374,-2.1319,-2.1353,0.0,0.0,0.0,0.0,0.0,0.0,0.0,-1.9273,-1.8352,-1.7904,-1.706,-1.6326,-1.563,-1.3363,-1.2788,-1.4849,0.0,0.0,0.0,0.0,0.0,0.0,0.0,0.0,0.0,0.0,0.0,0.0,0.0,0.0,0.0,0.0,0.0,-2.0665,0.0,0.0,0.0,0.0,0.0,0.0,0.0,0.0,-1.4859,0.0,0.0,0.0,0.0,0.0,0.0,0.0,0.0,0.0,0.0,0.0,0.0,0.0,-2.2629,-2.2188,-2.3544,-2.4548,-2.612,-2.9321,-3.0441,-3.1053,-3.1358,-3.1184,-3.0238,-2.7582,-2.6182,-2.5433,-2.5446,-2.5868,-2.6665,-2.7993,-2.9332,-3.1421,-3.4897,-3.6527,0.0,0.0,0.0,0.0,0.0,0.0,0.0,0.0,0.0,0.0,-4.6111,-4.5845,-4.5713,-4.5713,-4.5194,-4.4904,-4.4904,-4.4095,-4.3697,-4.3697,-4.3178,-4.2912,-4.2588,-3.8937,-3.7028,-3.649,0.0,0.0,0.0,-2.3427,-2.2249,-2.2113,-2.2113,-2.1937,-2.1652,-2.1496,-2.1333,-2.1197,0.0,0.0,0.0,0.0,0.0,0.0,0.0,-1.9446,-1.8417,-1.796,-1.673,-1.5441,-1.4597,-1.4408,-1.4305,-1.4326,0.0,0.0,0.0,0.0,0.0,0.0,0.0,0.0,0.0,0.0,0.0,0.0,0.0,0.0,0.0,0.0,0.0,0.0,-2.075,0.0,0.0,0.0,0.0,0.0,0.0,-1.6592,-1.6346,0.0,0.0,0.0,0.0,0.0,0.0,0.0,0.0,0.0,0.0,0.0,0.0,-1.9459,-2.2079,-2.4508,-2.4074,-2.6148,-2.7841,-2.5073,-2.8122,-3.103,-2.7759,-2.8759,-2.9755,-2.7268,-2.6049,-2.5433,-2.5433,-2.5578,-2.6411,-2.8656,-2.9381,-3.0612,0.0,0.0,0.0,0.0,0.0,0.0,0.0,0.0,0.0,0.0,0.0,0.0,-4.6111,-4.6039,-4.5809,-4.5423,-4.5097,-4.4735,-4.4385,-4.3926,-4.36,-4.3443,-4.3081,-4.2924,-4.2888,-4.0748,-3.886,0.0,0.0,-2.8837,-2.6598,-2.3705,-2.2554,-2.2411,-2.2303,-2.2147,-2.1937,-2.1686,-2.1564,-2.1509,0.0,0.0,0.0,0.0,0.0,0.0,0.0,-1.8613,-1.774,-1.7486,-1.6069,-1.4928,-1.4712,-1.4806,-1.4698,-1.4403,0.0,0.0,0.0,0.0,0.0,0.0,0.0,0.0,0.0,0.0,0.0,0.0,0.0,0.0,0.0,0.0,0.0,0.0,0.0,0.0,0.0,0.0,0.0,0.0,-1.794,-1.8515,-1.7991,0.0,0.0,0.0,0.0,0.0,0.0,0.0,0.0,0.0,0.0,0.0,0.0,0.0,-2.3463,-2.6075,0.0,-2.6243,-2.7056,-2.3709,-2.6476,-2.9175,-2.5498,-2.7218,-2.9139,-2.693,-2.5928,-2.5433,-2.5433,-2.5602,-2.6339,-2.821,-2.885,-3.002,0.0,0.0,0.0,0.0,0.0,0.0,0.0,0.0,0.0,0.0,0.0,0.0,-4.6111,-4.5906,-4.5652,-4.529,-4.5037,-4.4711,-4.4288,-4.3793,-4.348,-4.3311,-4.3045,-4.2816,-4.2598,-4.1717,-4.009,0.0,-3.4592,-3.1904,0.0,-2.6042,-2.4357,-2.4204,-2.3001,-2.2289,-2.2079,-2.1848,-2.1726,-2.1652,0.0,0.0,0.0,0.0,0.0,0.0,0.0,0.0,-1.6882,-1.6581,-1.5336,-1.4622,-1.5203,-1.4611,-1.4322,-1.4982,0.0,0.0,0.0,0.0,0.0,0.0,0.0,0.0,0.0,0.0,0.0,0.0,-2.2645,-2.3043,-2.3116,0.0,0.0,0.0,0.0,0.0,0.0,0.0,0.0,0.0,-2.0706,-2.1163,0.0,0.0,0.0,0.0,0.0,0.0,0.0,0.0,0.0,0.0,0.0,0.0,0.0,0.0,0.0,0.0,0.0,-2.5199,-2.4701,-2.4413,-2.5537,-2.6372,-2.419,-2.6387,0.0,0.0,0.0,-2.5458,-2.5506,-2.5868,-2.6387,-2.7087,-2.8053,-2.9707,0.0,0.0,0.0,0.0,0.0,0.0,0.0,0.0,0.0,0.0,0.0,0.0,-4.6111,-4.5616,-4.5326,-4.529,-4.5,-4.4711,-4.4445,-4.3697,-4.3311,-4.3274,-4.3045,-4.2659,-4.214,-4.1584,-4.1065,0.0,-3.7261,-3.5757,-3.5266,-2.968,-2.715,-2.6711,-2.3669,-2.2391,-2.2113,-2.1937,-2.1794,-2.1672,0.0,0.0,0.0,0.0,0.0,0.0,0.0,0.0,0.0,0.0,-1.5428,-1.4477,-1.2841,-1.3775,-1.4814,0.0,0.0,0.0,0.0,0.0,0.0,0.0,0.0,0.0,0.0,0.0,0.0,-2.2174,-2.2549,-2.3056,-2.3659,-2.3852,0.0,0.0,0.0,0.0,0.0,0.0,0.0,0.0,-2.0845,-2.1594,0.0,0.0,0.0,0.0,-1.8566,-1.887,0.0,0.0,0.0,0.0,0.0,0.0,0.0,0.0,-2.4418,-2.6414,-2.633,0.0,-2.5273,-2.1151,-2.2284,-2.386,0.0,0.0,0.0,0.0,0.0,0.0,0.0,-2.5953,-2.6327,-2.85,-2.9224,-3.0334,-3.2652,0.0,0.0,0.0,0.0,0.0,0.0,0.0,0.0,0.0,0.0,0.0,-4.6111,-4.5785,-4.552,-4.529,-4.4638,-4.4192,-4.389,-4.3504,-4.3214,-4.3021,-4.2948,-4.2755,-4.2405,-4.1657,-4.1259,0.0,-3.7585,-3.6102,-3.5743,-3.0079,-2.7443,-2.6896,-2.384,-2.2554,-2.2249,-2.1991,-2.1862,-2.1794,0.0,0.0,0.0,0.0,0.0,0.0,0.0,0.0,0.0,0.0,0.0,0.0,0.0,0.0,0.0,0.0,0.0,0.0,0.0,0.0,0.0,0.0,0.0,0.0,0.0,0.0,0.0,0.0,0.0,-2.3671,0.0,0.0,0.0,0.0,0.0,0.0,0.0,0.0,0.0,-1.9963,-2.1209,0.0,0.0,0.0,0.0,0.0,-1.9658,-1.949,0.0,-1.8407,-1.8135,-1.8351,0.0,0.0,0.0,0.0,-2.3808,-2.5337,-2.5494,-2.5095,-2.3988,-2.1279,-2.1124,-2.1425,0.0,0.0,0.0,0.0,0.0,0.0,0.0,0.0,0.0,-2.8198,-2.9224,-3.101,0.0,0.0,0.0,0.0,0.0,0.0,0.0,0.0,0.0,0.0,0.0,-4.6365,-4.6111,-4.5749,-4.5459,-4.529,-4.4409,-4.3866,-4.3697,-4.3311,-4.3045,-4.2924,-4.2924,-4.2659,-4.214,-4.1584,-4.1198,0.0,-3.8863,-3.8077,-3.8118,-3.2092,-2.9428,-2.8898,-2.4452,-2.2608,-2.2303,-2.2079,-2.1937,-2.1848,0.0,0.0,0.0,0.0,0.0,0.0,0.0,0.0,0.0,0.0,0.0,0.0,0.0,0.0,0.0,0.0,0.0,0.0,0.0,0.0,0.0,0.0,0.0,0.0,0.0,0.0,0.0,0.0,0.0,0.0,0.0,0.0,0.0,0.0,0.0,0.0,0.0,0.0,0.0,-2.0786,-2.1474,0.0,0.0,0.0,0.0,0.0,0.0,0.0,0.0,-1.8632,-1.8173,-1.798,-1.8951,0.0,0.0,0.0,0.0,0.0,-2.448,-2.3507,-2.2472,-2.2294,-2.1164,-1.9643,0.0,0.0,0.0,0.0,0.0,0.0,0.0,0.0,0.0,0.0,0.0,0.0,0.0,0.0,0.0,0.0,0.0,0.0,0.0,0.0,0.0,0.0,0.0,-4.6328,-4.6111,-4.5592,-4.529,-4.529,-4.4252,-4.3697,-4.3697,-4.3178,-4.2636,-4.2047,-4.2636,-4.2216,-4.118,-4.1221,-4.1102,-4.0583,0.0,0.0,-4.0311,-3.4718,-3.2097,-3.1113,-2.556,-2.2895,-2.2357,-2.2201,-2.2038,-2.1862,0.0,0.0,0.0,0.0,0.0,0.0,0.0,0.0,0.0,0.0,0.0,0.0,0.0,0.0,0.0,0.0,0.0,0.0,0.0,0.0,0.0,0.0,0.0,0.0,0.0,0.0,0.0,0.0,0.0,0.0,-2.5458,-2.4846,-2.3314,0.0,0.0,0.0,0.0,0.0,0.0,-2.1016,-2.1136,0.0,0.0,0.0,0.0,0.0,0.0,0.0,0.0,-1.9927,-1.8399,-1.6999,-1.9845,0.0,0.0,0.0,0.0,0.0,-2.5602,-2.4936,-2.3272,-2.0734,-2.0421,-2.0417,0.0,0.0,0.0,0.0,0.0,0.0,0.0,0.0,0.0,0.0,0.0,0.0,0.0,0.0,0.0,0.0,0.0,0.0,0.0,0.0,0.0,0.0,0.0,-4.6135,-4.6111,-4.5592,-4.529,-4.529,-4.4252,-4.3697,-4.3697,-4.3178,-4.1446,-3.8804,-4.1735,-4.1154,-3.8017,-4.063,-4.1355,-4.0872,0.0,-4.051,-4.0346,-3.6706,-3.3899,-3.139,-2.7774,-2.488,-2.25,-2.2357,-2.2127,-2.1848,0.0,0.0,0.0,0.0,0.0,0.0,0.0,0.0,0.0,0.0,0.0,0.0,0.0,0.0,0.0,0.0,0.0,0.0,0.0,0.0,0.0,0.0,0.0,0.0,0.0,0.0,0.0,0.0,0.0,-2.5651,-2.6713,-2.5241,-2.3309,-2.0863,0.0,0.0,0.0,0.0,0.0,-2.0847,0.0,0.0,0.0,0.0,0.0,0.0,0.0,0.0,0.0,0.0,-1.6986,-1.5013,-1.7629,0.0,0.0,0.0,0.0,0.0,-2.4222,-2.4714,-2.4151,-2.2329,-2.2024,0.0,0.0,0.0,0.0,0.0,0.0,0.0,0.0,0.0,0.0,0.0,0.0,0.0,0.0,0.0,0.0,0.0,0.0,0.0,0.0,0.0,0.0,0.0,0.0,0.0,-4.5906,-4.552,-4.523,-4.5097,-4.4192,-4.3697,-4.3697,-4.3178,-4.1446,-3.8223,-4.1457,-4.0867,-3.748,-4.0396,-4.1427,-4.0908,0.0,-4.0414,-3.999,-3.5425,-3.2667,-3.1113,-2.6561,-2.3726,-2.252,-2.2303,-2.2127,-2.1971,0.0,0.0,0.0,0.0,0.0,0.0,0.0,0.0,0.0,0.0,0.0,0.0,0.0,0.0,0.0,0.0,0.0,0.0,0.0,0.0,0.0,0.0,0.0,0.0,0.0,0.0,-2.2488,-2.4818,-2.5687,-2.6665,-2.7463,-2.6318,-2.4028,0.0,0.0,0.0,0.0,0.0,0.0,-2.0678,0.0,0.0,0.0,0.0,0.0,0.0,0.0,0.0,0.0,0.0,0.0,0.0,0.0,0.0,0.0,-2.0008,-2.1039,-2.1424,-2.3525,-2.4697,-2.5039,0.0,0.0,0.0,0.0,0.0,0.0,0.0,0.0,0.0,0.0,0.0,0.0,0.0,0.0,0.0,0.0,0.0,0.0,0.0,0.0,0.0,0.0,0.0,0.0,0.0,0.0,0.0,-4.5713,-4.5459,-4.5133,-4.4832,-4.4095,-4.3673,-4.36,-4.3081,-4.1387,-3.8223,-4.1457,-4.0867,-3.7502,-4.0454,-4.1488,-4.0908,-4.0414,-4.0317,-3.987,-3.4385,-3.1952,-3.1029,-2.5632,-2.3098,-2.252,-2.2215,-2.2113,-2.2093,0.0,0.0,0.0,0.0,0.0,0.0,0.0,0.0,0.0,0.0,0.0,0.0,0.0,0.0,0.0,0.0,0.0,0.0,0.0,0.0,0.0,0.0,0.0,0.0,0.0,-2.2283,-2.3225,-2.5373,-2.6423,-2.6923,-2.6791,-2.7284,-2.5565,-2.1832,0.0,0.0,0.0,0.0,0.0,-2.069,-2.0931,0.0,0.0,0.0,0.0,0.0,0.0,0.0,0.0,0.0,0.0,0.0,0.0,0.0,-1.6935,-2.0549,-2.1534,-2.2113,-2.5157,-2.6073,0.0,0.0,0.0,0.0,0.0,0.0,0.0,0.0,0.0,0.0,0.0,0.0,0.0,0.0,0.0,0.0,0.0,0.0,0.0,0.0,0.0,0.0,0.0,0.0,0.0,0.0,0.0,0.0,-4.5713,-4.5459,-4.5061,-4.4542,-4.3999,-4.3576,-4.3347,-4.2828,-4.0937,-3.8223,-4.1457,-4.0867,-3.7502,-4.0676,-4.1681,-4.0933,-4.0643,-4.0377,-3.9866,-3.66,-3.3645,-3.1118,-2.7776,-2.5031,-2.252,-2.2215,-2.2113,-2.2093,0.0,0.0,0.0,0.0,0.0,0.0,0.0,0.0,0.0,0.0,0.0,0.0,0.0,0.0,0.0,0.0,0.0,0.0,0.0,0.0,0.0,0.0,0.0,-2.1209,-2.238,-2.3611,-2.5192,-2.716,-2.8729,-2.8673,-2.6927,-2.7051,0.0,0.0,0.0,0.0,0.0,0.0,0.0,-2.139,-1.9986,-2.0295,0.0,0.0,0.0,0.0,0.0,0.0,0.0,0.0,-1.4987,-1.3137,-1.3886,-1.4332,-1.5104,-1.7304,-1.8654,-1.9967,-2.2378,-2.4252,0.0,0.0,0.0,0.0,0.0,0.0,0.0,0.0,0.0,0.0,0.0,0.0,0.0,0.0,0.0,0.0,0.0,0.0,0.0,0.0,0.0,0.0,0.0,0.0,0.0,0.0,0.0,0.0,-4.5459,-4.5037,-4.4638,-4.4288,-4.3733,-4.3407,-4.3311,-4.2792,-4.199,-4.0925,-4.1931,-4.0589,-3.7502,-4.0513,-4.1524,-4.0921,-3.8705,-3.8712,-3.9561,-3.275,-3.063,-3.0806,-2.6125,-2.3591,-2.2411,-2.2289,-2.2249,-2.2249,0.0,0.0,0.0,0.0,0.0,0.0,0.0,0.0,0.0,0.0,0.0,0.0,0.0,0.0,0.0,0.0,0.0,0.0,0.0,0.0,0.0,0.0,0.0,-2.1245,-2.2488,-2.4685,-2.6556,-2.8077,-3.0214,-2.9965,-2.7649,0.0,0.0,0.0,0.0,0.0,0.0,0.0,0.0,0.0,-1.9282,-1.926,0.0,0.0,0.0,0.0,0.0,0.0,0.0,0.0,-1.5007,-1.284,-1.2983,-1.3268,-1.3867,-1.5396,-1.6698,-1.8046,-1.9865,-2.1814,-2.3835,-2.582,0.0,0.0,0.0,0.0,0.0,0.0,0.0,0.0,0.0,0.0,0.0,0.0,0.0,0.0,0.0,0.0,0.0,0.0,0.0,0.0,0.0,0.0,0.0,0.0,0.0,0.0,0.0,-4.4807,-4.4349,-4.3999,-4.354,-4.3274,-4.3178,-4.2659,-4.2429,-4.2526,-4.2079,-4.0771,-3.8814,-4.0935,-4.1427,-4.0646,-3.7585,-3.7066,-3.8176,-3.0038,-2.7318,-2.7985,-2.4131,-2.2432,-2.2337,-2.2337,-2.2337,-2.2337,0.0,0.0,0.0,0.0,0.0,0.0,0.0,0.0,0.0,0.0,0.0,0.0,0.0,0.0,0.0,0.0,0.0,0.0,0.0,0.0,0.0,0.0,0.0,-2.1402,-2.2983,-2.5385,-2.7027,-2.7836,-3.0491,-3.0962,-2.9357,-2.8041,0.0,0.0,0.0,0.0,0.0,0.0,0.0,0.0,-1.8977,-1.8091,-1.6783,0.0,0.0,0.0,0.0,0.0,0.0,0.0,-1.4011,-1.2576,-1.303,-1.3281,-1.3735,-1.5695,-1.6397,-1.7074,-1.8542,-1.9231,-2.021,0.0,0.0,0.0,0.0,0.0,0.0,0.0,0.0,0.0,0.0,0.0,0.0,0.0,0.0,0.0,0.0,0.0,0.0,0.0,0.0,0.0,0.0,0.0,0.0,0.0,0.0,0.0,0.0,-4.4771,-4.4252,-4.3697,-4.3443,-4.3178,-4.2924,-4.2393,-4.2272,-4.2502,-4.1717,-4.1464,-4.1717,-4.1717,-4.1427,-4.0646,-3.7585,-3.594,-3.5453,-2.9218,-2.5057,-2.2337,-2.2337,-2.2337,-2.2337,-2.2337,-2.2337,-2.2337,0.0,0.0,0.0,0.0,0.0,0.0,0.0,0.0,0.0,0.0,0.0,0.0,0.0,0.0,0.0,0.0,0.0,0.0,0.0,-1.4098,-1.5479,0.0,0.0,0.0,0.0,-2.4178,-2.7015,-2.9501,-3.0298,-2.9767,0.0,0.0,0.0,-2.4818,0.0,0.0,0.0,0.0,0.0,0.0,-1.717,-1.6446,-1.7067,0.0,0.0,0.0,0.0,0.0,0.0,0.0,0.0,0.0,-1.303,-1.3566,-1.416,-1.4444,-1.5406,-1.6567,-1.6877,0.0,0.0,0.0,0.0,0.0,0.0,0.0,0.0,0.0,0.0,0.0,0.0,0.0,0.0,0.0,0.0,0.0,0.0,0.0,0.0,0.0,0.0,0.0,0.0,0.0,0.0,0.0,0.0,0.0,0.0,-4.4156,-4.36,-4.3443,-4.3178,-4.2924,-4.2659,-4.2297,-4.2079,-4.1947,-4.1524,-4.1464,-4.1717,-4.1331,-4.1102,-4.0634,-3.5182,-3.3869,-3.5453,-2.9218,-2.5057,-2.2337,-2.2337,-2.2337,-2.2323,-2.2215,-2.2181,-2.2428,0.0,0.0,0.0,0.0,0.0,0.0,0.0,0.0,0.0,0.0,0.0,0.0,0.0,0.0,0.0,0.0,0.0,0.0,0.0,0.0,-1.4654,-1.6764,-1.8358,-1.9851,-2.1354,-2.4142,-2.6375,-2.7993,-2.885,0.0,0.0,0.0,0.0,-2.5675,0.0,-2.5461,0.0,0.0,-2.0314,-1.8433,-1.5988,-1.5228,-1.5491,0.0,0.0,0.0,0.0,0.0,0.0,0.0,0.0,0.0,-1.3047,-1.3349,-1.3743,-1.3614,-1.4401,-1.5421,-1.5421,0.0,0.0,0.0,0.0,0.0,0.0,0.0,0.0,0.0,0.0,0.0,0.0,0.0,0.0,0.0,0.0,0.0,0.0,0.0,0.0,0.0,0.0,0.0,0.0,0.0,0.0,0.0,0.0,0.0,0.0,-4.3769,-4.3311,-4.3311,-4.2948,-4.2695,-4.2526,-4.2176,-4.185,-4.156,-4.1295,-4.1198,-4.1234,-4.1029,-4.0812,-4.031,-3.3849,-3.095,-3.0129,-2.6478,-2.3978,-2.2337,-2.2337,-2.2337,-2.2323,-2.216,-2.2113,-2.2359,0.0,0.0,0.0,0.0,0.0,0.0,0.0,0.0,0.0,0.0,0.0,0.0,0.0,0.0,0.0,0.0,0.0,0.0,0.0,0.0,-1.3707,-1.6668,-1.7467,-1.9469,-2.2995,-2.4733,-2.5204,-2.4371,-2.6484,0.0,0.0,0.0,-2.751,-2.7763,0.0,-2.6911,0.0,-2.3043,-1.9884,-1.5748,-1.5416,-1.4348,-1.2956,-1.3098,0.0,0.0,0.0,0.0,0.0,0.0,0.0,0.0,-1.3162,-1.2874,-1.3044,-1.3159,-1.3417,-1.377,0.0,0.0,0.0,0.0,0.0,0.0,0.0,0.0,0.0,0.0,0.0,0.0,0.0,0.0,0.0,0.0,0.0,0.0,0.0,0.0,0.0,0.0,0.0,0.0,0.0,0.0,0.0,0.0,0.0,0.0,-4.4095,-4.3564,-4.3274,-4.3274,-4.2792,-4.2526,-4.249,-4.1983,-4.1584,-4.1295,-4.1041,-4.0776,-4.051,-4.0739,-4.031,-3.8974,-3.3293,-2.7774,-2.2337,-2.2337,-2.2337,-2.2337,-2.2337,-2.2337,-2.2323,-2.2428,-2.238,-2.2884,0.0,0.0,0.0,0.0,0.0,0.0,0.0,0.0,0.0,0.0,0.0,0.0,0.0,0.0,0.0,0.0,0.0,0.0,0.0,0.0,-1.3413,-1.515,-1.8887,-2.1591,-2.3019,-2.3647,-2.3478,-2.2464,-2.4371,0.0,0.0,0.0,0.0,-2.7244,0.0,-2.6818,-2.3542,-2.1068,-1.8486,-1.574,-1.4172,-1.3235,-1.2793,-1.2949,-1.2951,0.0,0.0,0.0,0.0,0.0,0.0,0.0,-1.2944,-1.3173,-1.3464,-1.3376,-1.3648,-1.459,0.0,0.0,0.0,0.0,0.0,0.0,0.0,0.0,0.0,0.0,0.0,0.0,0.0,0.0,0.0,0.0,0.0,0.0,0.0,0.0,0.0,0.0,0.0,0.0,0.0,0.0,0.0,0.0,-4.4216,-4.4095,-4.3793,-4.3274,-4.3021,-4.3021,-4.2695,-4.2429,-4.2236,-4.1874,-4.1488,-4.1029,-4.0969,-4.0679,-4.022,-4.0281,-3.7646,-3.3011,-3.1596,-2.7774,-2.2337,-2.2337,-2.2337,-2.2337,-2.2337,-2.2337,-2.2586,-2.4882,-2.5527,-2.5931,0.0,0.0,0.0,0.0,0.0,0.0,0.0,0.0,0.0,0.0,0.0,0.0,0.0,0.0,0.0,0.0,0.0,0.0,0.0,0.0,0.0,-1.5138,-1.9386,-2.1812,-2.209,-2.2355,-2.2102,-2.1293,0.0,0.0,0.0,0.0,0.0,-2.763,0.0,-2.6628,-2.2412,-2.0771,-1.8077,-1.4706,-1.3714,-1.3295,-1.3159,-1.3166,-1.2895,-1.2958,-1.6151,0.0,0.0,0.0,0.0,0.0,0.0,0.0,-1.3105,-1.3173,-1.3458,-1.427,0.0,0.0,0.0,0.0,0.0,0.0,0.0,0.0,0.0,0.0,0.0,0.0,0.0,0.0,0.0,0.0,0.0,0.0,0.0,0.0,0.0,0.0,0.0,0.0,0.0,0.0,0.0,-4.3769,-4.3733,-4.36,-4.3347,-4.2948,-4.2792,-4.2924,-4.2405,-4.214,-4.214,-4.1621,-4.1138,-4.0739,-4.0607,-4.0317,-3.9931,-3.9931,-3.7408,-3.2941,-3.1567,-2.8593,-2.4247,-2.2889,-2.2337,-2.2337,-2.2337,-2.3158,-2.4492,-2.5853,-2.7031,-2.8775,0.0,0.0,0.0,0.0,0.0,0.0,0.0,0.0,0.0,0.0,0.0,0.0,0.0,0.0,0.0,0.0,0.0,0.0,0.0,0.0,0.0,0.0,-1.9476,-2.1341,-2.1197,-2.1317,-2.1124,-2.0605,0.0,0.0,0.0,0.0,0.0,-2.8162,0.0,-2.585,-2.1353,-2.0567,-1.7535,-1.3519,-1.3614,-1.358,-1.3458,-1.3336,-1.2956,-1.2979,-1.649,-1.7367,-1.7102,-1.7615,0.0,0.0,0.0,0.0,-1.2589,-1.2847,-1.3132,-1.3775,0.0,0.0,0.0,0.0,0.0,0.0,0.0,0.0,0.0,0.0,0.0,0.0,0.0,0.0,0.0,0.0,0.0,0.0,0.0,0.0,0.0,0.0,0.0,0.0,0.0,-4.4083,-4.383,-4.3347,-4.3311,-4.3178,-4.2852,-4.2659,-4.2598,-4.2792,-4.2079,-4.1814,-4.2067,-4.1331,-4.0812,-4.0546,-4.022,-3.9931,-3.9738,-3.9738,-3.8075,-3.5316,-3.2931,-2.991,-2.6333,-2.3942,-2.2868,-2.2303,-2.2875,-2.4492,-2.6614,-2.7376,-2.9105,-3.1376,0.0,0.0,0.0,0.0,0.0,0.0,0.0,0.0,0.0,0.0,0.0,0.0,0.0,0.0,0.0,0.0,0.0,0.0,0.0,0.0,0.0,0.0,-1.9476,-2.1317,-2.1752,-2.1329,-2.0859,0.0,0.0,0.0,0.0,0.0,0.0,0.0,0.0,0.0,-2.1116,-1.7962,-1.5357,-1.3037,-1.2922,-1.2868,-1.2847,-1.2827,-1.2691,-1.2965,-1.6186,-1.6492,-1.5429,-1.7161,-1.6751,0.0,0.0,0.0,-1.2705,-1.2752,-1.2969,0.0,0.0,0.0,0.0,0.0,0.0,0.0,0.0,0.0,0.0,0.0,0.0,0.0,0.0,0.0,0.0,0.0,0.0,0.0,0.0,0.0,0.0,0.0,0.0,-4.4156,-4.4119,-4.389,-4.3636,-4.3347,-4.3311,-4.3081,-4.2598,-4.2562,-4.2429,-4.2236,-4.191,-4.1753,-4.1778,-4.1222,-4.0812,-4.0546,-4.0027,-3.9762,-3.9738,-3.9738,-3.7983,-3.509,-3.4757,-3.1644,-2.6265,-2.6028,-2.444,-2.2428,-2.5004,-2.6325,-2.6986,-3.2064,-3.3645,-3.4096,0.0,0.0,0.0,0.0,0.0,0.0,0.0,0.0,0.0,0.0,0.0,0.0,0.0,0.0,0.0,-1.2119,-1.1518,-1.1268,-1.1524,-1.3602,0.0,0.0,-1.8586,-2.0352,-2.075,-2.0364,-2.0134,0.0,0.0,0.0,0.0,-2.5011,-2.5842,0.0,0.0,0.0,0.0,0.0,0.0,-1.3193,-1.3037,-1.2976,-1.2963,-1.2793,-1.2684,-1.3085,-1.6203,0.0,0.0,-1.7316,-1.7152,-1.6001,-1.3476,0.0,0.0,0.0,0.0,0.0,0.0,0.0,0.0,0.0,0.0,0.0,0.0,0.0,0.0,0.0,0.0,0.0,0.0,0.0,0.0,0.0,0.0,0.0,0.0,0.0,0.0,0.0,-4.4409,-4.4216,-4.3926,-4.3769,-4.3467,-4.2924,-4.2888,-4.2695,-4.2333,-4.2176,-4.1148,-3.9619,-4.0793,-4.058,-3.8746,-4.006,-4.051,-4.0088,-3.9858,-3.9738,-3.9738,-3.9738,-3.8771,-3.7451,-3.5956,-3.257,-2.8312,-2.6862,-2.4798,-2.2113,-2.3544,-2.5956,-2.9098,-3.1402,-3.4078,-3.694,0.0,0.0,0.0,0.0,0.0,0.0,0.0,0.0,0.0,0.0,0.0,0.0,0.0,0.0,0.0,0.0,-1.2085,-1.1713,-1.2009,-1.3354,0.0,0.0,0.0,-1.9066,-1.9676,-1.947,0.0,0.0,0.0,0.0,-2.4951,-2.5627,-2.5944,0.0,-2.5001,0.0,0.0,0.0,0.0,0.0,0.0,-1.3085,-1.3105,-1.2956,0.0,-1.3352,-1.645,0.0,0.0,0.0,0.0,0.0,-1.3625,-1.2651,0.0,0.0,0.0,0.0,0.0,0.0,0.0,0.0,0.0,0.0,0.0,0.0,0.0,0.0,0.0,0.0,0.0,0.0,0.0,0.0,0.0,0.0,0.0,0.0,-4.4216,-4.4288,-4.4252,-4.4059,-4.3636,-4.348,-4.3154,-4.2562,-4.2466,-4.2272,-4.1947,-4.1717,-4.0431,-3.83,-4.0102,-3.9926,-3.7477,-3.9479,-4.0184,-3.9738,-3.9738,-3.9738,-3.9738,-3.9665,-3.9508,-3.8967,-3.6898,-3.429,-3.1072,-2.906,-2.6208,-2.3078,-2.4722,-2.7402,-3.0543,-3.1984,-3.4946,-3.841,0.0,0.0,0.0,0.0,0.0,0.0,0.0,0.0,0.0,0.0,0.0,0.0,0.0,-1.5132,-1.426,-1.4385,-1.1894,-1.0458,-1.061,-1.2057,-1.3464,-1.4922,-1.6353,0.0,-1.912,-1.9108,0.0,0.0,0.0,0.0,-2.5784,-2.6834,-2.6794,-2.5827,-2.4022,-2.137,-1.8166,0.0,0.0,0.0,0.0,0.0,0.0,0.0,0.0,0.0,0.0,0.0,0.0,0.0,0.0,0.0,0.0,0.0,-1.2691,0.0,0.0,0.0,0.0,0.0,0.0,0.0,0.0,0.0,0.0,0.0,0.0,0.0,0.0,0.0,0.0,0.0,0.0,0.0,0.0,0.0,-4.3673,-4.3504,-4.3467,-4.3697,-4.354,-4.3371,-4.3347,-4.2888,-4.2562,-4.2526,-4.2297,-4.1947,-4.1391,-4.1355,-4.1126,-4.0346,-4.0607,-4.057,-4.0286,-4.0281,-3.9991,-3.9738,-3.9738,-3.9738,-3.9738,-3.9472,-3.9219,-3.8989,-3.8967,-3.7037,-3.3786,-3.3962,-3.0856,-2.619,-3.168,-3.2443,-3.0683,-3.6183,-3.8128,-3.818,0.0,0.0,0.0,0.0,0.0,0.0,0.0,0.0,0.0,0.0,0.0,0.0,0.0,-1.5992,-1.5401,-1.4529,-1.3645,-1.3497,-1.4326,-1.5038,-1.5674,-1.6203,-1.7636,-1.8547,-1.9072,-1.9072,0.0,0.0,0.0,-2.1752,-2.4842,-2.6254,-2.5802,-2.3849,-2.3641,-2.1423,-1.7329,-1.5368,0.0,0.0,0.0,0.0,0.0,0.0,0.0,0.0,0.0,0.0,0.0,0.0,0.0,0.0,0.0,0.0,0.0,0.0,0.0,0.0,0.0,0.0,0.0,0.0,0.0,0.0,0.0,0.0,0.0,0.0,0.0,0.0,0.0,0.0,0.0,-4.2828,-4.2731,-4.2792,-4.3154,-4.3117,-4.3081,-4.3178,-4.3117,-4.2985,-4.2828,-4.249,-4.22,-4.2007,-4.1621,-4.1295,-4.1102,-4.0908,-3.9835,-3.7533,-3.9362,-4.045,-4.0281,-3.9991,-3.9834,-3.9738,-3.9738,-3.9738,-3.9738,-3.9472,-3.9206,-3.8953,-3.8856,-3.6987,-3.3981,-3.4153,-3.1908,-2.8789,-3.0711,-3.2039,-3.2745,-3.2997,-3.4175,-3.5294,0.0,0.0,0.0,0.0,0.0,0.0,0.0,0.0,0.0,0.0,0.0,0.0,0.0,0.0,-1.6129,-1.474,-1.513,-1.5593,-1.5977,-1.625,-1.6462,-1.698,-1.7893,-1.8676,-1.9072,-1.9072,0.0,0.0,0.0,0.0,0.0,0.0,-2.5131,-2.2866,-2.3327,0.0,0.0,0.0,0.0,-1.4611,0.0,0.0,-1.4068,0.0,0.0,0.0,0.0,0.0,0.0,0.0,0.0,0.0,0.0,0.0,0.0,0.0,0.0,0.0,0.0,0.0,0.0,0.0,0.0,0.0,0.0,0.0,0.0,0.0,0.0,-3.6974,-3.7136,-4.0074,-4.2369,-4.2272,-4.2103,-4.2079,-4.2333,-4.2309,-4.2297,-4.2369,-4.2393,-4.2272,-4.2007,-4.185,-4.1621,-4.1355,-4.1005,-4.0776,-4.0679,-4.051,-3.9421,-3.7128,-3.8951,-4.0027,-3.9738,-3.9641,-3.9569,-3.9472,-3.9569,-3.9569,-3.9472,-3.9182,-3.8989,-3.8796,-3.8543,-3.7271,-3.5529,-3.5529,-3.3808,-3.1325,-3.2381,-3.3415,-3.3957,-3.21,-3.255,-3.3722,0.0,0.0,0.0,0.0,0.0,0.0,0.0,0.0,0.0,0.0,0.0,0.0,0.0,0.0,0.0,-1.5183,-1.6343,-1.6462,-1.5163,-1.5033,-1.5684,-1.698,-1.7109,-1.7765,-1.9072,-1.9084,0.0,0.0,0.0,0.0,0.0,0.0,-2.4977,0.0,-2.2593,-2.0747,-1.7568,0.0,-1.6666,-1.6171,0.0,-1.4584,-1.5031,0.0,0.0,0.0,-1.9424,-1.919,0.0,0.0,0.0,0.0,0.0,0.0,0.0,0.0,0.0,0.0,0.0,0.0,0.0,0.0,0.0,0.0,-2.4773,0.0,-2.7343,-2.6897,-3.1591,-3.6062,-3.6148,-3.8865,-4.1355,-4.1621,-4.1259,-4.1005,-4.1295,-4.1102,-4.1029,-4.1259,-4.1295,-4.1198,-4.0933,-4.0908,-4.0812,-4.057,-4.0546,-4.0414,-4.0124,-4.0124,-3.987,-3.9339,-3.9339,-3.9206,-3.8953,-3.9206,-3.9206,-3.8953,-3.9206,-3.9206,-3.8953,-3.8663,-3.8543,-3.8543,-3.8253,-3.8156,-3.8156,-3.8156,-3.6581,-3.4498,-3.7107,-3.657,-3.3992,-3.3981,-3.397,-3.3453,0.0,0.0,0.0,0.0,0.0,0.0,0.0,0.0,0.0,0.0,0.0,0.0,0.0,0.0,0.0,-1.8296,-1.8557,-1.8536,-1.7667,-1.7803,-1.8162,-1.8547,-1.8547,-1.8676,-1.9072,-1.9265,-1.9398,0.0,0.0,0.0,0.0,0.0,0.0,0.0,-2.1854,-2.0198,-1.63,-1.5527,0.0,0.0,-1.4821,-1.4984,0.0,0.0,0.0,0.0,0.0,-1.8509,0.0,0.0,-1.746,-1.6301,0.0,0.0,0.0,0.0,0.0,0.0,-1.3817,0.0,0.0,0.0,0.0,0.0,-2.6223,-2.5059,-2.4854,-2.9453,-2.9342,-2.9648,-3.4846,-3.641,-3.8054,-4.0238,-4.0607,-4.0739,-4.1005,-4.0812,-4.0679,-4.0739,-4.0776,-4.0739,-4.0679,-4.0486,-4.0414,0.0,-4.0184,-3.9991,-4.0124,-3.9762,-3.9508,-3.9339,-3.9146,-3.9013,-3.8953,-3.9013,-3.9013,-3.8953,-3.9013,-3.9013,-3.8953,-3.8663,-3.8543,-3.8543,-3.8253,-3.8156,-3.8156,-3.8156,-3.762,-3.7107,-3.79,-3.762,-3.657,-3.2396,-3.0838,-3.0317,0.0,0.0,0.0,0.0,0.0,0.0,0.0,0.0,0.0,0.0,0.0,0.0,0.0,0.0,0.0,-1.9676,-1.9639,-1.9422,-1.8879,-1.8988,-1.912,-1.9229,-1.9241,-1.935,-1.9567,-1.9615,-1.9748,-1.9965,0.0,0.0,0.0,0.0,0.0,0.0,0.0,0.0,0.0,0.0,0.0,0.0,-1.5479,0.0,0.0,-1.6273,-1.6469,0.0,0.0,0.0,-1.7985,-1.8348,-1.7476,0.0,0.0,0.0,0.0,0.0,0.0,0.0,0.0,0.0,0.0,0.0,0.0,0.0,-2.3886,-2.3471,-2.4063,-2.8709,-2.7802,-2.7753,-3.213,-3.4015,-3.5405,-3.7371,-3.8712,-3.987,-4.0353,-4.022,-4.0051,-4.0051,-4.016,-4.016,-4.0063,-4.0088,-4.016,-4.0184,-3.9931,-3.9762,-3.9798,-3.9412,-3.9122,-3.9025,-3.8856,-3.8724,-3.8627,-3.8724,-3.8724,-3.8627,-3.8724,-3.8724,-3.8603,-3.8446,-3.8374,-3.8374,-3.8217,-3.8156,-3.8156,-3.8156,-3.8156,-3.8156,-3.8156,-3.8156,-3.7632,-3.1887,-2.9796,-2.9013,0.0,0.0,0.0,0.0,0.0,0.0,0.0,0.0,0.0,0.0,0.0,0.0,0.0,0.0,0.0,0.0,-2.0002,-1.9712,-1.9193,-1.9132,-1.9241,-1.9507,-1.9543,-1.9772,-2.0231,-2.0062,-2.0183,-2.0629,0.0,0.0,0.0,0.0,0.0,0.0,0.0,0.0,0.0,0.0,0.0,-1.6008,-1.632,-1.672,0.0,0.0,-1.7826,0.0,-1.9981,-1.9441,-1.7875,-1.88,-1.7285,0.0,0.0,0.0,0.0,0.0,-1.4877,0.0,0.0,0.0,0.0,0.0,0.0,0.0,-1.946,-2.1476,-2.3361,-2.5383,-2.6413,-2.753,-2.8961,-3.1379,-3.3206,-3.386,-3.6604,-3.8736,-3.9544,-3.9436,-3.9315,-3.9315,-3.9532,-3.9605,-3.9315,-3.9738,-3.9931,-3.9665,-3.9641,-3.9544,-3.9315,-3.905,-3.8796,-3.8543,-3.8506,-3.8374,-3.8156,-3.8374,-3.8374,-3.8156,-3.8374,-3.8374,-3.8156,-3.8156,-3.8156,-3.8156,-3.8156,-3.8156,-3.8156,-3.8156,-3.8156,-3.8156,-3.8156,-3.8156,-3.7632,-3.2147,-3.0047,-2.9013,-1.8915,0.0,0.0,0.0,0.0,0.0,0.0,0.0,0.0,0.0,0.0,0.0,0.0,0.0,0.0,0.0,-2.0702,-2.0062,-1.9748,-1.9519,-1.9519,-1.9796,-2.0014,-2.0074,-1.9965,-2.0327,-2.046,-2.0352,0.0,0.0,0.0,0.0,0.0,0.0,0.0,0.0,0.0,0.0,0.0,-1.5391,-1.5811,0.0,-1.8057,-1.8023,-1.8389,-1.8925,-1.9275,-1.8987,-1.8586,0.0,-1.7016,-1.5554,0.0,0.0,0.0,0.0,0.0,0.0,0.0,0.0,0.0,0.0,0.0,0.0,-1.7451,-1.739,-1.8482,-2.354,-2.1771,-2.1215,-2.7235,-2.8755,-2.9592,-3.172,-3.5365,-3.818,-3.8989,-3.905,-3.9013,-3.9013,-3.9243,-3.9315,-3.905,-3.9315,-3.9375,-3.9122,-3.911,-3.9086,-3.9013,-3.876,-3.8603,-3.8543,-3.8349,-3.8217,-3.8156,-3.8217,-3.8217,-3.8156,-3.8217,-3.8217,-3.8156,-3.8156,-3.8156,-3.8156,-3.8156,-3.8156,-3.8156,-3.8156,-3.8156,-3.8156,-3.8156,-3.8156,-3.7888,-3.4509,-3.1877,-2.9265,-1.8638,0.0,0.0,0.0,0.0,0.0,0.0,0.0,0.0,0.0,0.0,0.0,0.0,0.0,0.0,0.0,0.0,0.0,0.0,0.0,-1.9857,-2.0255,-2.04,-2.0593,-2.0871,-2.0871,-2.0871,-2.0883,0.0,0.0,0.0,0.0,0.0,0.0,0.0,0.0,0.0,0.0,-1.5255,-1.5377,-1.6273,0.0,-1.8233,-1.8464,-1.8864,-1.9291,-1.9149,-1.9006,-1.8708,-1.7582,-1.6951,0.0,0.0,-1.5133,-1.5025,0.0,-1.6837,-1.8714,0.0,0.0,0.0,-1.804,0.0,0.0,0.0,-1.6767,-1.7127,-2.0959,-1.9002,-1.7789,-2.2211,-2.4469,-2.6601,-2.8549,-3.2725,-3.6008,-3.7203,-3.818,-3.8215,-3.6899,-3.8061,-3.8346,-3.6899,-3.8179,-3.9086,-3.8953,-3.882,-3.876,-3.876,-3.8506,-3.8349,-3.8349,-3.8217,-3.8156,-3.8156,-3.8156,-3.8156,-3.8156,-3.8156,-3.8156,-3.8156,-3.8156,-3.8156,-3.8156,-3.8156,-3.8156,-3.8156,-3.8156,-3.8156,-3.8156,-3.8156,-3.8156,-3.7888,-3.5014,-3.3194,-3.1348,-1.836,0.0,0.0,0.0,0.0,0.0,0.0,0.0,0.0,0.0,0.0,0.0,0.0,0.0,0.0,0.0,0.0,0.0,0.0,0.0,0.0,-2.0581,-2.0786,-2.1136,-2.1631,-2.1317,-2.1221,-2.1402,0.0,0.0,0.0,0.0,0.0,0.0,0.0,0.0,0.0,0.0,0.0,-1.5608,0.0,-1.7609,-1.8036,-1.8728,-1.9183,-1.9468,-1.9434,-1.9183,-1.8708,-1.7534,0.0,-1.7256,-1.5845,-1.5839,0.0,0.0,0.0,0.0,0.0,0.0,0.0,0.0,0.0,-2.0045,0.0,0.0,0.0,-1.8842,-1.7599,-1.6439,-1.7107,-2.0886,-2.4127,-2.5327,-2.9767,-3.3593,-3.4837,-3.6341,-3.6581,-3.5014,-3.6301,-3.685,-3.5213,-3.7176,-3.8627,-3.8796,-3.8446,-3.8313,-3.8446,-3.8277,-3.8156,-3.8156,-3.8156,-3.8156,-3.8156,-3.8156,-3.8156,-3.8156,-3.8156,-3.8156,-3.8156,-3.8156,-3.8156,-3.8156,-3.8156,-3.8156,-3.8156,-3.8156,-3.8156,-3.8156,-3.8156,-3.8156,-3.79,-3.5552,-3.4509,-3.3463,-1.8589,0.0,0.0,0.0,-2.0569,-2.151,-2.186,0.0,0.0,0.0,0.0,0.0,0.0,0.0,0.0,0.0,0.0,0.0,-2.2971,0.0,0.0,-2.0327,-2.1233,-2.1438,-2.0822,-2.1221,-2.1329,-2.1112,0.0,0.0,0.0,0.0,0.0,0.0,-1.9903,0.0,0.0,0.0,-1.5734,0.0,-1.6836,-1.7331,0.0,-1.8599,-1.9257,-1.9678,-2.0064,-1.9834,-1.9271,0.0,-1.8213,-1.7704,0.0,-1.6734,-1.6483,0.0,0.0,0.0,0.0,0.0,0.0,0.0,-2.3451,0.0,0.0,0.0,-2.001,-1.8067,0.0,-1.7496,-1.6349,0.0,0.0,-2.2463,-2.8027,-3.2314,-3.2266,-3.2229,-3.3269,-3.6131,-3.4571,-3.428,-3.7251,-3.7193,-3.7492,-3.818,-3.7565,-3.7468,-3.8156,-3.8156,-3.8156,-3.8156,-3.8156,-3.8156,-3.8156,-3.8156,-3.8156,-3.8156,-3.8156,-3.8156,-3.8156,-3.8156,-3.8156,-3.8156,-3.8156,-3.8156,-3.8156,-3.8156,-3.8156,-3.8156,-3.8156,-3.8156,-3.8144,-3.7888,-3.6055,-3.397,-1.8662,0.0,0.0,0.0,-2.0533,-2.1414,-2.2609,0.0,0.0,0.0,0.0,0.0,0.0,0.0,0.0,0.0,0.0,-2.3273,0.0,0.0,0.0,0.0,0.0,0.0,-2.1824,-2.174,-2.1571,-2.1305,-2.1305,0.0,0.0,0.0,0.0,0.0,-2.1067,0.0,-1.8293,0.0,0.0,0.0,0.0,0.0,0.0,-1.8742,-1.9556,-1.98,-1.9908,-1.9712,-1.9325,0.0,-1.8321,0.0,0.0,0.0,0.0,0.0,0.0,0.0,0.0,0.0,0.0,0.0,0.0,0.0,-1.9768,0.0,-1.9861,0.0,0.0,0.0,0.0,0.0,0.0,0.0,-2.5352,-2.8658,-3.0334,-2.83,-2.8206,-3.2489,-3.1804,-3.2287,-3.5574,-3.6008,-3.6321,-3.6949,-3.6684,-3.678,-3.7432,-3.7758,-3.7927,-3.7927,-3.8084,-3.8023,-3.7698,-3.7987,-3.8084,-3.7927,-3.8084,-3.8156,-3.8156,-3.8156,-3.806,-3.7927,-3.8084,-3.7987,-3.7722,-3.8023,-3.806,-3.7951,-3.8084,-3.8156,-3.8156,-3.8156,-3.7375,-3.6312,-1.8782,0.0,0.0,0.0,0.0,0.0,-2.3164,0.0,0.0,0.0,0.0,0.0,-2.7401,-2.7111,0.0,0.0,0.0,-2.5252,0.0,0.0,-2.2177,0.0,0.0,0.0,0.0,0.0,-2.1848,-2.1583,-2.151,0.0,0.0,0.0,0.0,0.0,0.0,-2.1445,-1.9529,0.0,0.0,-1.6702,-1.7044,-1.7372,-1.765,-1.9006,-1.9698,-1.9922,-1.982,-1.9624,-1.9325,-1.864,-1.8511,0.0,-1.7914,0.0,0.0,0.0,0.0,0.0,-2.1924,0.0,0.0,0.0,0.0,0.0,0.0,0.0,0.0,0.0,0.0,0.0,0.0,0.0,0.0,0.0,0.0,-2.6005,-2.9027,-2.6078,-2.5326,-2.9983,-3.0753,-3.1932,-3.4267,-3.4861,-3.532,-3.5911,-3.5609,-3.5802,-3.672,-3.7046,-3.7335,-3.7625,-3.783,-3.7758,-3.7372,-3.783,-3.7951,-3.7758,-3.8023,-3.8156,-3.8156,-3.8084,-3.7951,-3.7758,-3.7891,-3.7722,-3.7408,-3.7854,-3.7927,-3.7794,-3.8048,-3.8156,-3.8156,-3.8156,-3.8156,-3.79,-1.9012,-1.9072,0.0,0.0,0.0,0.0,0.0,0.0,0.0,0.0,0.0,0.0,0.0,0.0,0.0,0.0,0.0,-2.7968,-2.7679,0.0,-2.1254,0.0,0.0,0.0,0.0,0.0,-2.2126,-2.186,0.0,0.0,0.0,0.0,0.0,0.0,0.0,-2.3499,-2.2988,-2.1481,-2.0861,-2.0356,-1.8736,-1.883,-1.9922,0.0,-1.959,-2.0098,-2.0085,0.0,0.0,-1.9217,-1.9081,0.0,0.0,0.0,0.0,0.0,0.0,0.0,0.0,0.0,0.0,-2.2572,0.0,0.0,0.0,0.0,-2.5397,0.0,0.0,0.0,0.0,0.0,0.0,0.0,0.0,0.0,0.0,-2.6106,-2.6034,-3.0093,-3.2325,-3.398,-3.4511,-3.4342,-3.4547,-3.5356,-3.4185,-3.4245,-3.6104,-3.5971,-3.6321,-3.7335,-3.7396,-3.7396,-3.7372,-3.7625,-3.7758,-3.7758,-3.8023,-3.8156,-3.8144,-3.7891,-3.7758,-3.7758,-3.7504,-3.7372,-3.7396,-3.7661,-3.7758,-3.7794,-3.8048,-3.8156,-3.8156,-3.8156,-3.8156,-3.8144,0.0,0.0,0.0,0.0,0.0,0.0,0.0,-2.4649,0.0,0.0,0.0,0.0,0.0,0.0,-3.2024,0.0,0.0,-3.0177,-2.9188,-2.5589,0.0,0.0,0.0,-2.0129,0.0,0.0,0.0,0.0,0.0,0.0,0.0,0.0,0.0,0.0,0.0,-2.4302,0.0,0.0,0.0,0.0,0.0,-1.9128,-2.0207,0.0,-1.9752,-2.0085,-1.9875,-1.9712,0.0,-1.9522,-1.9345,-1.9128,-1.9128,-1.8816,-1.8464,-1.8518,-1.8464,-1.8844,0.0,0.0,-2.2752,-2.194,0.0,0.0,0.0,0.0,0.0,0.0,0.0,0.0,0.0,0.0,0.0,0.0,0.0,0.0,0.0,-2.4992,-2.5512,-2.6568,-2.9401,-3.1626,-3.2157,-3.2121,-3.241,-3.3207,-3.2362,-3.2531,-3.4221,-3.5259,-3.5935,-3.6297,-3.7179,-3.7372,-3.6853,-3.7432,-3.7661,-3.7504,-3.7951,-3.8156,-3.8144,-3.7891,-3.7661,-3.7504,-3.7408,-3.7179,-3.6877,-3.7504,-3.7661,-3.7529,-3.7987,-3.8156,-3.8156,-3.8156,-3.8156,-3.8156,-1.9989,0.0,0.0,0.0,0.0,0.0,0.0,0.0,0.0,0.0,-2.9972,0.0,-3.3569,0.0,-3.4149,0.0,-3.3762,-3.2118,-2.9582,-2.6515,0.0,-2.2228,-1.9997,0.0,0.0,0.0,0.0,0.0,0.0,-2.1831,0.0,0.0,0.0,0.0,0.0,0.0,-2.5459,0.0,-2.2544,0.0,0.0,-1.9468,0.0,0.0,-1.9922,-2.0139,0.0,-1.9664,-1.9664,-1.9664,-1.9535,-1.9379,-1.9481,-1.9169,-1.8796,-1.8952,-1.8884,-1.9022,-2.0736,-2.1506,0.0,-2.0568,-2.0501,0.0,-2.113,0.0,-2.5042,0.0,0.0,0.0,0.0,0.0,0.0,0.0,0.0,0.0,0.0,-2.4765,-2.5358,-2.5457,-2.798,-3.0033,-3.066,-3.0636,-3.0745,-3.1167,-3.0455,-3.0745,-3.2435,-3.3859,-3.4897,-3.5489,-3.6684,-3.7082,-3.6563,-3.7179,-3.7396,-3.7239,-3.7661,-3.7854,-3.7854,-3.7601,-3.7396,-3.7239,-3.7106,-3.6877,-3.6587,-3.7239,-3.7372,-3.7275,-3.7794,-3.8023,-3.8023,-3.812,-3.8156,-3.8156,0.0,0.0,0.0,0.0,-2.1245,0.0,0.0,0.0,-2.7872,0.0,-3.1022,-3.2978,-3.4571,-3.5223,-3.5742,-3.6237,-3.6249,0.0,-2.8891,-2.6701,0.0,0.0,-1.8348,-1.7923,-1.7429,0.0,0.0,0.0,0.0,0.0,0.0,0.0,0.0,0.0,-2.6146,0.0,-2.7247,-2.5092,-2.4412,-2.4281,-2.1137,-1.9875,-1.9888,-1.9875,-2.0064,-2.0261,-1.982,-1.9664,-1.9664,-1.9664,-1.9664,-1.9664,-1.9678,-1.9468,-1.9257,-1.9413,-1.9345,-1.9217,-1.9237,-1.9359,-1.9325,-1.8742,-1.8694,0.0,0.0,0.0,-2.6346,0.0,0.0,0.0,0.0,0.0,0.0,0.0,0.0,0.0,0.0,-2.5096,-2.5808,-2.6846,-2.8077,-2.9188,-3.0069,-2.9864,-2.9574,-2.9332,-2.8572,-2.8934,-3.0781,-3.1952,-3.328,-3.4837,-3.5971,-3.6563,-3.6563,-3.6853,-3.6973,-3.6973,-3.7239,-3.7372,-3.7372,-3.7106,-3.6973,-3.6973,-3.6684,-3.6563,-3.6587,-3.6853,-3.6973,-3.7046,-3.7565,-3.7758,-3.7818,-3.806,-3.8156,-3.8156,-2.0859,-2.1438,-2.1957,0.0,-2.2428,-2.3104,0.0,0.0,0.0,0.0,-3.3111,-3.5259,-3.7046,-3.7722,-3.7915,-3.7661,-3.5484,0.0,0.0,0.0,0.0,-2.1719,-1.9394,-1.8368,-1.9395,-1.8348,0.0,-2.0705,0.0,0.0,-2.2791,0.0,0.0,0.0,0.0,0.0,-2.7485,-2.5029,-2.2728,-2.065,-2.0109,-1.9942,-2.0031,0.0,-1.9997,-2.0119,-1.9786,-1.9664,-1.9678,-1.9786,-1.9752,-1.9698,-1.9922,-1.9786,-1.9576,-1.9712,-1.9664,-1.959,-1.982,-1.9908,-1.9875,-1.959,-1.9393,-1.9546,0.0,0.0,0.0,0.0,0.0,0.0,0.0,0.0,0.0,0.0,0.0,0.0,0.0,0.0,0.0,-2.6061,-2.6266,-2.7135,-2.9127,-2.8536,-2.8005,-2.7932,-2.7377,-2.7679,-2.9151,-3.1179,-3.2748,-3.3762,-3.5585,-3.6563,-3.6563,-3.6853,-3.6973,-3.6973,-3.7239,-3.7372,-3.7372,-3.7106,-3.6973,-3.6973,-3.6684,-3.6563,-3.6587,-3.6853,-3.7106,-3.7299,-3.7625,-3.7891,-3.806,-3.812,-3.8156,-3.8156,-2.1704,0.0,0.0,-2.3695,0.0,0.0,-2.5771,0.0,0.0,-3.1505,-3.3895,0.0,-3.6985,-3.8205,-3.8796,-3.8349,-3.6721,0.0,0.0,0.0,0.0,-2.1451,-1.9514,-1.8774,-1.9346,-1.8424,0.0,-1.9785,0.0,0.0,-2.2426,0.0,0.0,0.0,0.0,-2.7135,-2.7759,-2.539,-2.2428,-1.9325,-1.9644,-1.9841,0.0,-1.9888,-1.9888,-1.9888,-1.9712,-1.9664,-1.9678,-1.9752,-1.9766,-1.98,-2.0031,-1.9997,-1.9888,-2.0098,-2.0064,-1.9997,-2.0227,-2.0295,-2.0275,-2.0187,-2.0085,-2.0127,-2.0751,-2.2483,-2.3917,0.0,-2.5753,-2.5998,0.0,0.0,0.0,0.0,0.0,0.0,0.0,0.0,0.0,0.0,-2.5699,-2.6182,-2.7655,-2.7039,-2.6508,-2.6387,-2.6544,-2.6918,-2.7534,-3.0177,-3.2036,-3.2821,-3.4933,-3.6201,-3.6563,-3.6853,-3.6913,-3.678,-3.6949,-3.701,-3.701,-3.6853,-3.678,-3.678,-3.6623,-3.6563,-3.6563,-3.672,-3.6877,-3.7046,-3.7432,-3.7758,-3.7987,-3.812,-3.8156,-3.8156,0.0,0.0,0.0,0.0,0.0,0.0,0.0,-2.8765,0.0,-3.2024,0.0,-3.5996,-3.6225,-3.7915,-3.8953,-3.8675,0.0,-3.5428,-2.9317,-2.8794,-2.6001,-1.9949,-1.961,-1.9257,-1.8565,-1.986,0.0,0.0,0.0,-2.099,-2.2452,-2.2161,0.0,0.0,0.0,0.0,0.0,-2.5669,-2.2921,-1.9537,-1.9542,-1.9644,-1.9678,-1.98,-1.9766,-1.9664,-2.0144,-1.9894,-1.9664,-1.9678,-1.9766,-1.9875,-2.0064,-2.0119,-2.0153,-2.0451,-2.0438,-2.0363,-2.0505,-2.0526,-2.0526,-2.0539,-2.0668,-2.0682,-2.0261,-2.1683,-2.3386,-2.3173,-2.4316,-2.4598,-2.3122,0.0,0.0,0.0,0.0,0.0,0.0,0.0,0.0,0.0,0.0,0.0,-2.6158,-2.5784,-2.5397,-2.5071,-2.594,-2.6387,-2.6182,-2.9043,-3.1119,-3.206,-3.4125,-3.5646,-3.6563,-3.6816,-3.6816,-3.6623,-3.6587,-3.6563,-3.6563,-3.6563,-3.6563,-3.6563,-3.6563,-3.6563,-3.6563,-3.6563,-3.6587,-3.6659,-3.7203,-3.7565,-3.7794,-3.7987,-3.8084,-3.8156,0.0,0.0,0.0,0.0,0.0,-2.9055,-3.0781,-3.2278,-3.3593,-3.4632,-3.7034,-3.8663,-3.8724,-3.9243,-3.9508,-3.9219,-3.706,0.0,0.0,0.0,0.0,-2.1178,-2.0539,-2.0173,-1.98,-1.9184,-1.8267,0.0,-1.6707,-1.7805,-2.0333,-2.0086,-2.1694,0.0,0.0,0.0,-2.5798,-2.4317,0.0,-2.0827,-1.9915,-1.9556,-1.9664,-1.9698,-1.9678,-1.9894,-2.2062,-2.157,-1.9678,-1.98,-1.9766,-1.9766,-2.0173,-2.0207,-2.0153,-2.0451,-2.0438,-2.0363,-2.0505,-2.0451,-2.0397,-2.0505,-2.075,-2.0878,-2.0539,-2.0999,-2.1416,-2.1252,-2.1327,-2.1,-1.9922,-1.8508,0.0,0.0,0.0,0.0,0.0,0.0,0.0,0.0,0.0,-2.6339,-2.594,-2.6013,-2.5796,-2.5096,-2.5421,-2.5723,-2.5892,-2.7896,-2.9803,-3.1481,-3.34,-3.509,-3.6563,-3.6623,-3.672,-3.6913,-3.6659,-3.6563,-3.6563,-3.6563,-3.6563,-3.6563,-3.6563,-3.6563,-3.6563,-3.6563,-3.6684,-3.6949,-3.7492,-3.7722,-3.7734,-3.7565,-3.7794,-3.8156,0.0,0.0,0.0,0.0,0.0,0.0,0.0,-3.5126,0.0,-3.5452,-3.6973,-3.8048,-3.7915,-3.9122,-3.9762,-3.9375,-3.7993,-3.535,-3.0381,-2.8953,-2.5895,-2.148,-2.1001,0.0,-2.0329,-1.9169,-1.8213,-1.7541,-1.6029,-1.6857,-1.9804,-1.9465,-2.1263,-2.489,0.0,-2.588,0.0,0.0,-2.257,-2.1292,-1.974,-1.9447,-1.9664,-1.9664,-1.9664,-2.0144,-2.2522,-2.2835,-2.194,-2.1697,-2.1697,-2.1498,-2.0519,-2.0153,-2.0241,-2.0383,-2.0438,-2.0451,-2.0526,-2.0485,-2.0451,-2.0526,-2.0716,-2.0845,-2.0702,-2.0824,-2.0946,-2.0804,-2.0594,-2.0119,-1.9061,-1.7826,0.0,0.0,0.0,0.0,0.0,0.0,0.0,0.0,0.0,0.0,0.0,-2.5091,-2.4766,-2.4735,-2.559,-2.5868,-2.5446,-2.7196,-2.8922,-3.0515,-3.2254,-3.4052,-3.5935,-3.6358,-3.6623,-3.6756,-3.6623,-3.6563,-3.6563,-3.6563,-3.6563,-3.6563,-3.6563,-3.6563,-3.6563,-3.6563,-3.672,-3.701,-3.7275,-3.7372,-3.7372,-3.7372,-3.7529,-3.7758,0.0,-2.4599,0.0,0.0,-3.0262,0.0,-3.5187,-3.7082,-3.783,-3.649,-3.707,-3.7565,-3.7335,-3.8989,-3.9931,-3.9472,-3.8882,-3.6244,-3.0721,-2.9636,-2.6827,-2.1535,-2.1265,-2.1089,-2.0702,-1.9556,-1.8531,0.0,-1.6171,-1.674,-1.9156,-1.8904,-2.0776,-2.4483,0.0,0.0,0.0,-2.3548,-2.2565,-2.1847,-1.9854,-1.9379,-1.9664,-1.9698,-1.9712,-2.0199,-2.3343,-2.4645,-2.4747,-2.5096,-2.4913,-2.4309,-2.1667,-2.0872,-2.1069,-2.0587,-2.0397,-2.0485,-2.0485,-2.0485,-2.0505,-2.0539,-2.0682,-2.0811,-2.077,-2.0824,-2.0892,-2.098,-2.0668,-2.0064,-1.9081,-1.8233,-1.7534,0.0,0.0,0.0,0.0,0.0,0.0,0.0,0.0,0.0,-2.5578,-2.4486,-2.4164,-2.4459,-2.533,-2.5302,-2.4491,-2.6546,-2.8234,-2.9501,-3.1215,-3.3074,-3.5126,-3.5971,-3.6454,-3.6563,-3.6563,-3.6563,-3.6563,-3.6563,-3.6563,-3.6563,-3.6563,-3.6563,-3.6563,-3.6623,-3.6756,-3.6877,-3.6949,-3.6973,-3.701,-3.7203,-3.7372,-3.7468,0.0,0.0,0.0,0.0,0.0,0.0,-3.5646,-3.7529,-3.8989,-3.9279,-3.9605,-3.9834,-3.9798,-3.9991,-3.9991,-3.9738,-3.7249,-3.4341,-3.0686,-2.7984,-2.4905,-2.1428,-2.1421,-2.1333,-2.1157,-2.0119,-1.9006,0.0,-1.6741,-1.6429,-1.7033,-1.7148,-1.8922,-2.2343,-2.5043,-2.627,-2.6229,-2.3839,-2.3253,-2.3462,-2.0459,-1.9379,-1.9678,-1.98,-1.9854,-2.0598,-2.5599,-2.739,-2.7897,-3.032,-2.9592,-2.72,-2.469,-2.4026,-2.3551,-2.1069,-2.0349,-2.0349,-2.0349,-2.0349,-2.0383,-2.0505,-2.0756,-2.0946,-2.0811,-2.098,-2.1143,-2.1021,-2.075,-2.0275,-1.9515,-1.9291,-1.8816,0.0,0.0,0.0,0.0,0.0,-2.9357,-2.8572,0.0,0.0,-2.5687,-2.573,-2.5502,-2.4371,-2.3518,-2.2891,-2.2794,-2.557,-2.7606,-2.8693,-3.0757,-3.2628,-3.4281,-3.532,-3.6104,-3.6563,-3.6563,-3.6563,-3.6563,-3.6563,-3.6563,-3.6563,-3.6563,-3.6563,-3.6587,-3.6853,-3.6816,-3.6623,-3.6877,-3.6973,-3.6973,-3.701,-3.7311,-3.7722,0.0,0.0,0.0,0.0,0.0,0.0,0.0,-3.7482,-3.9436,-4.0124,-4.0317,-4.0317,-4.016,-4.0281,-4.0196,-3.9762,-3.7026,-3.4156,-3.0905,-2.7811,-2.4708,-2.1584,-2.1496,-2.1367,-2.1211,-2.0451,-1.9522,0.0,0.0,-1.7062,-1.7389,-1.7009,-1.8786,-2.2544,-2.3783,-2.5577,-2.7545,-2.4137,-2.3474,-2.419,-2.0758,-1.9379,-1.9678,-1.982,-1.9875,-2.038,-2.4188,-2.6546,-2.8644,-3.1479,-3.1576,-2.9642,-2.5587,-2.421,-2.3793,-2.1076,-2.0329,-2.0349,-2.0438,-2.0397,-2.0363,-2.0505,-2.0702,-2.0878,-2.0892,-2.1001,-2.1123,-2.1245,-2.1089,-2.0736,-2.0085,-1.9678,-1.925,-1.8708,0.0,0.0,0.0,0.0,0.0,-2.8994,0.0,-2.7063,-2.5361,-2.4198,-2.3517,-2.3472,-2.3664,-2.3821,-2.3982,-2.5086,-2.6544,-2.8089,-2.9743,-3.1517,-3.3437,-3.4668,-3.5646,-3.6334,-3.6334,-3.6394,-3.6563,-3.6563,-3.6563,-3.6563,-3.6563,-3.6563,-3.6563,-3.6684,-3.6659,-3.6563,-3.6684,-3.672,-3.672,-3.672,-3.707,-3.7529,-1.9399,0.0,-2.4371,0.0,-2.8252,-3.163,-3.4519,-3.6554,-3.8504,-4.007,-3.9587,-3.9268,-4.0245,-3.9528,-3.8868,-3.8401,-3.5661,-3.3121,-3.1,-2.7854,-2.5283,-2.3004,-2.2041,0.0,-2.1279,-2.0736,-1.9963,-1.8959,-1.7901,0.0,-1.749,-1.7112,-1.8531,-2.1402,-2.2352,-2.4143,-2.6549,-2.3398,-2.2759,-2.3892,-2.0628,-1.9413,-1.9732,-1.9888,-1.9963,-2.0271,-2.313,-2.6034,-2.8952,-3.1847,-3.2945,-3.2639,-2.8218,-2.6797,-2.6104,-2.2574,-2.1571,-2.1349,-2.0697,-2.0397,-2.0363,-2.0505,-2.0682,-2.0858,-2.0912,-2.1001,-2.1123,-2.1333,-2.1245,-2.1288,-2.1669,-2.0707,-2.0052,-2.0487,-2.29,0.0,0.0,-2.7995,0.0,-2.9393,-2.7896,-2.658,-2.5615,-2.3856,-2.3134,-2.3727,-2.4182,-2.4508,-2.4496,-2.452,-2.5571,-2.7642,-2.9296,-3.1059,-3.2954,-3.4318,-3.5356,-3.6165,-3.6165,-3.6297,-3.6563,-3.6563,-3.6563,-3.6563,-3.6563,-3.6563,-3.6563,-3.6563,-3.6563,-3.6563,-3.6563,-3.6563,-3.6587,-3.6756,-3.7046,-3.7396,-1.9712,-2.2167,-2.4574,-2.5404,-2.8118,-3.1024,-3.4418,-3.5036,-3.629,-3.9782,-3.7669,-3.6922,-4.0238,-3.7816,-3.565,-3.5413,-3.268,-3.0939,-3.075,-2.7854,-2.6062,0.0,0.0,-2.1441,-2.1441,-2.1001,-2.0329,-1.9427,0.0,0.0,-1.6062,-1.7337,-1.785,-1.8057,-2.0694,-2.2149,-2.2241,-2.1309,-2.1319,-2.2003,-2.0017,-1.9468,-1.9888,-2.0051,-2.0187,-2.0594,-2.348,-2.6426,-2.9384,-3.2152,-3.4675,-3.6465,-3.3676,-3.2743,-3.1494,-2.5846,-2.4292,-2.3559,-2.1069,-2.0329,-2.0363,-2.0505,-2.077,-2.0967,-2.0811,-2.1001,-2.1211,-2.1211,-2.1109,-2.1808,-2.4795,-2.2883,-2.1697,-2.3407,-2.3463,-2.3497,0.0,-2.6519,0.0,-2.9711,-2.8608,-2.7486,-2.6701,-2.5663,-2.5156,-2.5421,-2.4939,-2.4228,-2.3466,-2.3521,-2.4767,-2.7401,-2.9743,-3.1626,-3.2978,-3.4318,-3.5356,-3.6165,-3.6165,-3.6297,-3.6563,-3.6563,-3.6563,-3.6563,-3.6563,-3.6563,-3.6563,-3.6563,-3.6563,-3.6563,-3.6563,-3.6563,-3.6623,-3.7179,-3.7372,-3.7432,-2.0716,-2.1583,-2.2248,-2.268,-2.6827,-3.0457,-3.1808,-3.547,-3.7635,-3.7308,-3.6148,-3.5314,-3.4447,-3.3312,-3.3444,0.0,-3.2671,-3.1829,0.0,-2.899,-2.6127,-2.6062,-2.3162,-2.1441,-2.1441,-2.1197,-2.079,-2.0187,0.0,0.0,-1.653,-1.694,-1.7866,-1.9332,-2.0405,-2.2188,-2.4066,-2.231,-2.2008,-2.2345,-2.0331,-1.9664,-1.9908,-2.0153,-2.0349,-2.0471,-2.1534,-2.4918,-2.9132,-2.9899,-3.3057,-3.6485,-3.592,-3.4257,-3.1784,-2.8233,-2.588,-2.4082,-2.3433,-2.1902,-2.0383,-2.0627,-2.0702,-2.075,-2.1021,-2.1143,-2.1157,-2.0946,-2.0967,-2.1716,-2.4341,-2.411,-2.4174,-2.6394,-2.7626,-2.8145,-2.7968,-2.8699,-2.9295,-2.8862,-2.7377,-2.6073,-2.5096,-2.5023,-2.5156,-2.5421,-2.4063,-2.3756,-2.4788,-2.5138,-2.6127,-2.7655,-2.9839,-3.1553,-3.2688,-3.4221,-3.5283,-3.5911,-3.6068,-3.6297,-3.6563,-3.6563,-3.6563,-3.6563,-3.6563,-3.6563,-3.6563,-3.6563,-3.6563,-3.6563,-3.6563,-3.6563,-3.6587,-3.6756,-3.7046,-3.7396,-2.1015,-2.1299,-2.1353,-2.1496,-2.4546,-2.7905,-3.0238,-3.3937,-3.6356,-3.7195,-3.5207,-3.3001,-3.1477,-2.9378,0.0,-3.3614,-3.2168,-3.2158,-3.524,-3.0694,-2.7794,-2.7854,-2.3732,-2.1475,-2.153,-2.1374,-2.1102,-2.0716,-1.9698,-1.862,-1.75,-1.7277,-1.7861,-1.9257,-1.9521,-2.078,-2.262,-2.1401,-2.1066,-2.1436,-2.0281,-1.9786,-1.9976,-2.0241,-2.0417,-2.0539,-2.0539,-2.3398,-2.7596,-2.8627,-3.1808,-3.5508,-3.6797,-3.5932,-3.3682,-3.0822,-2.8205,-2.5673,-2.4861,-2.2532,-2.0485,-2.079,-2.0736,-2.0702,-2.098,-2.1001,-2.1199,-2.214,-2.2419,-2.3434,-2.7405,-2.7116,-2.6912,-2.8999,-2.9329,-2.8964,-2.8692,-2.8689,-2.8474,-2.8152,-2.7148,-2.6206,-2.5639,-2.5977,-2.6218,-2.6182,-2.5102,-2.4833,-2.573,-2.5572,-2.6265,-2.8077,-3.0286,-3.2012,-3.3171,-3.4378,-3.5295,-3.5935,-3.6201,-3.6394,-3.6563,-3.6563,-3.6563,-3.6563,-3.6563,-3.6563,-3.6563,-3.6563,-3.6563,-3.6563,-3.6563,-3.6563,-3.6563,-3.6684,-3.6985,-3.7372,-2.1169,-2.1455,-2.1496,0.0,-2.205,-2.4082,-2.9627,-3.0892,-3.3191,-3.8366,-3.4562,-3.1325,-3.1062,-2.603,-2.5324,-3.1109,0.0,0.0,-3.5986,-3.2929,-3.081,-3.0722,-2.4866,-2.1803,-2.1672,-2.153,-2.1299,-2.098,-1.9854,-1.9128,-1.8816,-1.8233,-1.8124,-1.8389,-1.8511,-1.8654,-1.8816,-1.9094,-1.9305,-1.9447,-1.9624,-1.9854,-2.0119,-2.0295,-2.0438,-2.056,-2.0573,-2.2419,-2.5337,-2.8111,-3.0655,-3.3459,-3.65,-3.7179,-3.6405,-3.366,-3.0822,-2.8114,-2.5778,-2.2928,-2.0614,-2.0912,-2.0892,-2.079,-2.077,-2.0668,-2.14,-2.4485,-2.4917,-2.6695,-3.2423,-3.0875,-2.9605,-3.166,-2.9269,-2.7366,-2.8035,-2.7047,-2.6496,-2.8056,-2.7751,-2.7558,-2.7763,-2.8017,-2.798,-2.751,-2.7425,-2.7196,-2.6749,-2.5525,-2.5944,-2.8669,-3.0974,-3.2845,-3.4185,-3.474,-3.5392,-3.6201,-3.643,-3.6563,-3.6563,-3.6563,-3.6563,-3.6563,-3.6563,-3.6563,-3.6563,-3.6563,-3.6563,-3.6563,-3.6563,-3.6563,-3.6587,-3.6853,-3.7142,-3.7408,0.0,0.0,-2.1638,-2.1672,-2.365,-2.5686,-2.7207,-3.1308,-3.3825,-3.3191,-3.3752,-3.3543,-3.1534,-2.8027,-2.8448,-3.4861,-3.2873,-3.3495,-3.8739,-3.6044,-3.3084,-3.1,-2.7241,-2.4126,-2.1672,-2.1638,-2.1353,-2.0824,-2.0417,-1.9963,-1.9447,-1.9183,-1.904,-1.8993,-1.9027,-1.9061,-1.9115,-1.9291,-1.9393,-1.9468,-1.9834,-2.0031,-2.0139,-2.0526,-2.0682,-2.0736,-2.0845,-2.2706,-2.5271,-2.7904,-3.0655,-3.3426,-3.6275,-3.6877,-3.6672,-3.6062,-3.259,-2.8766,-2.79,-2.4087,-2.0594,-2.077,-2.0967,-2.1021,-2.0682,-2.075,-2.1604,-2.4206,-2.4633,-2.6399,-3.1787,-3.2064,-3.1884,-3.4062,-3.2909,-3.1424,-3.0084,-2.9213,-2.8362,-2.7751,-2.7848,-2.7884,-2.7546,-2.7751,-2.7932,-2.8005,-2.7461,-2.7244,-2.7522,-2.7974,-2.8652,-2.9501,-3.1264,-3.2845,-3.4185,-3.4933,-3.5682,-3.6466,-3.6527,-3.6563,-3.6563,-3.6563,-3.6563,-3.6563,-3.6563,-3.6563,-3.6563,-3.6563,-3.6563,-3.6563,-3.6563,-3.6563,-3.6563,-3.6623,-3.6949,-3.7372,-2.056,-2.1169,-2.176,-2.176,-2.322,-2.4706,-2.614,-3.0268,-3.307,-3.2921,-3.4396,-3.5054,-3.3525,-2.9573,-2.9228,-3.4182,-3.243,-3.3869,-3.9763,-3.697,-3.3989,-3.1124,-2.7897,-2.4769,-2.176,-2.1706,-2.1441,-2.0967,-2.0824,-2.0505,-2.0051,-1.9766,-1.9556,-1.9413,-1.9413,-1.9413,-1.9434,-1.9644,-1.9732,-1.9766,-2.0085,-2.0241,-2.0329,-2.058,-2.0756,-2.0878,-2.0804,-2.1847,-2.3411,-2.6023,-2.8719,-3.1505,-3.4143,-3.585,-3.678,-3.6949,-3.3871,-3.0484,-2.8941,-2.5626,-2.2084,-2.0986,-2.1001,-2.1123,-2.0824,-2.0824,-2.1911,-2.5939,-2.673,-2.8114,-3.3849,-3.4074,-3.3805,-3.4351,-3.3437,-3.2012,-3.0141,-2.9284,-2.8584,-2.786,-2.8355,-2.8741,-2.8705,-2.9043,-2.9079,-2.8608,-2.8403,-2.821,-2.8005,-2.9236,-2.996,-2.9984,-3.1771,-3.3268,-3.4342,-3.5283,-3.5971,-3.6394,-3.649,-3.6563,-3.6563,-3.6563,-3.6563,-3.6563,-3.6563,-3.6563,-3.6563,-3.6563,-3.6563,-3.6563,-3.6563,-3.6563,-3.6563,-3.6563,-3.6913,-3.7372,-2.0502,-2.136,-2.1916,-2.1916,-2.2038,-2.2961,-2.5419,-2.8813,-3.1916,-3.4396,-3.5932,-3.6628,-3.6661,-3.1474,-2.9727,-3.3136,-3.2231,-3.3717,-3.9421,-3.7397,-3.4662,-3.1858,-2.8541,-2.5686,-2.2715,-2.2016,-2.1516,-2.1211,-2.1089,-2.0858,-2.0539,-2.0153,-1.9888,-1.9732,-1.9732,-1.9732,-1.9752,-1.9997,-2.0098,-2.0119,-2.0261,-2.0417,-2.0539,-2.0594,-2.0756,-2.0933,-2.0716,-2.0702,-2.1263,-2.3644,-2.6356,-2.9134,-3.21,-3.4902,-3.6913,-3.6973,-3.5272,-3.2603,-2.953,-2.6443,-2.3636,-2.1249,-2.1001,-2.1177,-2.1034,-2.0912,-2.2427,-2.8333,-2.8974,-3.0464,-3.6143,-3.6225,-3.503,-3.3956,-3.2652,-3.1107,-2.9272,-2.8644,-2.8367,-2.8331,-2.9139,-2.9912,-3.0467,-3.0841,-3.0636,-2.9634,-2.9779,-2.9574,-2.8789,-3.0045,-3.0721,-3.0576,-3.2362,-3.3762,-3.4668,-3.5706,-3.6237,-3.6237,-3.6454,-3.6563,-3.6563,-3.6563,-3.6563,-3.6563,-3.6563,-3.6563,-3.6563,-3.6563,-3.6563,-3.6563,-3.6563,-3.6563,-3.6563,-3.6563,-3.6913,-3.7372,-1.9689,-2.1181,-2.2079,-2.2079,-2.2201,-2.2344,-2.3021,-2.7718,-3.163,-3.2106,-3.6585,-3.9729,-3.9953,-3.4708,-3.3435,-3.9269,-3.48,-3.3189,-3.6377,-3.8279,-3.8015,-3.4863,-3.178,-2.8979,-2.5853,-2.3148,-2.1516,-2.1211,-2.1197,-2.0967,-2.0539,-2.0471,-2.0295,-2.0031,-2.0031,-2.0031,-2.0031,-2.0085,-2.0098,-2.0119,-2.0261,-2.0417,-2.0573,-2.0824,-2.0878,-2.0845,-2.1034,-2.0967,-2.1284,-2.3784,-2.6556,-2.9327,-3.2163,-3.4788,-3.6659,-3.6913,-3.6533,-3.4829,-3.0085,-2.5179,-2.1249,-2.1013,-2.1001,-2.1177,-2.1034,-2.1068,-2.2667,-2.8232,-2.8993,-3.0284,-3.5697,-3.5971,-3.503,-3.3956,-3.2471,-3.089,-2.9248,-2.9127,-2.9139,-2.891,-3.0189,-3.1288,-3.1843,-3.1553,-3.1529,-3.2,-3.1071,-3.0708,-3.1215,-3.1493,-3.1807,-3.2205,-3.2748,-3.3762,-3.5259,-3.6068,-3.649,-3.649,-3.6527,-3.6563,-3.6563,-3.6563,-3.6563,-3.6563,-3.6563,-3.6563,-3.6563,-3.6563,-3.6563,-3.6563,-3.6563,-3.6563,-3.6563,-3.6563,-3.6913,-3.7335,-1.989,-2.0539,-2.1396,-2.1953,-2.2087,-2.1929,-2.2554,-2.7583,-3.1544,-3.1639,-3.7046,-4.08,-4.0933,-3.7099,-3.5814,-3.8757,-3.6135,-3.5079,-3.5838,-3.862,-3.8646,-3.5661,-3.2671,-2.8725,-2.4142,-2.2497,-2.1441,-2.1211,-2.1299,-2.1143,-2.079,-2.079,-2.0627,-2.0329,-2.0329,-2.0295,-2.0227,-2.0309,-2.0329,-2.0349,-2.0417,-2.0573,-2.079,-2.0858,-2.0933,-2.1001,-2.098,-2.0892,-2.102,-2.2193,-2.4174,-2.6939,-2.9693,-3.2387,-3.4806,-3.6214,-3.5662,-3.356,-2.9547,-2.577,-2.2669,-2.115,-2.1123,-2.1319,-2.1245,-2.1231,-2.2762,-2.8469,-2.9172,-3.0363,-3.5791,-3.5778,-3.4644,-3.3726,-3.1735,-3.0069,-2.9332,-2.9091,-2.9151,-2.961,-3.0938,-3.2036,-3.2555,-3.2266,-3.2133,-3.2362,-3.1674,-3.1348,-3.1566,-3.2,-3.2471,-3.2978,-3.3823,-3.4764,-3.5802,-3.6297,-3.6563,-3.6563,-3.6563,-3.6563,-3.6563,-3.6563,-3.6563,-3.6563,-3.6563,-3.6563,-3.6563,-3.6563,-3.6563,-3.6563,-3.6563,-3.6563,-3.6587,-3.672,-3.6949,-3.7179,-1.9797,-2.011,-2.04,-2.1824,-2.1644,-2.1755,-2.269,-2.7231,-3.0667,-3.0758,-3.6169,-3.9614,-3.9062,-3.6984,-3.5951,-3.678,-3.6231,-3.6019,-3.6969,-3.8961,-3.8974,-3.6489,-3.2931,-2.8147,-2.216,-2.1652,-2.1455,-2.1265,-2.1387,-2.1299,-2.1055,-2.1055,-2.0912,-2.0648,-2.0648,-2.0594,-2.0492,-2.056,-2.0594,-2.0594,-2.056,-2.0702,-2.0933,-2.0824,-2.0912,-2.1089,-2.0858,-2.0756,-2.0702,-2.0627,-2.2323,-2.5055,-2.7845,-3.0593,-3.3055,-3.5802,-3.5064,-3.3044,-3.0304,-2.7849,-2.5353,-2.2536,-2.2253,-2.2223,-2.1441,-2.1353,-2.2842,-2.8661,-2.8801,-2.9685,-3.5873,-3.5238,-3.3768,-3.3618,-3.1493,-2.9912,-2.9791,-2.9429,-2.9526,-3.0467,-3.1698,-3.2652,-3.3111,-3.305,-3.2881,-3.2688,-3.2471,-3.2242,-3.1964,-3.2592,-3.3207,-3.3726,-3.4861,-3.5682,-3.6068,-3.6394,-3.6563,-3.6563,-3.6563,-3.6563,-3.6563,-3.6563,-3.6563,-3.6563,-3.6563,-3.6563,-3.6563,-3.6563,-3.6563,-3.6563,-3.6563,-3.6563,-3.6587,-3.6816,-3.6913,-3.701,-1.8984,-1.9562,-2.0431,-2.1398,-2.1437,-2.186,-2.311,-2.5872,-2.7864,-2.8208,-3.3488,-3.5919,-3.3118,-3.2836,-3.3692,-3.6522,-3.4265,-3.4913,-3.9752,-4.0262,-4.0281,-3.9471,-3.4012,-2.8147,-2.216,-2.1862,-2.1706,-2.1421,-2.1441,-2.1353,-2.1197,-2.1197,-2.1109,-2.0967,-2.0967,-2.0967,-2.0946,-2.0811,-2.0756,-2.0736,-2.0594,-2.0648,-2.079,-2.077,-2.079,-2.0811,-2.077,-2.0682,-2.0573,-2.0716,-2.2419,-2.508,-2.7785,-3.0474,-3.3055,-3.5802,-3.6539,-3.5802,-3.3055,-3.0625,-2.8168,-2.5353,-2.5103,-2.4578,-2.1951,-2.1441,-2.2951,-2.8247,-2.7266,-2.7504,-3.5179,-3.3931,-3.2107,-3.3464,-3.2555,-3.1457,-3.095,-3.0853,-3.1034,-3.1626,-3.2628,-3.34,-3.369,-3.3919,-3.4052,-3.4052,-3.4016,-3.3895,-3.363,-3.3895,-3.4318,-3.4837,-3.5416,-3.5778,-3.5802,-3.6297,-3.6563,-3.6563,-3.6563,-3.6563,-3.6563,-3.6563,-3.6563,-3.6563,-3.6563,-3.6563,-3.6563,-3.6563,-3.6563,-3.6563,-3.6563,-3.6563,-3.6563,-3.6587,-3.6756,-3.6949,-1.8978,-1.873,-1.9326,-2.1132,-2.1227,-2.1367,-2.277,-2.5664,-2.7694,-2.7849,-3.1489,-3.3702,-3.23,-3.3983,-3.566,-3.678,-3.723,-3.8406,-4.0286,-4.0377,-3.9303,-3.7026,-3.307,-2.889,-2.4706,-2.3,-2.174,-2.1441,-2.153,-2.1462,-2.1211,-2.1319,-2.1279,-2.1123,-2.1123,-2.1034,-2.0858,-2.079,-2.0668,-2.0505,-2.0526,-2.0573,-2.0648,-2.0736,-2.077,-2.077,-2.077,-2.0668,-2.056,-2.0614,-2.2345,-2.508,-2.8038,-3.0725,-3.3055,-3.5802,-3.6563,-3.6317,-3.5298,-3.3284,-3.0279,-2.6091,-2.5266,-2.4708,-2.1937,-2.1441,-2.2466,-2.6303,-2.606,-2.6791,-3.3078,-3.2806,-3.2058,-3.413,-3.3147,-3.2097,-3.2205,-3.1952,-3.2,-3.2688,-3.3437,-3.3992,-3.4245,-3.4221,-3.4185,-3.4185,-3.4185,-3.4149,-3.4052,-3.4281,-3.4511,-3.4704,-3.5259,-3.5682,-3.6008,-3.637,-3.6563,-3.6563,-3.6563,-3.6563,-3.6563,-3.6563,-3.6563,-3.6563,-3.6563,-3.6563,-3.6563,-3.6563,-3.6454,-3.6334,-3.649,-3.6454,-3.6358,-3.6684,-3.678,-3.672,-1.8447,-1.8175,-1.8503,-2.0294,-2.0434,-2.0864,-2.2472,-2.4574,-2.6078,-2.641,-2.8932,-3.0584,-2.9466,-3.2281,-3.4245,-3.5379,-3.7208,-3.8935,-4.0298,-4.0196,-3.8553,-3.5391,-3.3329,-3.0528,-2.6699,-2.442,-2.2617,-2.1509,-2.1618,-2.153,-2.1279,-2.1387,-2.1387,-2.1279,-2.1279,-2.1177,-2.098,-2.0933,-2.077,-2.0539,-2.0594,-2.058,-2.056,-2.0668,-2.0702,-2.0702,-2.0702,-2.0627,-2.0539,-2.0594,-2.1837,-2.4079,-2.7795,-3.1245,-3.4301,-3.6167,-3.6623,-3.6563,-3.6563,-3.5438,-3.2872,-2.8532,-2.6974,-2.5901,-2.3171,-2.1937,-2.2209,-2.5018,-2.4527,-2.5561,-3.1682,-3.1574,-3.1457,-3.469,-3.4016,-3.3268,-3.3473,-3.3171,-3.3171,-3.3799,-3.4221,-3.4511,-3.4668,-3.4535,-3.4438,-3.4438,-3.4438,-3.4438,-3.4438,-3.4511,-3.4607,-3.4704,-3.5151,-3.5549,-3.5911,-3.6165,-3.6358,-3.643,-3.6358,-3.6394,-3.6563,-3.6466,-3.649,-3.6563,-3.6563,-3.6563,-3.6563,-3.6563,-3.6394,-3.6201,-3.6454,-3.6394,-3.6201,-3.6587,-3.6587,-3.6454,-1.7902,-1.7902,-1.8219,-1.9186,-1.9308,-2.0037,-2.1743,-2.2075,-2.2422,-2.3139,-2.5882,-2.6634,-2.3499,-2.6055,-2.889,-3.2018,-3.2291,-3.4624,-4.0025,-4.0027,-3.8366,-3.5391,-3.5381,-3.2571,-2.6699,-2.6427,-2.4908,-2.1672,-2.1672,-2.1597,-2.1441,-2.1441,-2.1441,-2.1441,-2.1441,-2.1441,-2.1421,-2.1279,-2.1123,-2.098,-2.0845,-2.0682,-2.0539,-2.0539,-2.0539,-2.0539,-2.0539,-2.0539,-2.056,-2.0716,-2.0668,-2.1569,-2.7027,-3.2504,-3.6623,-3.6877,-3.678,-3.6563,-3.6563,-3.6563,-3.5885,-3.335,-3.0976,-2.8719,-2.5859,-2.3156,-2.2166,-2.4606,-2.2905,-2.351,-3.143,-3.0444,-3.0093,-3.4773,-3.5392,-3.5187,-3.4668,-3.4571,-3.4668,-3.4933,-3.497,-3.497,-3.497,-3.497,-3.497,-3.497,-3.497,-3.497,-3.497,-3.4704,-3.4704,-3.497,-3.5223,-3.538,-3.538,-3.5646,-3.5911,-3.6165,-3.5911,-3.6068,-3.6563,-3.6297,-3.6297,-3.6563,-3.6563,-3.6563,-3.6563,-3.6563,-3.6394,-3.6201,-3.6454,-3.6394,-3.6165,-3.6165,-3.6165,-3.6128,-1.7902,-1.7973,-1.8346,-1.9308,-1.9429,-1.9859,-2.118,-2.1794,-2.2094,-2.2422,-2.3814,-2.408,-2.3225,-2.6055,-2.8847,-3.1793,-3.3884,-3.5552,-3.6733,-3.8739,-3.8366,-3.5391,-3.5381,-3.3711,-2.9855,-2.7554,-2.497,-2.1815,-2.1726,-2.1597,-2.1441,-2.1441,-2.1441,-2.1441,-2.1441,-2.1387,-2.1279,-2.1231,-2.1001,-2.0702,-2.0858,-2.077,-2.056,-2.079,-2.0858,-2.0845,-2.0736,-2.0702,-2.0702,-2.0627,-2.3091,-2.7083,-3.2829,-3.5893,-3.7335,-3.707,-3.6913,-3.6816,-3.6623,-3.6563,-3.5885,-3.335,-3.0998,-2.836,-2.5818,-2.2979,-2.1948,-2.4978,-2.4425,-2.5692,-3.1878,-3.2058,-3.243,-3.55,-3.5935,-3.5815,-3.5452,-3.5416,-3.5513,-3.5778,-3.5489,-3.532,-3.5513,-3.5187,-3.497,-3.497,-3.497,-3.5066,-3.5259,-3.4994,-3.4897,-3.497,-3.4873,-3.4801,-3.4801,-3.5646,-3.6008,-3.5911,-3.6201,-3.6297,-3.6297,-3.6394,-3.649,-3.6563,-3.6563,-3.6563,-3.6563,-3.6563,-3.6394,-3.6201,-3.6454,-3.6394,-3.6201,-3.6358,-3.6334,-3.6165,-1.7973,-1.806,-1.8456,-1.8805,-1.9168,-1.9259,-2.0257,-2.1137,-2.1724,-2.2069,-2.3779,-2.4646,-2.3225,-2.6055,-2.8538,-3.0034,-3.2527,-3.4468,-3.5553,-3.7083,-3.7272,-3.5391,-3.6467,-3.565,-3.2931,-2.9746,-2.66,-2.349,-2.2278,-2.1597,-2.1441,-2.1441,-2.1441,-2.1441,-2.1441,-2.1387,-2.1299,-2.1231,-2.1055,-2.0824,-2.0946,-2.0892,-2.0736,-2.0933,-2.0967,-2.0892,-2.0811,-2.0811,-2.0824,-2.0614,-2.4087,-2.9482,-3.4355,-3.6654,-3.7529,-3.7239,-3.7046,-3.6913,-3.6623,-3.6563,-3.6341,-3.4753,-3.1588,-2.8429,-2.6887,-2.3837,-2.1843,-2.4938,-2.5144,-2.6643,-3.2194,-3.2947,-3.3616,-3.5857,-3.649,-3.6527,-3.614,-3.6165,-3.6237,-3.6165,-3.5802,-3.5549,-3.5609,-3.5223,-3.497,-3.497,-3.5066,-3.5163,-3.5223,-3.5066,-3.497,-3.497,-3.4704,-3.4571,-3.4571,-3.532,-3.5609,-3.5452,-3.5778,-3.6008,-3.6165,-3.6237,-3.6358,-3.6563,-3.6563,-3.6563,-3.6563,-3.6563,-3.6394,-3.6201,-3.6454,-3.6394,-3.6201,-3.6334,-3.6297,-3.614,-1.8076,-1.8174,-1.8256,-1.8272,-1.8272,-1.86,-1.9287,-2.0162,-2.1069,-2.1762,-2.5183,-2.6333,-2.3485,-2.5739,-2.7362,-2.7459,-2.9877,-3.2403,-3.4877,-3.4948,-3.5111,-3.5111,-3.7831,-3.811,-3.593,-3.2701,-2.9527,-2.6143,-2.3315,-2.1837,-2.1441,-2.1441,-2.1441,-2.1441,-2.1421,-2.1421,-2.1421,-2.1279,-2.1211,-2.1197,-2.1089,-2.1034,-2.1021,-2.1034,-2.0967,-2.0845,-2.0845,-2.0912,-2.0987,-2.0931,-2.4476,-2.9519,-3.2699,-3.5553,-3.7432,-3.7408,-3.7203,-3.6949,-3.6684,-3.6623,-3.6587,-3.6587,-3.3003,-2.9142,-2.887,-2.4957,-2.2298,-2.5071,-2.5577,-2.716,-3.2711,-3.3317,-3.4064,-3.6341,-3.6973,-3.7106,-3.6623,-3.678,-3.6756,-3.6237,-3.5935,-3.5682,-3.5416,-3.5163,-3.4994,-3.503,-3.5259,-3.5283,-3.503,-3.497,-3.497,-3.4933,-3.4668,-3.4535,-3.4511,-3.4764,-3.4897,-3.4933,-3.4994,-3.5416,-3.6128,-3.5911,-3.6068,-3.6563,-3.6563,-3.6563,-3.6563,-3.6563,-3.643,-3.6237,-3.6454,-3.643,-3.6201,-3.6201,-3.6201,-3.6104,-1.8087,-1.8174,-1.8283,-1.8381,-1.8397,-1.844,-1.8843,-1.9447,-2.0317,-2.1199,-2.2252,-2.3029,-2.3049,-2.3508,-2.4762,-2.6815,-2.9617,-3.0283,-2.8671,-3.08,-3.1867,-3.1867,-3.4852,-3.7026,-3.8634,-3.5503,-3.1513,-2.6143,-2.5312,-2.356,-2.1441,-2.1441,-2.1441,-2.1441,-2.1319,-2.1333,-2.1421,-2.1279,-2.1211,-2.1211,-2.1319,-2.1265,-2.1177,-2.1299,-2.1408,-2.1462,-2.1333,-2.1319,-2.1556,-2.3305,-2.6365,-2.9875,-3.2805,-3.5537,-3.7951,-3.7722,-3.7492,-3.7275,-3.7203,-3.7046,-3.6877,-3.6877,-3.4527,-3.1858,-2.9404,-2.6363,-2.4974,-2.812,-2.9918,-3.2226,-3.5782,-3.6204,-3.5885,-3.6575,-3.6659,-3.6684,-3.6587,-3.6623,-3.6527,-3.6201,-3.5935,-3.5682,-3.5416,-3.532,-3.538,-3.5585,-3.5452,-3.5356,-3.5295,-3.509,-3.4873,-3.4668,-3.4414,-3.4185,-3.3956,-3.4221,-3.445,-3.4668,-3.5295,-3.5682,-3.5875,-3.6008,-3.6261,-3.6563,-3.6563,-3.6563,-3.6563,-3.6563,-3.6527,-3.649,-3.6527,-3.6527,-3.6466,-3.6466,-3.6334,-3.6128,-1.8114,-1.8212,-1.837,-1.8424,-1.8397,-1.8413,-1.8593,-1.9142,-1.9994,-2.0917,-2.2858,-2.3911,-2.3015,-2.4344,-2.5575,-2.6687,-2.6785,-2.6704,-2.6695,-2.9411,-3.1043,-3.1043,-3.5122,-3.811,-3.9725,-3.7876,-3.3878,-2.8286,-2.668,-2.4399,-2.1441,-2.1441,-2.1408,-2.1333,-2.1245,-2.1265,-2.1319,-2.1177,-2.1197,-2.1319,-2.1333,-2.1333,-2.1319,-2.1333,-2.1387,-2.1421,-2.1285,-2.1231,-2.177,-2.4415,-2.7226,-3.0019,-3.2973,-3.5941,-3.8084,-3.783,-3.7565,-3.7335,-3.7203,-3.7082,-3.6973,-3.6973,-3.513,-3.2964,-3.1189,-2.8946,-2.7822,-3.096,-3.2236,-3.3993,-3.6822,-3.6913,-3.6563,-3.6563,-3.6659,-3.672,-3.6587,-3.6684,-3.6563,-3.6032,-3.5875,-3.5682,-3.5416,-3.5609,-3.5706,-3.5609,-3.5585,-3.5452,-3.5187,-3.503,-3.4897,-3.4764,-3.4378,-3.4113,-3.3992,-3.4113,-3.4245,-3.4414,-3.5066,-3.5513,-3.5778,-3.5911,-3.6201,-3.6563,-3.643,-3.6358,-3.6358,-3.6237,-3.6261,-3.6358,-3.6358,-3.6454,-3.6563,-3.6563,-3.6394,-3.6165,-1.8185,-1.8299,-1.844,-1.8468,-1.837,-1.837,-1.8593,-1.9108,-1.9654,-2.0905,-2.3723,-2.478,-2.3265,-2.5155,-2.64,-2.6109,-2.432,-2.3986,-2.6413,-2.9411,-3.1296,-3.1848,-3.6456,-3.918,-3.9738,-3.9279,-3.6351,-3.0743,-2.8092,-2.4991,-2.1475,-2.1455,-2.1353,-2.1211,-2.1211,-2.1211,-2.1211,-2.1089,-2.1197,-2.1421,-2.1299,-2.1333,-2.1421,-2.1265,-2.1231,-2.1231,-2.1123,-2.1089,-2.168,-2.4664,-2.7479,-3.0077,-3.3141,-3.5775,-3.8048,-3.783,-3.7565,-3.7335,-3.7166,-3.7106,-3.7106,-3.7106,-3.5759,-3.4095,-3.3853,-3.192,-3.0801,-3.3273,-3.3754,-3.455,-3.7013,-3.6889,-3.6563,-3.6563,-3.672,-3.6756,-3.6527,-3.6659,-3.6527,-3.5802,-3.5706,-3.5646,-3.5513,-3.5911,-3.5971,-3.5549,-3.5682,-3.5549,-3.5066,-3.4957,-3.4873,-3.4837,-3.4378,-3.4113,-3.4113,-3.4149,-3.4209,-3.4245,-3.474,-3.5223,-3.5706,-3.5742,-3.6008,-3.643,-3.6237,-3.614,-3.6068,-3.5875,-3.5911,-3.6104,-3.614,-3.6297,-3.649,-3.6527,-3.643,-3.6261,-1.8408,-1.8408,-1.8468,-1.8576,-1.8495,-1.8468,-1.8593,-1.8609,-1.917,-2.0629,-2.128,-2.1708,-2.2812,-2.286,-2.2966,-2.291,-2.4797,-2.6147,-2.6695,-2.9411,-3.2119,-3.4572,-3.5671,-3.7026,-3.9725,-3.9436,-3.6587,-3.0675,-2.9854,-2.6776,-2.1638,-2.1509,-2.1353,-2.1211,-2.1211,-2.1211,-2.1211,-2.1197,-2.1279,-2.1441,-2.1421,-2.1421,-2.1421,-2.1265,-2.1299,-2.1408,-2.1387,-2.1462,-2.2097,-2.4641,-2.7453,-3.0269,-3.3194,-3.5651,-3.7794,-3.7758,-3.7565,-3.7408,-3.7601,-3.7661,-3.7661,-3.7661,-3.7576,-3.7453,-3.7203,-3.509,-3.3273,-3.3356,-3.5302,-3.6762,-3.707,-3.678,-3.6563,-3.6563,-3.6394,-3.6261,-3.6237,-3.6068,-3.5815,-3.5477,-3.5452,-3.5609,-3.6032,-3.6128,-3.614,-3.6068,-3.5875,-3.5646,-3.5356,-3.4873,-3.4511,-3.4281,-3.3992,-3.3859,-3.3859,-3.4088,-3.4281,-3.4511,-3.4837,-3.5126,-3.5452,-3.5682,-3.5815,-3.5911,-3.6068,-3.6032,-3.5839,-3.5778,-3.5802,-3.5839,-3.6068,-3.6201,-3.6237,-3.6466,-3.6527,-3.6527,-1.8272,-1.8343,-1.844,-1.8424,-1.8424,-1.8478,-1.8609,-1.8565,-1.8804,-1.9947,-2.0364,-2.0771,-2.1827,-2.2194,-2.2337,-2.2337,-2.5057,-2.6695,-2.6695,-3.1034,-3.4012,-3.5381,-3.7015,-3.8366,-3.9725,-3.9472,-3.7186,-3.3135,-3.1014,-2.7846,-2.3908,-2.2258,-2.1319,-2.1089,-2.1089,-2.1055,-2.0967,-2.0967,-2.1109,-2.1319,-2.1319,-2.1367,-2.1421,-2.1177,-2.1177,-2.1319,-2.1319,-2.1408,-2.1803,-2.2774,-2.6141,-3.0047,-3.1219,-3.4491,-3.7722,-3.7601,-3.7468,-3.7396,-3.7504,-3.7661,-3.7758,-3.7758,-3.7951,-3.812,-3.8023,-3.7198,-3.6094,-3.5841,-3.6594,-3.7106,-3.701,-3.6623,-3.6334,-3.6334,-3.6128,-3.5935,-3.5935,-3.5971,-3.5935,-3.5839,-3.5682,-3.5742,-3.6128,-3.6297,-3.6261,-3.5971,-3.5839,-3.5513,-3.4957,-3.4704,-3.445,-3.4185,-3.3919,-3.3787,-3.3787,-3.4052,-3.4245,-3.4342,-3.4764,-3.5126,-3.538,-3.5513,-3.5646,-3.5778,-3.5742,-3.5682,-3.5549,-3.5392,-3.5416,-3.5585,-3.5682,-3.5815,-3.5971,-3.6068,-3.6128,-3.6128]}]]